<?xml version='1.0' encoding='UTF-8'?>
<gpx xmlns="http://www.topografix.com/GPX/1/1" creator="www.balnam.be" version="1.1" xmlns:xsi="http://www.w3.org/2001/XMLSchema-instance" xsi:schemaLocation="http://www.topografix.com/GPX/1/1 http://www.topografix.com/GPX/1/1/gpx.xsd">
<trk>
<name>hdobg11</name>
<cmt>v</cmt>
<desc>Blaugies Chemin n°11 </desc>
<link href="https://chemins.be/blaugies/chemin/11"/><trkseg>
<trkpt lat="50.364630" lon="3.823097"><time>2026-05-04T15:17:53Z</time></trkpt>
<trkpt lat="50.364706" lon="3.823321"><time>2026-05-04T15:27:53Z</time></trkpt>
<trkpt lat="50.364766" lon="3.823478"><time>2026-05-04T15:37:53Z</time></trkpt>
<trkpt lat="50.364839" lon="3.823631"><time>2026-05-04T15:47:53Z</time></trkpt>
<trkpt lat="50.364915" lon="3.823787"><time>2026-05-04T15:57:53Z</time></trkpt>
<trkpt lat="50.364983" lon="3.823931"><time>2026-05-04T16:07:53Z</time></trkpt>
<trkpt lat="50.365038" lon="3.824048"><time>2026-05-04T16:17:53Z</time></trkpt>
<trkpt lat="50.365078" lon="3.824163"><time>2026-05-04T16:27:53Z</time></trkpt>
<trkpt lat="50.365106" lon="3.824304"><time>2026-05-04T16:37:53Z</time></trkpt>
<trkpt lat="50.365122" lon="3.824458"><time>2026-05-04T16:47:53Z</time></trkpt>
<trkpt lat="50.365137" lon="3.824680"><time>2026-05-04T16:57:53Z</time></trkpt>
<trkpt lat="50.365141" lon="3.824873"><time>2026-05-04T17:07:53Z</time></trkpt>
<trkpt lat="50.365135" lon="3.825085"><time>2026-05-04T17:17:53Z</time></trkpt>
<trkpt lat="50.365117" lon="3.825272"><time>2026-05-04T17:27:53Z</time></trkpt>
<trkpt lat="50.365082" lon="3.825460"><time>2026-05-04T17:37:53Z</time></trkpt>
<trkpt lat="50.365036" lon="3.825627"><time>2026-05-04T17:47:53Z</time></trkpt>
<trkpt lat="50.364968" lon="3.825796"><time>2026-05-04T17:57:53Z</time></trkpt>
<trkpt lat="50.364843" lon="3.826062"><time>2026-05-04T18:07:53Z</time></trkpt>
<trkpt lat="50.364720" lon="3.826250"><time>2026-05-04T18:17:53Z</time></trkpt>
<trkpt lat="50.364617" lon="3.826395"><time>2026-05-04T18:27:53Z</time></trkpt>
<trkpt lat="50.364455" lon="3.826569"><time>2026-05-04T18:37:53Z</time></trkpt>
<trkpt lat="50.364179" lon="3.826843"><time>2026-05-04T18:47:53Z</time></trkpt>
<trkpt lat="50.363741" lon="3.827258"><time>2026-05-04T18:57:53Z</time></trkpt>
<trkpt lat="50.363428" lon="3.827529"><time>2026-05-04T19:07:53Z</time></trkpt>
<trkpt lat="50.363259" lon="3.827687"><time>2026-05-04T19:17:53Z</time></trkpt>
<trkpt lat="50.363124" lon="3.827838"><time>2026-05-04T19:27:53Z</time></trkpt>
<trkpt lat="50.362978" lon="3.828033"><time>2026-05-04T19:37:53Z</time></trkpt>
<trkpt lat="50.362804" lon="3.828253"><time>2026-05-04T19:47:53Z</time></trkpt>
<trkpt lat="50.362424" lon="3.828720"><time>2026-05-04T19:57:53Z</time></trkpt>
<trkpt lat="50.362285" lon="3.828908"><time>2026-05-04T20:07:53Z</time></trkpt>
<trkpt lat="50.362171" lon="3.829106"><time>2026-05-04T20:17:53Z</time></trkpt>
<trkpt lat="50.361974" lon="3.829522"><time>2026-05-04T20:27:53Z</time></trkpt>
<trkpt lat="50.361799" lon="3.829868"><time>2026-05-04T20:37:53Z</time></trkpt>
<trkpt lat="50.361674" lon="3.830107"><time>2026-05-04T20:47:53Z</time></trkpt>
<trkpt lat="50.361599" lon="3.830222"><time>2026-05-04T20:57:53Z</time></trkpt>
<trkpt lat="50.361462" lon="3.830370"><time>2026-05-04T21:07:53Z</time></trkpt>
<trkpt lat="50.361312" lon="3.830531"><time>2026-05-04T21:17:53Z</time></trkpt>
<trkpt lat="50.361156" lon="3.830667"><time>2026-05-04T21:27:53Z</time></trkpt>
<trkpt lat="50.360903" lon="3.830860"><time>2026-05-04T21:37:53Z</time></trkpt>
<trkpt lat="50.360750" lon="3.830973"><time>2026-05-04T21:47:53Z</time></trkpt>
<trkpt lat="50.360614" lon="3.831046"><time>2026-05-04T21:57:53Z</time></trkpt>
<trkpt lat="50.360518" lon="3.831072"><time>2026-05-04T22:07:53Z</time></trkpt>
<trkpt lat="50.360425" lon="3.831078"><time>2026-05-04T22:17:53Z</time></trkpt>
<trkpt lat="50.360331" lon="3.831062"><time>2026-05-04T22:27:53Z</time></trkpt>
<trkpt lat="50.360230" lon="3.831027"><time>2026-05-04T22:37:53Z</time></trkpt>
</trkseg>
</trk>
<trk>
<name>hdobg12</name>
<cmt>v</cmt>
<desc>Blaugies Chemin n°12 </desc>
<link href="https://chemins.be/blaugies/chemin/12"/><trkseg>
<trkpt lat="50.367838" lon="3.808565"><time>2026-05-04T15:17:53Z</time></trkpt>
<trkpt lat="50.366491" lon="3.807861"><time>2026-05-04T15:27:53Z</time></trkpt>
<trkpt lat="50.364410" lon="3.809355"><time>2026-05-04T15:37:53Z</time></trkpt>
<trkpt lat="50.364093" lon="3.810951"><time>2026-05-04T15:47:53Z</time></trkpt>
</trkseg>
</trk>
<trk>
<name>hdobg13</name>
<cmt>v</cmt>
<desc>Blaugies Chemin n°13 Rue Planquette</desc>
<link href="https://chemins.be/blaugies/chemin/13"/><trkseg>
<trkpt lat="50.374053" lon="3.826010"><time>2026-05-04T15:17:53Z</time></trkpt>
<trkpt lat="50.374469" lon="3.827075"><time>2026-05-04T15:27:53Z</time></trkpt>
<trkpt lat="50.374682" lon="3.829469"><time>2026-05-04T15:37:53Z</time></trkpt>
</trkseg></trk>
<trk>
<name>hdobg13</name>
<cmt>r</cmt>
<desc>Blaugies Chemin n°13 Rue Planquette</desc>
<link href="https://chemins.be/blaugies/chemin/13"/><trkseg>
<trkpt lat="50.374682" lon="3.829469"><time>2026-05-04T15:37:53Z</time></trkpt>
<trkpt lat="50.374682" lon="3.832302"><time>2026-05-04T15:47:53Z</time></trkpt>
</trkseg>
</trk>
<trk>
<name>hdobg14</name>
<cmt>v</cmt>
<desc>Blaugies Chemin n°14 Rue Planche à l'Aulne</desc>
<link href="https://chemins.be/blaugies/chemin/14"/><trkseg>
<trkpt lat="50.357676" lon="3.843306"><time>2026-05-04T15:17:53Z</time></trkpt>
<trkpt lat="50.357582" lon="3.843553"><time>2026-05-04T15:27:53Z</time></trkpt>
<trkpt lat="50.358973" lon="3.845393"><time>2026-05-04T15:37:53Z</time></trkpt>
<trkpt lat="50.359401" lon="3.845312"><time>2026-05-04T15:47:53Z</time></trkpt>
<trkpt lat="50.359570" lon="3.844973"><time>2026-05-04T15:57:53Z</time></trkpt>
</trkseg></trk>
<trk>
<name>hdobg14</name>
<cmt>q</cmt>
<desc>Blaugies Chemin n°14 Rue Planche à l'Aulne</desc>
<link href="https://chemins.be/blaugies/chemin/14"/><trkseg>
<trkpt lat="50.359570" lon="3.844973"><time>2026-05-04T15:57:53Z</time></trkpt>
<trkpt lat="50.360776" lon="3.844869"><time>2026-05-04T16:07:53Z</time></trkpt>
</trkseg></trk>
<trk>
<name>hdobg14</name>
<cmt>v</cmt>
<desc>Blaugies Chemin n°14 Rue Planche à l'Aulne</desc>
<link href="https://chemins.be/blaugies/chemin/14"/><trkseg>
<trkpt lat="50.360776" lon="3.844869"><time>2026-05-04T16:07:53Z</time></trkpt>
<trkpt lat="50.362841" lon="3.844445"><time>2026-05-04T16:17:53Z</time></trkpt>
<trkpt lat="50.363803" lon="3.844533"><time>2026-05-04T16:27:53Z</time></trkpt>
<trkpt lat="50.365726" lon="3.846381"><time>2026-05-04T16:37:53Z</time></trkpt>
<trkpt lat="50.366659" lon="3.843770"><time>2026-05-04T16:47:53Z</time></trkpt>
<trkpt lat="50.368116" lon="3.841885"><time>2026-05-04T16:57:53Z</time></trkpt>
<trkpt lat="50.370574" lon="3.840859"><time>2026-05-04T17:07:53Z</time></trkpt>
</trkseg>
</trk>
<trk>
<name>hdobg17</name>
<cmt>q</cmt>
<desc>Blaugies Chemin n°17 </desc>
<link href="https://chemins.be/blaugies/chemin/17"/><trkseg>
<trkpt lat="50.365216" lon="3.816723"><time>2026-05-04T15:17:53Z</time></trkpt>
<trkpt lat="50.364548" lon="3.816380"><time>2026-05-04T15:27:53Z</time></trkpt>
<trkpt lat="50.363552" lon="3.816230"><time>2026-05-04T15:37:53Z</time></trkpt>
</trkseg>
</trk>
<trk>
<name>hdobg18</name>
<cmt>v</cmt>
<desc>Blaugies Chemin n°18 </desc>
<link href="https://chemins.be/blaugies/chemin/18"/><trkseg>
<trkpt lat="50.372275" lon="3.791820"><time>2026-05-04T15:17:53Z</time></trkpt>
<trkpt lat="50.372078" lon="3.791190"><time>2026-05-04T15:27:53Z</time></trkpt>
</trkseg>
</trk>
<trk>
<name>hdobg2</name>
<cmt>v</cmt>
<desc>Blaugies Chemin n°2 </desc>
<link href="https://chemins.be/blaugies/chemin/2"/><trkseg>
<trkpt lat="50.355820" lon="3.844904"><time>2026-05-04T15:17:53Z</time></trkpt>
<trkpt lat="50.355968" lon="3.845084"><time>2026-05-04T15:27:53Z</time></trkpt>
<trkpt lat="50.356932" lon="3.845414"><time>2026-05-04T15:37:53Z</time></trkpt>
<trkpt lat="50.357028" lon="3.845341"><time>2026-05-04T15:47:53Z</time></trkpt>
</trkseg>
</trk>
<trk>
<name>hdobg20</name>
<cmt>q</cmt>
<desc>Blaugies Chemin n°20 </desc>
<link href="https://chemins.be/blaugies/chemin/20"/><trkseg>
<trkpt lat="50.360565" lon="3.841629"><time>2026-05-04T15:17:53Z</time></trkpt>
<trkpt lat="50.359894" lon="3.839956"><time>2026-05-04T15:27:53Z</time></trkpt>
<trkpt lat="50.359082" lon="3.840452"><time>2026-05-04T15:37:53Z</time></trkpt>
</trkseg>
</trk>
<trk>
<name>hdobg21</name>
<cmt>q</cmt>
<desc>Blaugies Chemin n°21 </desc>
<link href="https://chemins.be/blaugies/chemin/21"/><trkseg>
<trkpt lat="50.358078" lon="3.843286"><time>2026-05-04T15:17:53Z</time></trkpt>
<trkpt lat="50.358050" lon="3.843120"><time>2026-05-04T15:27:53Z</time></trkpt>
<trkpt lat="50.358078" lon="3.842873"><time>2026-05-04T15:37:53Z</time></trkpt>
<trkpt lat="50.358321" lon="3.842438"><time>2026-05-04T15:47:53Z</time></trkpt>
<trkpt lat="50.358208" lon="3.841837"><time>2026-05-04T15:57:53Z</time></trkpt>
</trkseg>
</trk>
<trk>
<name>hdobg22</name>
<cmt>v</cmt>
<desc>Blaugies Chemin n°22 </desc>
<link href="https://chemins.be/blaugies/chemin/22"/><trkseg>
<trkpt lat="50.368867" lon="3.824536"><time>2026-05-04T15:17:53Z</time></trkpt>
<trkpt lat="50.369157" lon="3.824806"><time>2026-05-04T15:27:53Z</time></trkpt>
<trkpt lat="50.369121" lon="3.826463"><time>2026-05-04T15:37:53Z</time></trkpt>
<trkpt lat="50.369266" lon="3.827150"><time>2026-05-04T15:47:53Z</time></trkpt>
</trkseg>
</trk>
<trk>
<name>hdobg23</name>
<cmt>v</cmt>
<desc>Blaugies Chemin n°23 </desc>
<link href="https://chemins.be/blaugies/chemin/23"/><trkseg>
<trkpt lat="50.357596" lon="3.843563"><time>2026-05-04T15:17:53Z</time></trkpt>
<trkpt lat="50.357242" lon="3.844471"><time>2026-05-04T15:27:53Z</time></trkpt>
<trkpt lat="50.357005" lon="3.845308"><time>2026-05-04T15:37:53Z</time></trkpt>
</trkseg>
</trk>
<trk>
<name>hdobg24</name>
<cmt>q</cmt>
<desc>Blaugies Chemin n°24 </desc>
<link href="https://chemins.be/blaugies/chemin/24"/><trkseg>
<trkpt lat="50.373168" lon="3.797193"><time>2026-05-04T15:17:53Z</time></trkpt>
<trkpt lat="50.372101" lon="3.797901"><time>2026-05-04T15:27:53Z</time></trkpt>
<trkpt lat="50.371444" lon="3.797300"><time>2026-05-04T15:37:53Z</time></trkpt>
<trkpt lat="50.370445" lon="3.797557"><time>2026-05-04T15:47:53Z</time></trkpt>
<trkpt lat="50.367051" lon="3.794897"><time>2026-05-04T15:57:53Z</time></trkpt>
</trkseg>
</trk>
<trk>
<name>hdobg25</name>
<cmt>q</cmt>
<desc>Blaugies Chemin n°25 Voie Blanche</desc>
<link href="https://chemins.be/blaugies/chemin/25"/><trkseg>
<trkpt lat="50.370507" lon="3.824607"><time>2026-05-04T15:17:53Z</time></trkpt>
<trkpt lat="50.371148" lon="3.821551"><time>2026-05-04T15:27:53Z</time></trkpt>
<trkpt lat="50.371274" lon="3.820890"><time>2026-05-04T15:37:53Z</time></trkpt>
<trkpt lat="50.371241" lon="3.820118"><time>2026-05-04T15:47:53Z</time></trkpt>
<trkpt lat="50.371405" lon="3.820075"><time>2026-05-04T15:57:53Z</time></trkpt>
<trkpt lat="50.371586" lon="3.819560"><time>2026-05-04T16:07:53Z</time></trkpt>
<trkpt lat="50.371706" lon="3.816556"><time>2026-05-04T16:17:53Z</time></trkpt>
<trkpt lat="50.371454" lon="3.815698"><time>2026-05-04T16:27:53Z</time></trkpt>
<trkpt lat="50.371509" lon="3.814599"><time>2026-05-04T16:37:53Z</time></trkpt>
<trkpt lat="50.371816" lon="3.813183"><time>2026-05-04T16:47:53Z</time></trkpt>
</trkseg></trk>
<trk>
<name>hdobg25</name>
<cmt>r</cmt>
<desc>Blaugies Chemin n°25 Voie Blanche</desc>
<link href="https://chemins.be/blaugies/chemin/25"/><trkseg>
<trkpt lat="50.371816" lon="3.813183"><time>2026-05-04T16:47:53Z</time></trkpt>
<trkpt lat="50.372314" lon="3.810608"><time>2026-05-04T16:57:53Z</time></trkpt>
<trkpt lat="50.372358" lon="3.809449"><time>2026-05-04T17:07:53Z</time></trkpt>
<trkpt lat="50.373266" lon="3.805836"><time>2026-05-04T17:17:53Z</time></trkpt>
<trkpt lat="50.373124" lon="3.804617"><time>2026-05-04T17:27:53Z</time></trkpt>
<trkpt lat="50.373457" lon="3.804166"><time>2026-05-04T17:37:53Z</time></trkpt>
<trkpt lat="50.372908" lon="3.801559"><time>2026-05-04T17:47:53Z</time></trkpt>
</trkseg></trk>
<trk>
<name>hdobg25</name>
<cmt>q</cmt>
<desc>Blaugies Chemin n°25 Voie Blanche</desc>
<link href="https://chemins.be/blaugies/chemin/25"/><trkseg>
<trkpt lat="50.372908" lon="3.801559"><time>2026-05-04T17:47:53Z</time></trkpt>
<trkpt lat="50.373024" lon="3.801398"><time>2026-05-04T17:57:53Z</time></trkpt>
<trkpt lat="50.372463" lon="3.797665"><time>2026-05-04T18:07:53Z</time></trkpt>
</trkseg>
</trk>
<trk>
<name>hdobg26a</name>
<cmt>s</cmt>
<desc>Blaugies Sentier n°26 partie a </desc>
<link href="https://chemins.be/blaugies/sentier/26a"/><trkseg>
<trkpt lat="50.376592" lon="3.803213"><time>2026-05-04T15:17:53Z</time></trkpt>
<trkpt lat="50.378459" lon="3.802021"><time>2026-05-04T15:27:53Z</time></trkpt>
</trkseg>
</trk>
<trk>
<name>hdobg26b</name>
<cmt>q</cmt>
<desc>Blaugies Sentier n°26 partie b Rue Hardret / Rue de Trieu Jean-Sart</desc>
<link href="https://chemins.be/blaugies/sentier/26b"/><trkseg>
<trkpt lat="50.369819" lon="3.805510"><time>2026-05-04T15:17:53Z</time></trkpt>
<trkpt lat="50.368790" lon="3.807518"><time>2026-05-04T15:27:53Z</time></trkpt>
<trkpt lat="50.367838" lon="3.808565"><time>2026-05-04T15:37:53Z</time></trkpt>
<trkpt lat="50.367356" lon="3.809990"><time>2026-05-04T15:47:53Z</time></trkpt>
<trkpt lat="50.366797" lon="3.811277"><time>2026-05-04T15:57:53Z</time></trkpt>
<trkpt lat="50.367290" lon="3.812479"><time>2026-05-04T16:07:53Z</time></trkpt>
</trkseg></trk>
<trk>
<name>hdobg26b</name>
<cmt>r</cmt>
<desc>Blaugies Sentier n°26 partie b Rue Hardret / Rue de Trieu Jean-Sart</desc>
<link href="https://chemins.be/blaugies/sentier/26b"/><trkseg>
<trkpt lat="50.367290" lon="3.812479"><time>2026-05-04T16:07:53Z</time></trkpt>
<trkpt lat="50.366863" lon="3.813303"><time>2026-05-04T16:17:53Z</time></trkpt>
<trkpt lat="50.366677" lon="3.814779"><time>2026-05-04T16:27:53Z</time></trkpt>
<trkpt lat="50.365582" lon="3.815294"><time>2026-05-04T16:37:53Z</time></trkpt>
<trkpt lat="50.365177" lon="3.816942"><time>2026-05-04T16:47:53Z</time></trkpt>
<trkpt lat="50.363928" lon="3.819328"><time>2026-05-04T16:57:53Z</time></trkpt>
<trkpt lat="50.363622" lon="3.820049"><time>2026-05-04T17:07:53Z</time></trkpt>
</trkseg></trk>
<trk>
<name>hdobg26b</name>
<cmt>q</cmt>
<desc>Blaugies Sentier n°26 partie b Rue Hardret / Rue de Trieu Jean-Sart</desc>
<link href="https://chemins.be/blaugies/sentier/26b"/><trkseg>
<trkpt lat="50.363622" lon="3.820049"><time>2026-05-04T17:07:53Z</time></trkpt>
<trkpt lat="50.363238" lon="3.819938"><time>2026-05-04T17:17:53Z</time></trkpt>
<trkpt lat="50.362307" lon="3.820315"><time>2026-05-04T17:27:53Z</time></trkpt>
<trkpt lat="50.361951" lon="3.820753"><time>2026-05-04T17:37:53Z</time></trkpt>
<trkpt lat="50.361787" lon="3.821620"><time>2026-05-04T17:47:53Z</time></trkpt>
<trkpt lat="50.360664" lon="3.822830"><time>2026-05-04T17:57:53Z</time></trkpt>
<trkpt lat="50.356847" lon="3.827551"><time>2026-05-04T18:07:53Z</time></trkpt>
</trkseg>
</trk>
<trk>
<name>hdobg27</name>
<cmt>s</cmt>
<desc>Blaugies Sentier n°27 </desc>
<link href="https://chemins.be/blaugies/sentier/27"/><trkseg>
<trkpt lat="50.371864" lon="3.806419"><time>2026-05-04T15:17:53Z</time></trkpt>
<trkpt lat="50.372987" lon="3.806773"><time>2026-05-04T15:27:53Z</time></trkpt>
</trkseg></trk>
<trk>
<name>hdobg27</name>
<cmt>v</cmt>
<desc>Blaugies Sentier n°27 </desc>
<link href="https://chemins.be/blaugies/sentier/27"/><trkseg>
<trkpt lat="50.372987" lon="3.806773"><time>2026-05-04T15:27:53Z</time></trkpt>
<trkpt lat="50.373558" lon="3.807382"><time>2026-05-04T15:37:53Z</time></trkpt>
</trkseg></trk>
<trk>
<name>hdobg27</name>
<cmt>q</cmt>
<desc>Blaugies Sentier n°27 </desc>
<link href="https://chemins.be/blaugies/sentier/27"/><trkseg>
<trkpt lat="50.373558" lon="3.807382"><time>2026-05-04T15:37:53Z</time></trkpt>
<trkpt lat="50.374184" lon="3.807754"><time>2026-05-04T15:47:53Z</time></trkpt>
<trkpt lat="50.375881" lon="3.810157"><time>2026-05-04T15:57:53Z</time></trkpt>
<trkpt lat="50.376861" lon="3.810964"><time>2026-05-04T16:07:53Z</time></trkpt>
<trkpt lat="50.378109" lon="3.812767"><time>2026-05-04T16:17:53Z</time></trkpt>
<trkpt lat="50.378229" lon="3.815170"><time>2026-05-04T16:27:53Z</time></trkpt>
<trkpt lat="50.378175" lon="3.816097"><time>2026-05-04T16:37:53Z</time></trkpt>
<trkpt lat="50.378290" lon="3.816972"><time>2026-05-04T16:47:53Z</time></trkpt>
<trkpt lat="50.378337" lon="3.818399"><time>2026-05-04T16:57:53Z</time></trkpt>
</trkseg></trk>
<trk>
<name>hdobg27</name>
<cmt>v</cmt>
<desc>Blaugies Sentier n°27 </desc>
<link href="https://chemins.be/blaugies/sentier/27"/><trkseg>
<trkpt lat="50.378337" lon="3.818399"><time>2026-05-04T16:57:53Z</time></trkpt>
<trkpt lat="50.378408" lon="3.819185"><time>2026-05-04T17:07:53Z</time></trkpt>
<trkpt lat="50.378512" lon="3.819665"><time>2026-05-04T17:17:53Z</time></trkpt>
<trkpt lat="50.378329" lon="3.820219"><time>2026-05-04T17:27:53Z</time></trkpt>
</trkseg>
</trk>
<trk>
<name>hdobg28</name>
<cmt>v</cmt>
<desc>Blaugies Sentier n°28 Route Verte</desc>
<link href="https://chemins.be/blaugies/sentier/28"/><trkseg>
<trkpt lat="50.378236" lon="3.801267"><time>2026-05-04T15:17:53Z</time></trkpt>
<trkpt lat="50.378330" lon="3.801576"><time>2026-05-04T15:27:53Z</time></trkpt>
</trkseg></trk>
<trk>
<name>hdobg28</name>
<cmt>b</cmt>
<desc>Blaugies Sentier n°28 Route Verte</desc>
<link href="https://chemins.be/blaugies/sentier/28"/><trkseg>
<trkpt lat="50.378330" lon="3.801576"><time>2026-05-04T15:27:53Z</time></trkpt>
<trkpt lat="50.378461" lon="3.802027"><time>2026-05-04T15:37:53Z</time></trkpt>
</trkseg></trk>
<trk>
<name>hdobg28</name>
<cmt>d</cmt>
<desc>Blaugies Sentier n°28 Route Verte</desc>
<link href="https://chemins.be/blaugies/sentier/28"/><trkseg>
<trkpt lat="50.378461" lon="3.802027"><time>2026-05-04T15:37:53Z</time></trkpt>
<trkpt lat="50.378577" lon="3.802785"><time>2026-05-04T15:47:53Z</time></trkpt>
<trkpt lat="50.378721" lon="3.804636"><time>2026-05-04T15:57:53Z</time></trkpt>
</trkseg>
</trk>
<trk>
<name>hdobg29</name>
<cmt>v</cmt>
<desc>Blaugies Sentier n°29 Sentier des amoureux / Rue Hardret</desc>
<link href="https://chemins.be/blaugies/sentier/29"/><trkseg>
<trkpt lat="50.374056" lon="3.825722"><time>2026-05-04T15:17:53Z</time></trkpt>
<trkpt lat="50.373777" lon="3.823799"><time>2026-05-04T15:27:53Z</time></trkpt>
</trkseg></trk>
<trk>
<name>hdobg29</name>
<cmt>q</cmt>
<desc>Blaugies Sentier n°29 Sentier des amoureux / Rue Hardret</desc>
<link href="https://chemins.be/blaugies/sentier/29"/><trkseg>
<trkpt lat="50.373777" lon="3.823799"><time>2026-05-04T15:27:53Z</time></trkpt>
<trkpt lat="50.373571" lon="3.821974"><time>2026-05-04T15:37:53Z</time></trkpt>
<trkpt lat="50.373710" lon="3.821016"><time>2026-05-04T15:47:53Z</time></trkpt>
<trkpt lat="50.373456" lon="3.820429"><time>2026-05-04T15:57:53Z</time></trkpt>
</trkseg></trk>
<trk>
<name>hdobg29</name>
<cmt>v</cmt>
<desc>Blaugies Sentier n°29 Sentier des amoureux / Rue Hardret</desc>
<link href="https://chemins.be/blaugies/sentier/29"/><trkseg>
<trkpt lat="50.373456" lon="3.820429"><time>2026-05-04T15:57:53Z</time></trkpt>
<trkpt lat="50.372588" lon="3.817529"><time>2026-05-04T16:07:53Z</time></trkpt>
<trkpt lat="50.372652" lon="3.815968"><time>2026-05-04T16:17:53Z</time></trkpt>
<trkpt lat="50.372490" lon="3.815899"><time>2026-05-04T16:27:53Z</time></trkpt>
<trkpt lat="50.372744" lon="3.813419"><time>2026-05-04T16:37:53Z</time></trkpt>
</trkseg></trk>
<trk>
<name>hdobg29</name>
<cmt>q</cmt>
<desc>Blaugies Sentier n°29 Sentier des amoureux / Rue Hardret</desc>
<link href="https://chemins.be/blaugies/sentier/29"/><trkseg>
<trkpt lat="50.372744" lon="3.813419"><time>2026-05-04T16:37:53Z</time></trkpt>
<trkpt lat="50.372739" lon="3.813110"><time>2026-05-04T16:47:53Z</time></trkpt>
<trkpt lat="50.372055" lon="3.811737"><time>2026-05-04T16:57:53Z</time></trkpt>
<trkpt lat="50.371201" lon="3.810986"><time>2026-05-04T17:07:53Z</time></trkpt>
</trkseg></trk>
<trk>
<name>hdobg29</name>
<cmt>r</cmt>
<desc>Blaugies Sentier n°29 Sentier des amoureux / Rue Hardret</desc>
<link href="https://chemins.be/blaugies/sentier/29"/><trkseg>
<trkpt lat="50.371201" lon="3.810986"><time>2026-05-04T17:07:53Z</time></trkpt>
<trkpt lat="50.371135" lon="3.811363"><time>2026-05-04T17:17:53Z</time></trkpt>
<trkpt lat="50.369668" lon="3.810814"><time>2026-05-04T17:27:53Z</time></trkpt>
<trkpt lat="50.367777" lon="3.808496"><time>2026-05-04T17:37:53Z</time></trkpt>
</trkseg></trk>
<trk>
<name>hdobg29</name>
<cmt>v</cmt>
<desc>Blaugies Sentier n°29 Sentier des amoureux / Rue Hardret</desc>
<link href="https://chemins.be/blaugies/sentier/29"/><trkseg>
<trkpt lat="50.367777" lon="3.808496"><time>2026-05-04T17:37:53Z</time></trkpt>
<trkpt lat="50.366529" lon="3.807861"><time>2026-05-04T17:47:53Z</time></trkpt>
</trkseg></trk>
<trk>
<name>hdobg29</name>
<cmt>q</cmt>
<desc>Blaugies Sentier n°29 Sentier des amoureux / Rue Hardret</desc>
<link href="https://chemins.be/blaugies/sentier/29"/><trkseg>
<trkpt lat="50.366529" lon="3.807861"><time>2026-05-04T17:47:53Z</time></trkpt>
<trkpt lat="50.365157" lon="3.806694"><time>2026-05-04T17:57:53Z</time></trkpt>
<trkpt lat="50.363405" lon="3.803913"><time>2026-05-04T18:07:53Z</time></trkpt>
</trkseg>
</trk>
<trk>
<name>hdobg3</name>
<cmt>v</cmt>
<desc>Blaugies Chemin n°3 </desc>
<link href="https://chemins.be/blaugies/chemin/3"/><trkseg>
<trkpt lat="50.367827" lon="3.808617"><time>2026-05-04T15:17:53Z</time></trkpt>
<trkpt lat="50.367378" lon="3.806007"><time>2026-05-04T15:27:53Z</time></trkpt>
<trkpt lat="50.367487" lon="3.804359"><time>2026-05-04T15:37:53Z</time></trkpt>
<trkpt lat="50.367712" lon="3.800789"><time>2026-05-04T15:47:53Z</time></trkpt>
<trkpt lat="50.367864" lon="3.799328"><time>2026-05-04T15:57:53Z</time></trkpt>
<trkpt lat="50.368214" lon="3.798249"><time>2026-05-04T16:07:53Z</time></trkpt>
<trkpt lat="50.367777" lon="3.796720"><time>2026-05-04T16:17:53Z</time></trkpt>
<trkpt lat="50.366780" lon="3.794028"><time>2026-05-04T16:27:53Z</time></trkpt>
</trkseg>
</trk>
<trk>
<name>hdobg30</name>
<cmt>v</cmt>
<desc>Blaugies Sentier n°30 Ruelle Totomme</desc>
<link href="https://chemins.be/blaugies/sentier/30"/><trkseg>
<trkpt lat="50.372860" lon="3.813350"><time>2026-05-04T15:17:53Z</time></trkpt>
<trkpt lat="50.373130" lon="3.813420"><time>2026-05-04T15:27:53Z</time></trkpt>
<trkpt lat="50.373811" lon="3.813302"><time>2026-05-04T15:37:53Z</time></trkpt>
<trkpt lat="50.375090" lon="3.813595"><time>2026-05-04T15:47:53Z</time></trkpt>
<trkpt lat="50.376552" lon="3.812232"><time>2026-05-04T15:57:53Z</time></trkpt>
</trkseg></trk>
<trk>
<name>hdobg30</name>
<cmt>d</cmt>
<desc>Blaugies Sentier n°30 Ruelle Totomme</desc>
<link href="https://chemins.be/blaugies/sentier/30"/><trkseg>
<trkpt lat="50.376552" lon="3.812232"><time>2026-05-04T15:57:53Z</time></trkpt>
<trkpt lat="50.377620" lon="3.811207"><time>2026-05-04T16:07:53Z</time></trkpt>
<trkpt lat="50.378110" lon="3.811297"><time>2026-05-04T16:17:53Z</time></trkpt>
</trkseg></trk>
<trk>
<name>hdobg30</name>
<cmt>v</cmt>
<desc>Blaugies Sentier n°30 Ruelle Totomme</desc>
<link href="https://chemins.be/blaugies/sentier/30"/><trkseg>
<trkpt lat="50.378110" lon="3.811297"><time>2026-05-04T16:17:53Z</time></trkpt>
<trkpt lat="50.378425" lon="3.811010"><time>2026-05-04T16:27:53Z</time></trkpt>
<trkpt lat="50.378502" lon="3.811015"><time>2026-05-04T16:37:53Z</time></trkpt>
</trkseg>
</trk>
<trk>
<name>hdobg30bis</name>
<cmt>q</cmt>
<desc>Blaugies Sentier n°30bis </desc>
<link href="https://chemins.be/blaugies/sentier/30bis"/><trkseg>
<trkpt lat="50.377617" lon="3.811190"><time>2026-05-04T15:17:53Z</time></trkpt>
<trkpt lat="50.377287" lon="3.811092"><time>2026-05-04T15:27:53Z</time></trkpt>
<trkpt lat="50.376888" lon="3.811007"><time>2026-05-04T15:37:53Z</time></trkpt>
</trkseg>
</trk>
<trk>
<name>hdobg31</name>
<cmt>q</cmt>
<desc>Blaugies Sentier n°31 </desc>
<link href="https://chemins.be/blaugies/sentier/31"/><trkseg>
<trkpt lat="50.374373" lon="3.841153"><time>2026-05-04T15:17:53Z</time></trkpt>
<trkpt lat="50.373711" lon="3.840046"><time>2026-05-04T15:27:53Z</time></trkpt>
<trkpt lat="50.372151" lon="3.835608"><time>2026-05-04T15:37:53Z</time></trkpt>
<trkpt lat="50.372315" lon="3.835128"><time>2026-05-04T15:47:53Z</time></trkpt>
<trkpt lat="50.372008" lon="3.834922"><time>2026-05-04T15:57:53Z</time></trkpt>
<trkpt lat="50.372036" lon="3.832604"><time>2026-05-04T16:07:53Z</time></trkpt>
<trkpt lat="50.372063" lon="3.830278"><time>2026-05-04T16:17:53Z</time></trkpt>
<trkpt lat="50.372337" lon="3.828270"><time>2026-05-04T16:27:53Z</time></trkpt>
<trkpt lat="50.372950" lon="3.827085"><time>2026-05-04T16:37:53Z</time></trkpt>
<trkpt lat="50.374066" lon="3.825944"><time>2026-05-04T16:47:53Z</time></trkpt>
<trkpt lat="50.374540" lon="3.824972"><time>2026-05-04T16:57:53Z</time></trkpt>
<trkpt lat="50.374885" lon="3.823015"><time>2026-05-04T17:07:53Z</time></trkpt>
<trkpt lat="50.377250" lon="3.820122"><time>2026-05-04T17:17:53Z</time></trkpt>
<trkpt lat="50.377425" lon="3.819478"><time>2026-05-04T17:27:53Z</time></trkpt>
<trkpt lat="50.378394" lon="3.818543"><time>2026-05-04T17:37:53Z</time></trkpt>
</trkseg></trk>
<trk>
<name>hdobg31</name>
<cmt>v</cmt>
<desc>Blaugies Sentier n°31 </desc>
<link href="https://chemins.be/blaugies/sentier/31"/><trkseg>
<trkpt lat="50.378394" lon="3.818543"><time>2026-05-04T17:37:53Z</time></trkpt>
<trkpt lat="50.378909" lon="3.816671"><time>2026-05-04T17:47:53Z</time></trkpt>
</trkseg>
</trk>
<trk>
<name>hdobg32</name>
<cmt>q</cmt>
<desc>Blaugies Sentier n°32 </desc>
<link href="https://chemins.be/blaugies/sentier/32"/><trkseg>
<trkpt lat="50.366493" lon="3.815959"><time>2026-05-04T15:17:53Z</time></trkpt>
<trkpt lat="50.367861" lon="3.817367"><time>2026-05-04T15:27:53Z</time></trkpt>
<trkpt lat="50.368179" lon="3.817921"><time>2026-05-04T15:37:53Z</time></trkpt>
<trkpt lat="50.368576" lon="3.817620"><time>2026-05-04T15:47:53Z</time></trkpt>
<trkpt lat="50.370985" lon="3.817942"><time>2026-05-04T15:57:53Z</time></trkpt>
</trkseg></trk>
<trk>
<name>hdobg32</name>
<cmt>v</cmt>
<desc>Blaugies Sentier n°32 </desc>
<link href="https://chemins.be/blaugies/sentier/32"/><trkseg>
<trkpt lat="50.370985" lon="3.817942"><time>2026-05-04T15:57:53Z</time></trkpt>
<trkpt lat="50.371654" lon="3.818080"><time>2026-05-04T16:07:53Z</time></trkpt>
</trkseg></trk>
<trk>
<name>hdobg32</name>
<cmt>q</cmt>
<desc>Blaugies Sentier n°32 </desc>
<link href="https://chemins.be/blaugies/sentier/32"/><trkseg>
<trkpt lat="50.371654" lon="3.818080"><time>2026-05-04T16:07:53Z</time></trkpt>
<trkpt lat="50.372796" lon="3.818315"><time>2026-05-04T16:17:53Z</time></trkpt>
<trkpt lat="50.373563" lon="3.818135"><time>2026-05-04T16:27:53Z</time></trkpt>
<trkpt lat="50.375769" lon="3.819122"><time>2026-05-04T16:37:53Z</time></trkpt>
<trkpt lat="50.376152" lon="3.818839"><time>2026-05-04T16:47:53Z</time></trkpt>
<trkpt lat="50.376929" lon="3.819225"><time>2026-05-04T16:57:53Z</time></trkpt>
</trkseg>
</trk>
<trk>
<name>hdobg33</name>
<cmt>q</cmt>
<desc>Blaugies Sentier n°33 Rue du Joncquois / Rue de la Frontière / Sentier des amoureux</desc>
<link href="https://chemins.be/blaugies/sentier/33"/><trkseg>
<trkpt lat="50.367212" lon="3.812702"><time>2026-05-04T15:17:53Z</time></trkpt>
<trkpt lat="50.368559" lon="3.813818"><time>2026-05-04T15:27:53Z</time></trkpt>
<trkpt lat="50.369857" lon="3.814496"><time>2026-05-04T15:37:53Z</time></trkpt>
<trkpt lat="50.370224" lon="3.815560"><time>2026-05-04T15:47:53Z</time></trkpt>
<trkpt lat="50.370163" lon="3.817728"><time>2026-05-04T15:57:53Z</time></trkpt>
<trkpt lat="50.370519" lon="3.817835"><time>2026-05-04T16:07:53Z</time></trkpt>
</trkseg></trk>
<trk>
<name>hdobg33</name>
<cmt>s</cmt>
<desc>Blaugies Sentier n°33 Rue du Joncquois / Rue de la Frontière / Sentier des amoureux</desc>
<link href="https://chemins.be/blaugies/sentier/33"/><trkseg>
<trkpt lat="50.370519" lon="3.817835"><time>2026-05-04T16:07:53Z</time></trkpt>
<trkpt lat="50.370917" lon="3.821071"><time>2026-05-04T16:17:53Z</time></trkpt>
</trkseg></trk>
<trk>
<name>hdobg33</name>
<cmt>r</cmt>
<desc>Blaugies Sentier n°33 Rue du Joncquois / Rue de la Frontière / Sentier des amoureux</desc>
<link href="https://chemins.be/blaugies/sentier/33"/><trkseg>
<trkpt lat="50.370917" lon="3.821071"><time>2026-05-04T16:17:53Z</time></trkpt>
<trkpt lat="50.371313" lon="3.820882"><time>2026-05-04T16:27:53Z</time></trkpt>
<trkpt lat="50.371590" lon="3.821998"><time>2026-05-04T16:37:53Z</time></trkpt>
<trkpt lat="50.371596" lon="3.822440"><time>2026-05-04T16:47:53Z</time></trkpt>
</trkseg></trk>
<trk>
<name>hdobg33</name>
<cmt>v</cmt>
<desc>Blaugies Sentier n°33 Rue du Joncquois / Rue de la Frontière / Sentier des amoureux</desc>
<link href="https://chemins.be/blaugies/sentier/33"/><trkseg>
<trkpt lat="50.371596" lon="3.822440"><time>2026-05-04T16:47:53Z</time></trkpt>
<trkpt lat="50.373126" lon="3.823061"><time>2026-05-04T16:57:53Z</time></trkpt>
<trkpt lat="50.373315" lon="3.823073"><time>2026-05-04T17:07:53Z</time></trkpt>
<trkpt lat="50.373175" lon="3.823876"><time>2026-05-04T17:17:53Z</time></trkpt>
<trkpt lat="50.373768" lon="3.823799"><time>2026-05-04T17:27:53Z</time></trkpt>
</trkseg>
</trk>
<trk>
<name>hdobg33bis</name>
<cmt>q</cmt>
<desc>Blaugies Sentier n°33bis </desc>
<link href="https://chemins.be/blaugies/sentier/33bis"/><trkseg>
<trkpt lat="50.374519" lon="3.824973"><time>2026-05-04T15:17:53Z</time></trkpt>
<trkpt lat="50.374979" lon="3.825960"><time>2026-05-04T15:27:53Z</time></trkpt>
</trkseg>
</trk>
<trk>
<name>hdobg34</name>
<cmt>q</cmt>
<desc>Blaugies Sentier n°34 </desc>
<link href="https://chemins.be/blaugies/sentier/34"/><trkseg>
<trkpt lat="50.374810" lon="3.841468"><time>2026-05-04T15:17:53Z</time></trkpt>
<trkpt lat="50.375928" lon="3.838914"><time>2026-05-04T15:27:53Z</time></trkpt>
<trkpt lat="50.377136" lon="3.836155"><time>2026-05-04T15:37:53Z</time></trkpt>
<trkpt lat="50.377311" lon="3.835186"><time>2026-05-04T15:47:53Z</time></trkpt>
<trkpt lat="50.377257" lon="3.835014"><time>2026-05-04T15:57:53Z</time></trkpt>
<trkpt lat="50.377311" lon="3.833553"><time>2026-05-04T16:07:53Z</time></trkpt>
<trkpt lat="50.377353" lon="3.833325"><time>2026-05-04T16:17:53Z</time></trkpt>
<trkpt lat="50.377632" lon="3.833149"><time>2026-05-04T16:27:53Z</time></trkpt>
</trkseg></trk>
<trk>
<name>hdobg34</name>
<cmt>s</cmt>
<desc>Blaugies Sentier n°34 </desc>
<link href="https://chemins.be/blaugies/sentier/34"/><trkseg>
<trkpt lat="50.377632" lon="3.833149"><time>2026-05-04T16:27:53Z</time></trkpt>
<trkpt lat="50.378196" lon="3.829608"><time>2026-05-04T16:37:53Z</time></trkpt>
<trkpt lat="50.377408" lon="3.826638"><time>2026-05-04T16:47:53Z</time></trkpt>
</trkseg></trk>
<trk>
<name>hdobg34</name>
<cmt>q</cmt>
<desc>Blaugies Sentier n°34 </desc>
<link href="https://chemins.be/blaugies/sentier/34"/><trkseg>
<trkpt lat="50.377408" lon="3.826638"><time>2026-05-04T16:47:53Z</time></trkpt>
<trkpt lat="50.377441" lon="3.826114"><time>2026-05-04T16:57:53Z</time></trkpt>
<trkpt lat="50.377419" lon="3.825951"><time>2026-05-04T17:07:53Z</time></trkpt>
<trkpt lat="50.377151" lon="3.824981"><time>2026-05-04T17:17:53Z</time></trkpt>
<trkpt lat="50.376719" lon="3.824835"><time>2026-05-04T17:27:53Z</time></trkpt>
<trkpt lat="50.376576" lon="3.823917"><time>2026-05-04T17:37:53Z</time></trkpt>
<trkpt lat="50.375323" lon="3.822449"><time>2026-05-04T17:47:53Z</time></trkpt>
<trkpt lat="50.373713" lon="3.821007"><time>2026-05-04T17:57:53Z</time></trkpt>
<trkpt lat="50.372438" lon="3.820140"><time>2026-05-04T18:07:53Z</time></trkpt>
<trkpt lat="50.372055" lon="3.820432"><time>2026-05-04T18:17:53Z</time></trkpt>
<trkpt lat="50.371302" lon="3.820478"><time>2026-05-04T18:27:53Z</time></trkpt>
</trkseg></trk>
<trk>
<name>hdobg34</name>
<cmt>r</cmt>
<desc>Blaugies Sentier n°34 </desc>
<link href="https://chemins.be/blaugies/sentier/34"/><trkseg>
<trkpt lat="50.371302" lon="3.820478"><time>2026-05-04T18:27:53Z</time></trkpt>
<trkpt lat="50.371477" lon="3.821654"><time>2026-05-04T18:37:53Z</time></trkpt>
<trkpt lat="50.370090" lon="3.821070"><time>2026-05-04T18:47:53Z</time></trkpt>
<trkpt lat="50.369255" lon="3.820719"><time>2026-05-04T18:57:53Z</time></trkpt>
</trkseg>
</trk>
<trk>
<name>hdobg35</name>
<cmt>q</cmt>
<desc>Blaugies Sentier n°35 </desc>
<link href="https://chemins.be/blaugies/sentier/35"/><trkseg>
<trkpt lat="50.354125" lon="3.839277"><time>2026-05-04T15:17:53Z</time></trkpt>
<trkpt lat="50.355867" lon="3.840430"><time>2026-05-04T15:27:53Z</time></trkpt>
<trkpt lat="50.356070" lon="3.839855"><time>2026-05-04T15:37:53Z</time></trkpt>
<trkpt lat="50.357813" lon="3.840633"><time>2026-05-04T15:47:53Z</time></trkpt>
<trkpt lat="50.358073" lon="3.841083"><time>2026-05-04T15:57:53Z</time></trkpt>
<trkpt lat="50.359051" lon="3.840403"><time>2026-05-04T16:07:53Z</time></trkpt>
</trkseg></trk>
<trk>
<name>hdobg35</name>
<cmt>v</cmt>
<desc>Blaugies Sentier n°35 </desc>
<link href="https://chemins.be/blaugies/sentier/35"/><trkseg>
<trkpt lat="50.359051" lon="3.840403"><time>2026-05-04T16:07:53Z</time></trkpt>
<trkpt lat="50.359918" lon="3.839801"><time>2026-05-04T16:17:53Z</time></trkpt>
</trkseg></trk>
<trk>
<name>hdobg35</name>
<cmt>q</cmt>
<desc>Blaugies Sentier n°35 </desc>
<link href="https://chemins.be/blaugies/sentier/35"/><trkseg>
<trkpt lat="50.359918" lon="3.839801"><time>2026-05-04T16:17:53Z</time></trkpt>
<trkpt lat="50.362665" lon="3.837893"><time>2026-05-04T16:27:53Z</time></trkpt>
<trkpt lat="50.365101" lon="3.832356"><time>2026-05-04T16:37:53Z</time></trkpt>
<trkpt lat="50.365649" lon="3.830811"><time>2026-05-04T16:47:53Z</time></trkpt>
<trkpt lat="50.366525" lon="3.829824"><time>2026-05-04T16:57:53Z</time></trkpt>
<trkpt lat="50.367739" lon="3.825439"><time>2026-05-04T17:07:53Z</time></trkpt>
</trkseg></trk>
<trk>
<name>hdobg35</name>
<cmt>r</cmt>
<desc>Blaugies Sentier n°35 </desc>
<link href="https://chemins.be/blaugies/sentier/35"/><trkseg>
<trkpt lat="50.367739" lon="3.825439"><time>2026-05-04T17:07:53Z</time></trkpt>
<trkpt lat="50.367881" lon="3.824427"><time>2026-05-04T17:17:53Z</time></trkpt>
<trkpt lat="50.367794" lon="3.822023"><time>2026-05-04T17:27:53Z</time></trkpt>
<trkpt lat="50.369184" lon="3.820770"><time>2026-05-04T17:37:53Z</time></trkpt>
<trkpt lat="50.369392" lon="3.819895"><time>2026-05-04T17:47:53Z</time></trkpt>
<trkpt lat="50.370246" lon="3.817801"><time>2026-05-04T17:57:53Z</time></trkpt>
</trkseg>
</trk>
<trk>
<name>hdobg36</name>
<cmt>q</cmt>
<desc>Blaugies Sentier n°36 </desc>
<link href="https://chemins.be/blaugies/sentier/36"/><trkseg>
<trkpt lat="50.368526" lon="3.817693"><time>2026-05-04T15:17:53Z</time></trkpt>
<trkpt lat="50.368641" lon="3.819105"><time>2026-05-04T15:27:53Z</time></trkpt>
<trkpt lat="50.369355" lon="3.819903"><time>2026-05-04T15:37:53Z</time></trkpt>
<trkpt lat="50.369191" lon="3.820800"><time>2026-05-04T15:47:53Z</time></trkpt>
<trkpt lat="50.369071" lon="3.822980"><time>2026-05-04T15:57:53Z</time></trkpt>
<trkpt lat="50.369158" lon="3.823538"><time>2026-05-04T16:07:53Z</time></trkpt>
</trkseg>
</trk>
<trk>
<name>hdobg37</name>
<cmt>q</cmt>
<desc>Blaugies Sentier n°37 Rue des Vainqueurs</desc>
<link href="https://chemins.be/blaugies/sentier/37"/><trkseg>
<trkpt lat="50.370429" lon="3.827006"><time>2026-05-04T15:17:53Z</time></trkpt>
<trkpt lat="50.371119" lon="3.827117"><time>2026-05-04T15:27:53Z</time></trkpt>
<trkpt lat="50.372887" lon="3.827032"><time>2026-05-04T15:37:53Z</time></trkpt>
<trkpt lat="50.374660" lon="3.829304"><time>2026-05-04T15:47:53Z</time></trkpt>
<trkpt lat="50.374646" lon="3.832319"><time>2026-05-04T15:57:53Z</time></trkpt>
</trkseg></trk>
<trk>
<name>hdobg37</name>
<cmt>r</cmt>
<desc>Blaugies Sentier n°37 Rue des Vainqueurs</desc>
<link href="https://chemins.be/blaugies/sentier/37"/><trkseg>
<trkpt lat="50.374646" lon="3.832319"><time>2026-05-04T15:57:53Z</time></trkpt>
<trkpt lat="50.376138" lon="3.832158"><time>2026-05-04T16:07:53Z</time></trkpt>
<trkpt lat="50.377143" lon="3.832877"><time>2026-05-04T16:17:53Z</time></trkpt>
<trkpt lat="50.377390" lon="3.833295"><time>2026-05-04T16:27:53Z</time></trkpt>
</trkseg></trk>
<trk>
<name>hdobg37</name>
<cmt>s</cmt>
<desc>Blaugies Sentier n°37 Rue des Vainqueurs</desc>
<link href="https://chemins.be/blaugies/sentier/37"/><trkseg>
<trkpt lat="50.377390" lon="3.833295"><time>2026-05-04T16:27:53Z</time></trkpt>
<trkpt lat="50.377595" lon="3.833123"><time>2026-05-04T16:37:53Z</time></trkpt>
<trkpt lat="50.378792" lon="3.834089"><time>2026-05-04T16:47:53Z</time></trkpt>
</trkseg>
</trk>
<trk>
<name>hdobg38</name>
<cmt>q</cmt>
<desc>Blaugies Sentier n°38 </desc>
<link href="https://chemins.be/blaugies/sentier/38"/><trkseg>
<trkpt lat="50.366517" lon="3.814983"><time>2026-05-04T15:17:53Z</time></trkpt>
<trkpt lat="50.366594" lon="3.817858"><time>2026-05-04T15:27:53Z</time></trkpt>
<trkpt lat="50.366287" lon="3.819787"><time>2026-05-04T15:37:53Z</time></trkpt>
<trkpt lat="50.366254" lon="3.820036"><time>2026-05-04T15:47:53Z</time></trkpt>
<trkpt lat="50.366571" lon="3.820783"><time>2026-05-04T15:57:53Z</time></trkpt>
<trkpt lat="50.366514" lon="3.821290"><time>2026-05-04T16:07:53Z</time></trkpt>
</trkseg>
</trk>
<trk>
<name>hdobg39</name>
<cmt>q</cmt>
<desc>Blaugies Sentier n°39 Rue de Trieu Jean-Sart</desc>
<link href="https://chemins.be/blaugies/sentier/39"/><trkseg>
<trkpt lat="50.366276" lon="3.819818"><time>2026-05-04T15:17:53Z</time></trkpt>
<trkpt lat="50.365461" lon="3.819654"><time>2026-05-04T15:27:53Z</time></trkpt>
<trkpt lat="50.365367" lon="3.820006"><time>2026-05-04T15:37:53Z</time></trkpt>
<trkpt lat="50.363909" lon="3.819431"><time>2026-05-04T15:47:53Z</time></trkpt>
</trkseg></trk>
<trk>
<name>hdobg39</name>
<cmt>r</cmt>
<desc>Blaugies Sentier n°39 Rue de Trieu Jean-Sart</desc>
<link href="https://chemins.be/blaugies/sentier/39"/><trkseg>
<trkpt lat="50.363909" lon="3.819431"><time>2026-05-04T15:47:53Z</time></trkpt>
<trkpt lat="50.363634" lon="3.820127"><time>2026-05-04T15:57:53Z</time></trkpt>
</trkseg></trk>
<trk>
<name>hdobg39</name>
<cmt>q</cmt>
<desc>Blaugies Sentier n°39 Rue de Trieu Jean-Sart</desc>
<link href="https://chemins.be/blaugies/sentier/39"/><trkseg>
<trkpt lat="50.363634" lon="3.820127"><time>2026-05-04T15:57:53Z</time></trkpt>
<trkpt lat="50.363259" lon="3.819955"><time>2026-05-04T16:07:53Z</time></trkpt>
<trkpt lat="50.362290" lon="3.820367"><time>2026-05-04T16:17:53Z</time></trkpt>
<trkpt lat="50.361984" lon="3.820762"><time>2026-05-04T16:27:53Z</time></trkpt>
<trkpt lat="50.360536" lon="3.820702"><time>2026-05-04T16:37:53Z</time></trkpt>
<trkpt lat="50.358805" lon="3.822693"><time>2026-05-04T16:47:53Z</time></trkpt>
</trkseg>
</trk>
<trk>
<name>hdobg40</name>
<cmt>q</cmt>
<desc>Blaugies Sentier n°40 </desc>
<link href="https://chemins.be/blaugies/sentier/40"/><trkseg>
<trkpt lat="50.367915" lon="3.824406"><time>2026-05-04T15:17:53Z</time></trkpt>
<trkpt lat="50.364744" lon="3.823505"><time>2026-05-04T15:27:53Z</time></trkpt>
</trkseg>
</trk>
<trk>
<name>hdobg41</name>
<cmt>q</cmt>
<desc>Blaugies Sentier n°41 </desc>
<link href="https://chemins.be/blaugies/sentier/41"/><trkseg>
<trkpt lat="50.374086" lon="3.832619"><time>2026-05-04T15:17:53Z</time></trkpt>
<trkpt lat="50.373106" lon="3.834362"><time>2026-05-04T15:27:53Z</time></trkpt>
<trkpt lat="50.372312" lon="3.835100"><time>2026-05-04T15:37:53Z</time></trkpt>
<trkpt lat="50.371748" lon="3.837580"><time>2026-05-04T15:47:53Z</time></trkpt>
<trkpt lat="50.371168" lon="3.838541"><time>2026-05-04T15:57:53Z</time></trkpt>
</trkseg>
</trk>
<trk>
<name>hdobg42</name>
<cmt>q</cmt>
<desc>Blaugies Sentier n°42 Rue de la Frontière / Rue Planche à l'Aulne</desc>
<link href="https://chemins.be/blaugies/sentier/42"/><trkseg>
<trkpt lat="50.364876" lon="3.826062"><time>2026-05-04T15:17:53Z</time></trkpt>
<trkpt lat="50.365894" lon="3.827229"><time>2026-05-04T15:27:53Z</time></trkpt>
<trkpt lat="50.366266" lon="3.828293"><time>2026-05-04T15:37:53Z</time></trkpt>
<trkpt lat="50.366781" lon="3.828997"><time>2026-05-04T15:47:53Z</time></trkpt>
<trkpt lat="50.368489" lon="3.831641"><time>2026-05-04T15:57:53Z</time></trkpt>
</trkseg></trk>
<trk>
<name>hdobg42</name>
<cmt>r</cmt>
<desc>Blaugies Sentier n°42 Rue de la Frontière / Rue Planche à l'Aulne</desc>
<link href="https://chemins.be/blaugies/sentier/42"/><trkseg>
<trkpt lat="50.368489" lon="3.831641"><time>2026-05-04T15:57:53Z</time></trkpt>
<trkpt lat="50.368303" lon="3.832293"><time>2026-05-04T16:07:53Z</time></trkpt>
</trkseg></trk>
<trk>
<name>hdobg42</name>
<cmt>q</cmt>
<desc>Blaugies Sentier n°42 Rue de la Frontière / Rue Planche à l'Aulne</desc>
<link href="https://chemins.be/blaugies/sentier/42"/><trkseg>
<trkpt lat="50.368303" lon="3.832293"><time>2026-05-04T16:07:53Z</time></trkpt>
<trkpt lat="50.368963" lon="3.832836"><time>2026-05-04T16:17:53Z</time></trkpt>
<trkpt lat="50.369617" lon="3.833374"><time>2026-05-04T16:27:53Z</time></trkpt>
<trkpt lat="50.370832" lon="3.833563"><time>2026-05-04T16:37:53Z</time></trkpt>
</trkseg></trk>
<trk>
<name>hdobg42</name>
<cmt>r</cmt>
<desc>Blaugies Sentier n°42 Rue de la Frontière / Rue Planche à l'Aulne</desc>
<link href="https://chemins.be/blaugies/sentier/42"/><trkseg>
<trkpt lat="50.370832" lon="3.833563"><time>2026-05-04T16:37:53Z</time></trkpt>
<trkpt lat="50.370986" lon="3.834628"><time>2026-05-04T16:47:53Z</time></trkpt>
</trkseg></trk>
<trk>
<name>hdobg42</name>
<cmt>q</cmt>
<desc>Blaugies Sentier n°42 Rue de la Frontière / Rue Planche à l'Aulne</desc>
<link href="https://chemins.be/blaugies/sentier/42"/><trkseg>
<trkpt lat="50.370986" lon="3.834628"><time>2026-05-04T16:47:53Z</time></trkpt>
<trkpt lat="50.371998" lon="3.834910"><time>2026-05-04T16:57:53Z</time></trkpt>
</trkseg>
</trk>
<trk>
<name>hdobg43</name>
<cmt>q</cmt>
<desc>Blaugies Sentier n°43 Rue des Vainqueurs / Rue Planche à l'Aulne</desc>
<link href="https://chemins.be/blaugies/sentier/43"/><trkseg>
<trkpt lat="50.370408" lon="3.826841"><time>2026-05-04T15:17:53Z</time></trkpt>
<trkpt lat="50.370515" lon="3.827231"><time>2026-05-04T15:27:53Z</time></trkpt>
<trkpt lat="50.370282" lon="3.829278"><time>2026-05-04T15:37:53Z</time></trkpt>
<trkpt lat="50.370287" lon="3.830012"><time>2026-05-04T15:47:53Z</time></trkpt>
<trkpt lat="50.369855" lon="3.830334"><time>2026-05-04T15:57:53Z</time></trkpt>
<trkpt lat="50.369664" lon="3.830430"><time>2026-05-04T16:07:53Z</time></trkpt>
</trkseg></trk>
<trk>
<name>hdobg43</name>
<cmt>r</cmt>
<desc>Blaugies Sentier n°43 Rue des Vainqueurs / Rue Planche à l'Aulne</desc>
<link href="https://chemins.be/blaugies/sentier/43"/><trkseg>
<trkpt lat="50.369664" lon="3.830430"><time>2026-05-04T16:07:53Z</time></trkpt>
<trkpt lat="50.370075" lon="3.831747"><time>2026-05-04T16:17:53Z</time></trkpt>
</trkseg></trk>
<trk>
<name>hdobg43</name>
<cmt>q</cmt>
<desc>Blaugies Sentier n°43 Rue des Vainqueurs / Rue Planche à l'Aulne</desc>
<link href="https://chemins.be/blaugies/sentier/43"/><trkseg>
<trkpt lat="50.370075" lon="3.831747"><time>2026-05-04T16:17:53Z</time></trkpt>
<trkpt lat="50.369747" lon="3.832780"><time>2026-05-04T16:27:53Z</time></trkpt>
<trkpt lat="50.369548" lon="3.834550"><time>2026-05-04T16:37:53Z</time></trkpt>
<trkpt lat="50.368880" lon="3.838351"><time>2026-05-04T16:47:53Z</time></trkpt>
<trkpt lat="50.368296" lon="3.841758"><time>2026-05-04T16:57:53Z</time></trkpt>
</trkseg></trk>
<trk>
<name>hdobg43</name>
<cmt>v</cmt>
<desc>Blaugies Sentier n°43 Rue des Vainqueurs / Rue Planche à l'Aulne</desc>
<link href="https://chemins.be/blaugies/sentier/43"/><trkseg>
<trkpt lat="50.368296" lon="3.841758"><time>2026-05-04T16:57:53Z</time></trkpt>
<trkpt lat="50.367064" lon="3.843175"><time>2026-05-04T17:07:53Z</time></trkpt>
</trkseg></trk>
<trk>
<name>hdobg43</name>
<cmt>q</cmt>
<desc>Blaugies Sentier n°43 Rue des Vainqueurs / Rue Planche à l'Aulne</desc>
<link href="https://chemins.be/blaugies/sentier/43"/><trkseg>
<trkpt lat="50.367064" lon="3.843175"><time>2026-05-04T17:07:53Z</time></trkpt>
<trkpt lat="50.364623" lon="3.841572"><time>2026-05-04T17:17:53Z</time></trkpt>
<trkpt lat="50.364181" lon="3.841816"><time>2026-05-04T17:27:53Z</time></trkpt>
<trkpt lat="50.362744" lon="3.843375"><time>2026-05-04T17:37:53Z</time></trkpt>
</trkseg>
</trk>
<trk>
<name>hdobg44</name>
<cmt>q</cmt>
<desc>Blaugies Sentier n°44 Rue Planche à l'Aulne</desc>
<link href="https://chemins.be/blaugies/sentier/44"/><trkseg>
<trkpt lat="50.369528" lon="3.834540"><time>2026-05-04T15:17:53Z</time></trkpt>
<trkpt lat="50.370328" lon="3.836449"><time>2026-05-04T15:27:53Z</time></trkpt>
<trkpt lat="50.370752" lon="3.836787"><time>2026-05-04T15:37:53Z</time></trkpt>
</trkseg></trk>
<trk>
<name>hdobg44</name>
<cmt>r</cmt>
<desc>Blaugies Sentier n°44 Rue Planche à l'Aulne</desc>
<link href="https://chemins.be/blaugies/sentier/44"/><trkseg>
<trkpt lat="50.370752" lon="3.836787"><time>2026-05-04T15:37:53Z</time></trkpt>
<trkpt lat="50.370739" lon="3.837780"><time>2026-05-04T15:47:53Z</time></trkpt>
<trkpt lat="50.371201" lon="3.838536"><time>2026-05-04T15:57:53Z</time></trkpt>
</trkseg></trk>
<trk>
<name>hdobg44</name>
<cmt>q</cmt>
<desc>Blaugies Sentier n°44 Rue Planche à l'Aulne</desc>
<link href="https://chemins.be/blaugies/sentier/44"/><trkseg>
<trkpt lat="50.371201" lon="3.838536"><time>2026-05-04T15:57:53Z</time></trkpt>
<trkpt lat="50.372313" lon="3.839114"><time>2026-05-04T16:07:53Z</time></trkpt>
<trkpt lat="50.373772" lon="3.841252"><time>2026-05-04T16:17:53Z</time></trkpt>
<trkpt lat="50.374149" lon="3.840797"><time>2026-05-04T16:27:53Z</time></trkpt>
</trkseg>
</trk>
<trk>
<name>hdobg45</name>
<cmt>q</cmt>
<desc>Blaugies Sentier n°45 </desc>
<link href="https://chemins.be/blaugies/sentier/45"/><trkseg>
<trkpt lat="50.364249" lon="3.837581"><time>2026-05-04T15:17:53Z</time></trkpt>
<trkpt lat="50.363866" lon="3.837123"><time>2026-05-04T15:27:53Z</time></trkpt>
<trkpt lat="50.362684" lon="3.837946"><time>2026-05-04T15:37:53Z</time></trkpt>
<trkpt lat="50.359029" lon="3.840442"><time>2026-05-04T15:47:53Z</time></trkpt>
<trkpt lat="50.358660" lon="3.839340"><time>2026-05-04T15:57:53Z</time></trkpt>
<trkpt lat="50.357986" lon="3.839108"><time>2026-05-04T16:07:53Z</time></trkpt>
<trkpt lat="50.357375" lon="3.838655"><time>2026-05-04T16:17:53Z</time></trkpt>
<trkpt lat="50.357359" lon="3.838501"><time>2026-05-04T16:27:53Z</time></trkpt>
<trkpt lat="50.356538" lon="3.838466"><time>2026-05-04T16:37:53Z</time></trkpt>
<trkpt lat="50.356379" lon="3.838149"><time>2026-05-04T16:47:53Z</time></trkpt>
</trkseg>
</trk>
<trk>
<name>hdobg46</name>
<cmt>q</cmt>
<desc>Blaugies Sentier n°46 </desc>
<link href="https://chemins.be/blaugies/sentier/46"/><trkseg>
<trkpt lat="50.357187" lon="3.842756"><time>2026-05-04T15:17:53Z</time></trkpt>
<trkpt lat="50.357871" lon="3.840750"><time>2026-05-04T15:27:53Z</time></trkpt>
<trkpt lat="50.357563" lon="3.840042"><time>2026-05-04T15:37:53Z</time></trkpt>
<trkpt lat="50.357248" lon="3.837928"><time>2026-05-04T15:47:53Z</time></trkpt>
<trkpt lat="50.356687" lon="3.836544"><time>2026-05-04T15:57:53Z</time></trkpt>
</trkseg>
</trk>
<trk>
<name>hdobg46bis</name>
<cmt>q</cmt>
<desc>Blaugies Sentier n°46bis </desc>
<link href="https://chemins.be/blaugies/sentier/46bis"/><trkseg>
<trkpt lat="50.358190" lon="3.841824"><time>2026-05-04T15:17:53Z</time></trkpt>
<trkpt lat="50.358098" lon="3.841084"><time>2026-05-04T15:27:53Z</time></trkpt>
</trkseg>
</trk>
<trk>
<name>hdobg47</name>
<cmt>q</cmt>
<desc>Blaugies Sentier n°47 Allée d'Eugies</desc>
<link href="https://chemins.be/blaugies/sentier/47"/><trkseg>
<trkpt lat="50.355112" lon="3.838464"><time>2026-05-04T15:17:53Z</time></trkpt>
<trkpt lat="50.355413" lon="3.840104"><time>2026-05-04T15:27:53Z</time></trkpt>
<trkpt lat="50.353693" lon="3.841743"><time>2026-05-04T15:37:53Z</time></trkpt>
</trkseg>
</trk>
<trk>
<name>hdobg48</name>
<cmt>q</cmt>
<desc>Blaugies Sentier n°48 </desc>
<link href="https://chemins.be/blaugies/sentier/48"/><trkseg>
<trkpt lat="50.356025" lon="3.843056"><time>2026-05-04T15:17:53Z</time></trkpt>
<trkpt lat="50.353561" lon="3.842284"><time>2026-05-04T15:27:53Z</time></trkpt>
</trkseg>
</trk>
<trk>
<name>hdobg49</name>
<cmt>q</cmt>
<desc>Blaugies Sentier n°49 Allée de la Belle Maison</desc>
<link href="https://chemins.be/blaugies/sentier/49"/><trkseg>
<trkpt lat="50.372549" lon="3.825710"><time>2026-05-04T15:17:53Z</time></trkpt>
<trkpt lat="50.372668" lon="3.827067"><time>2026-05-04T15:27:53Z</time></trkpt>
</trkseg>
</trk>
<trk>
<name>hdobg5</name>
<cmt>v</cmt>
<desc>Blaugies Chemin n°5 Route Verte</desc>
<link href="https://chemins.be/blaugies/chemin/5"/><trkseg>
<trkpt lat="50.372511" lon="3.794939"><time>2026-05-04T15:17:53Z</time></trkpt>
<trkpt lat="50.372279" lon="3.791850"><time>2026-05-04T15:27:53Z</time></trkpt>
<trkpt lat="50.372019" lon="3.788781"><time>2026-05-04T15:37:53Z</time></trkpt>
<trkpt lat="50.372210" lon="3.786625"><time>2026-05-04T15:47:53Z</time></trkpt>
</trkseg>
</trk>
<trk>
<name>hdobg50</name>
<cmt>q</cmt>
<desc>Blaugies Sentier n°50 </desc>
<link href="https://chemins.be/blaugies/sentier/50"/><trkseg>
<trkpt lat="50.361010" lon="3.841204"><time>2026-05-04T15:17:53Z</time></trkpt>
<trkpt lat="50.361518" lon="3.842182"><time>2026-05-04T15:27:53Z</time></trkpt>
<trkpt lat="50.362761" lon="3.843369"><time>2026-05-04T15:37:53Z</time></trkpt>
<trkpt lat="50.363605" lon="3.844422"><time>2026-05-04T15:47:53Z</time></trkpt>
</trkseg>
</trk>
<trk>
<name>hdobg51</name>
<cmt>d</cmt>
<desc>Blaugies Sentier n°51 </desc>
<link href="https://chemins.be/blaugies/sentier/51"/><trkseg>
<trkpt lat="50.365700" lon="3.846479"><time>2026-05-04T15:17:53Z</time></trkpt>
<trkpt lat="50.368214" lon="3.849755"><time>2026-05-04T15:27:53Z</time></trkpt>
</trkseg>
</trk>
<trk>
<name>hdobg52</name>
<cmt>v</cmt>
<desc>Blaugies Sentier n°52 </desc>
<link href="https://chemins.be/blaugies/sentier/52"/><trkseg>
<trkpt lat="50.365673" lon="3.846466"><time>2026-05-04T15:17:53Z</time></trkpt>
<trkpt lat="50.364778" lon="3.851604"><time>2026-05-04T15:27:53Z</time></trkpt>
</trkseg>
</trk>
<trk>
<name>hdobg53</name>
<cmt>b</cmt>
<desc>Blaugies Sentier n°53 </desc>
<link href="https://chemins.be/blaugies/sentier/53"/><trkseg>
<trkpt lat="50.358392" lon="3.843312"><time>2026-05-04T15:17:53Z</time></trkpt>
<trkpt lat="50.358520" lon="3.843692"><time>2026-05-04T15:27:53Z</time></trkpt>
<trkpt lat="50.358709" lon="3.843993"><time>2026-05-04T15:37:53Z</time></trkpt>
</trkseg></trk>
<trk>
<name>hdobg53</name>
<cmt>d</cmt>
<desc>Blaugies Sentier n°53 </desc>
<link href="https://chemins.be/blaugies/sentier/53"/><trkseg>
<trkpt lat="50.358709" lon="3.843993"><time>2026-05-04T15:37:53Z</time></trkpt>
<trkpt lat="50.358926" lon="3.844298"><time>2026-05-04T15:47:53Z</time></trkpt>
<trkpt lat="50.359457" lon="3.844620"><time>2026-05-04T15:57:53Z</time></trkpt>
<trkpt lat="50.359618" lon="3.844963"><time>2026-05-04T16:07:53Z</time></trkpt>
<trkpt lat="50.360494" lon="3.847688"><time>2026-05-04T16:17:53Z</time></trkpt>
<trkpt lat="50.360364" lon="3.848664"><time>2026-05-04T16:27:53Z</time></trkpt>
</trkseg>
</trk>
<trk>
<name>hdobg55</name>
<cmt>q</cmt>
<desc>Blaugies Sentier n°55 </desc>
<link href="https://chemins.be/blaugies/sentier/55"/><trkseg>
<trkpt lat="50.370391" lon="3.831987"><time>2026-05-04T15:17:53Z</time></trkpt>
<trkpt lat="50.370723" lon="3.832114"><time>2026-05-04T15:27:53Z</time></trkpt>
<trkpt lat="50.371057" lon="3.832268"><time>2026-05-04T15:37:53Z</time></trkpt>
</trkseg>
</trk>
<trk>
<name>hdobg57</name>
<cmt>q</cmt>
<desc>Blaugies Sentier n°57 </desc>
<link href="https://chemins.be/blaugies/sentier/57"/><trkseg>
<trkpt lat="50.369105" lon="3.828798"><time>2026-05-04T15:17:53Z</time></trkpt>
<trkpt lat="50.370287" lon="3.829300"><time>2026-05-04T15:27:53Z</time></trkpt>
</trkseg>
</trk>
<trk>
<name>hdobg9</name>
<cmt>v</cmt>
<desc>Blaugies Chemin n°9 </desc>
<link href="https://chemins.be/blaugies/chemin/9"/><trkseg>
<trkpt lat="50.367178" lon="3.812651"><time>2026-05-04T15:17:53Z</time></trkpt>
<trkpt lat="50.365929" lon="3.811771"><time>2026-05-04T15:27:53Z</time></trkpt>
<trkpt lat="50.365726" lon="3.811619"><time>2026-05-04T15:37:53Z</time></trkpt>
<trkpt lat="50.365349" lon="3.811262"><time>2026-05-04T15:47:53Z</time></trkpt>
<trkpt lat="50.364977" lon="3.810955"><time>2026-05-04T15:57:53Z</time></trkpt>
<trkpt lat="50.364705" lon="3.810842"><time>2026-05-04T16:07:53Z</time></trkpt>
<trkpt lat="50.364400" lon="3.810842"><time>2026-05-04T16:17:53Z</time></trkpt>
<trkpt lat="50.364122" lon="3.811009"><time>2026-05-04T16:27:53Z</time></trkpt>
<trkpt lat="50.363844" lon="3.811153"><time>2026-05-04T16:37:53Z</time></trkpt>
<trkpt lat="50.363525" lon="3.811138"><time>2026-05-04T16:47:53Z</time></trkpt>
<trkpt lat="50.362578" lon="3.810924"><time>2026-05-04T16:57:53Z</time></trkpt>
<trkpt lat="50.361591" lon="3.810430"><time>2026-05-04T17:07:53Z</time></trkpt>
<trkpt lat="50.361521" lon="3.810340"><time>2026-05-04T17:17:53Z</time></trkpt>
<trkpt lat="50.361497" lon="3.810310"><time>2026-05-04T17:27:53Z</time></trkpt>
<trkpt lat="50.361024" lon="3.810089"><time>2026-05-04T17:37:53Z</time></trkpt>
<trkpt lat="50.360773" lon="3.810061"><time>2026-05-04T17:47:53Z</time></trkpt>
<trkpt lat="50.360410" lon="3.810162"><time>2026-05-04T17:57:53Z</time></trkpt>
<trkpt lat="50.360201" lon="3.810221"><time>2026-05-04T18:07:53Z</time></trkpt>
<trkpt lat="50.359679" lon="3.810357"><time>2026-05-04T18:17:53Z</time></trkpt>
</trkseg>
</trk>
<trk>
<name>hdobgi1</name>
<cmt>v</cmt>
<desc>Blaugies Chemin n°i1 Allée Degorge / Allée de Blaugies</desc>
<link href="https://chemins.be/blaugies/chemin/i1"/><trkseg>
<trkpt lat="50.365745" lon="3.846391"><time>2026-05-04T15:17:53Z</time></trkpt>
<trkpt lat="50.369860" lon="3.847693"><time>2026-05-04T15:27:53Z</time></trkpt>
</trkseg>
</trk>
<trk>
<name>hdobgi2</name>
<cmt>v</cmt>
<desc>Blaugies Sentier n°i2 Allée Centrale</desc>
<link href="https://chemins.be/blaugies/sentier/i2"/><trkseg>
<trkpt lat="50.357750" lon="3.843759"><time>2026-05-04T15:17:53Z</time></trkpt>
<trkpt lat="50.357493" lon="3.844281"><time>2026-05-04T15:27:53Z</time></trkpt>
<trkpt lat="50.357289" lon="3.844456"><time>2026-05-04T15:37:53Z</time></trkpt>
<trkpt lat="50.357248" lon="3.844461"><time>2026-05-04T15:47:53Z</time></trkpt>
</trkseg>
</trk>
<trk>
<name>hdobgi3</name>
<cmt>v</cmt>
<desc>Blaugies Chemin n°i3 Allée Degorge / Rue Planche à l'Aulne</desc>
<link href="https://chemins.be/blaugies/chemin/i3"/><trkseg>
<trkpt lat="50.359540" lon="3.844998"><time>2026-05-04T15:17:53Z</time></trkpt>
<trkpt lat="50.359596" lon="3.844597"><time>2026-05-04T15:27:53Z</time></trkpt>
<trkpt lat="50.360090" lon="3.843862"><time>2026-05-04T15:37:53Z</time></trkpt>
<trkpt lat="50.360739" lon="3.844895"><time>2026-05-04T15:47:53Z</time></trkpt>
</trkseg>
</trk>
<trk>
<name>hdobgi6</name>
<cmt>v</cmt>
<desc>Blaugies Sentier n°i6 Ruelle Totomme</desc>
<link href="https://chemins.be/blaugies/sentier/i6"/><trkseg>
<trkpt lat="50.378103" lon="3.811351"><time>2026-05-04T15:17:53Z</time></trkpt>
<trkpt lat="50.378284" lon="3.812639"><time>2026-05-04T15:27:53Z</time></trkpt>
<trkpt lat="50.378432" lon="3.815343"><time>2026-05-04T15:37:53Z</time></trkpt>
<trkpt lat="50.378240" lon="3.816029"><time>2026-05-04T15:47:53Z</time></trkpt>
<trkpt lat="50.378328" lon="3.816733"><time>2026-05-04T15:57:53Z</time></trkpt>
<trkpt lat="50.378898" lon="3.816649"><time>2026-05-04T16:07:53Z</time></trkpt>
</trkseg>
</trk>
<trk>
<name>hdodo22</name>
<cmt>r</cmt>
<desc>Dour Chemin n°22 </desc>
<link href="https://chemins.be/dour/chemin/22"/><trkseg>
<trkpt lat="50.406607" lon="3.783446"><time>2026-05-04T15:17:53Z</time></trkpt>
<trkpt lat="50.406528" lon="3.782856"><time>2026-05-04T15:27:53Z</time></trkpt>
</trkseg></trk>
<trk>
<name>hdodo22</name>
<cmt>q</cmt>
<desc>Dour Chemin n°22 </desc>
<link href="https://chemins.be/dour/chemin/22"/><trkseg>
<trkpt lat="50.406528" lon="3.782856"><time>2026-05-04T15:27:53Z</time></trkpt>
<trkpt lat="50.407417" lon="3.782583"><time>2026-05-04T15:37:53Z</time></trkpt>
</trkseg>
</trk>
<trk>
<name>hdodo24</name>
<cmt>v</cmt>
<desc>Dour Chemin n°24 Rue Fontaine Déclaret</desc>
<link href="https://chemins.be/dour/chemin/24"/><trkseg>
<trkpt lat="50.388870" lon="3.786149"><time>2026-05-04T15:17:53Z</time></trkpt>
<trkpt lat="50.389511" lon="3.787330"><time>2026-05-04T15:27:53Z</time></trkpt>
<trkpt lat="50.389604" lon="3.787435"><time>2026-05-04T15:37:53Z</time></trkpt>
<trkpt lat="50.389910" lon="3.787430"><time>2026-05-04T15:47:53Z</time></trkpt>
<trkpt lat="50.390441" lon="3.787465"><time>2026-05-04T15:57:53Z</time></trkpt>
<trkpt lat="50.390522" lon="3.787549"><time>2026-05-04T16:07:53Z</time></trkpt>
<trkpt lat="50.390835" lon="3.788100"><time>2026-05-04T16:17:53Z</time></trkpt>
<trkpt lat="50.390910" lon="3.788103"><time>2026-05-04T16:27:53Z</time></trkpt>
</trkseg>
</trk>
<trk>
<name>hdodo25</name>
<cmt>v</cmt>
<desc>Dour Chemin n°25 </desc>
<link href="https://chemins.be/dour/chemin/25"/><trkseg>
<trkpt lat="50.384799" lon="3.788942"><time>2026-05-04T15:17:53Z</time></trkpt>
<trkpt lat="50.385032" lon="3.787204"><time>2026-05-04T15:27:53Z</time></trkpt>
<trkpt lat="50.384676" lon="3.785530"><time>2026-05-04T15:37:53Z</time></trkpt>
<trkpt lat="50.384321" lon="3.784543"><time>2026-05-04T15:47:53Z</time></trkpt>
<trkpt lat="50.383464" lon="3.782842"><time>2026-05-04T15:57:53Z</time></trkpt>
</trkseg>
</trk>
<trk>
<name>hdodo3</name>
<cmt>v</cmt>
<desc>Dour Chemin n°3 </desc>
<link href="https://chemins.be/dour/chemin/3"/><trkseg>
<trkpt lat="50.393510" lon="3.795194"><time>2026-05-04T15:17:53Z</time></trkpt>
<trkpt lat="50.393315" lon="3.795768"><time>2026-05-04T15:27:53Z</time></trkpt>
<trkpt lat="50.392799" lon="3.796482"><time>2026-05-04T15:37:53Z</time></trkpt>
<trkpt lat="50.392529" lon="3.796503"><time>2026-05-04T15:47:53Z</time></trkpt>
</trkseg>
</trk>
<trk>
<name>hdodo30</name>
<cmt>r</cmt>
<desc>Dour Chemin n°30 Rue des Canadiens</desc>
<link href="https://chemins.be/dour/chemin/30"/><trkseg>
<trkpt lat="50.399419" lon="3.772501"><time>2026-05-04T15:17:53Z</time></trkpt>
<trkpt lat="50.399061" lon="3.773020"><time>2026-05-04T15:27:53Z</time></trkpt>
</trkseg>
</trk>
<trk>
<name>hdodo31</name>
<cmt>v</cmt>
<desc>Dour Sentier n°31 </desc>
<link href="https://chemins.be/dour/sentier/31"/><trkseg>
<trkpt lat="50.400022" lon="3.779939"><time>2026-05-04T15:17:53Z</time></trkpt>
<trkpt lat="50.400079" lon="3.779780"><time>2026-05-04T15:27:53Z</time></trkpt>
<trkpt lat="50.400137" lon="3.779778"><time>2026-05-04T15:37:53Z</time></trkpt>
<trkpt lat="50.400183" lon="3.779827"><time>2026-05-04T15:47:53Z</time></trkpt>
<trkpt lat="50.400246" lon="3.779737"><time>2026-05-04T15:57:53Z</time></trkpt>
<trkpt lat="50.400561" lon="3.779992"><time>2026-05-04T16:07:53Z</time></trkpt>
</trkseg></trk>
<trk>
<name>hdodo31</name>
<cmt>b</cmt>
<desc>Dour Sentier n°31 </desc>
<link href="https://chemins.be/dour/sentier/31"/><trkseg>
<trkpt lat="50.400561" lon="3.779992"><time>2026-05-04T16:07:53Z</time></trkpt>
<trkpt lat="50.400630" lon="3.779877"><time>2026-05-04T16:17:53Z</time></trkpt>
<trkpt lat="50.400941" lon="3.780203"><time>2026-05-04T16:27:53Z</time></trkpt>
</trkseg>
</trk>
<trk>
<name>hdodo32</name>
<cmt>v</cmt>
<desc>Dour Sentier n°32 Ruelle Louchard</desc>
<link href="https://chemins.be/dour/sentier/32"/><trkseg>
<trkpt lat="50.399535" lon="3.773680"><time>2026-05-04T15:17:53Z</time></trkpt>
<trkpt lat="50.399675" lon="3.773879"><time>2026-05-04T15:27:53Z</time></trkpt>
<trkpt lat="50.399788" lon="3.773956"><time>2026-05-04T15:37:53Z</time></trkpt>
<trkpt lat="50.399911" lon="3.774007"><time>2026-05-04T15:47:53Z</time></trkpt>
<trkpt lat="50.400015" lon="3.774011"><time>2026-05-04T15:57:53Z</time></trkpt>
</trkseg>
</trk>
<trk>
<name>hdodo33</name>
<cmt>v</cmt>
<desc>Dour Sentier n°33 Ruelle d'Elouges / Rue de la Toureille</desc>
<link href="https://chemins.be/dour/sentier/33"/><trkseg>
<trkpt lat="50.399114" lon="3.771750"><time>2026-05-04T15:17:53Z</time></trkpt>
<trkpt lat="50.399244" lon="3.771630"><time>2026-05-04T15:27:53Z</time></trkpt>
<trkpt lat="50.399534" lon="3.771350"><time>2026-05-04T15:37:53Z</time></trkpt>
<trkpt lat="50.399504" lon="3.771300"><time>2026-05-04T15:47:53Z</time></trkpt>
<trkpt lat="50.399877" lon="3.769838"><time>2026-05-04T15:57:53Z</time></trkpt>
<trkpt lat="50.400284" lon="3.768193"><time>2026-05-04T16:07:53Z</time></trkpt>
</trkseg></trk>
<trk>
<name>hdodo33</name>
<cmt>r</cmt>
<desc>Dour Sentier n°33 Ruelle d'Elouges / Rue de la Toureille</desc>
<link href="https://chemins.be/dour/sentier/33"/><trkseg>
<trkpt lat="50.400284" lon="3.768193"><time>2026-05-04T16:07:53Z</time></trkpt>
<trkpt lat="50.400405" lon="3.767692"><time>2026-05-04T16:17:53Z</time></trkpt>
</trkseg></trk>
<trk>
<name>hdodo33</name>
<cmt>d</cmt>
<desc>Dour Sentier n°33 Ruelle d'Elouges / Rue de la Toureille</desc>
<link href="https://chemins.be/dour/sentier/33"/><trkseg>
<trkpt lat="50.400405" lon="3.767692"><time>2026-05-04T16:17:53Z</time></trkpt>
<trkpt lat="50.400424" lon="3.767511"><time>2026-05-04T16:27:53Z</time></trkpt>
<trkpt lat="50.400443" lon="3.767399"><time>2026-05-04T16:37:53Z</time></trkpt>
<trkpt lat="50.400525" lon="3.767055"><time>2026-05-04T16:47:53Z</time></trkpt>
</trkseg>
</trk>
<trk>
<name>hdodo34</name>
<cmt>v</cmt>
<desc>Dour Sentier n°34 r</desc>
<link href="https://chemins.be/dour/sentier/34"/><trkseg>
<trkpt lat="50.401692" lon="3.774161"><time>2026-05-04T15:17:53Z</time></trkpt>
<trkpt lat="50.401494" lon="3.772729"><time>2026-05-04T15:27:53Z</time></trkpt>
</trkseg></trk>
<trk>
<name>hdodo34</name>
<cmt>r</cmt>
<desc>Dour Sentier n°34 r</desc>
<link href="https://chemins.be/dour/sentier/34"/><trkseg>
<trkpt lat="50.401494" lon="3.772729"><time>2026-05-04T15:27:53Z</time></trkpt>
<trkpt lat="50.401528" lon="3.771338"><time>2026-05-04T15:37:53Z</time></trkpt>
<trkpt lat="50.401170" lon="3.769669"><time>2026-05-04T15:47:53Z</time></trkpt>
</trkseg></trk>
<trk>
<name>hdodo34</name>
<cmt>s</cmt>
<desc>Dour Sentier n°34 r</desc>
<link href="https://chemins.be/dour/sentier/34"/><trkseg>
<trkpt lat="50.401170" lon="3.769669"><time>2026-05-04T15:47:53Z</time></trkpt>
<trkpt lat="50.400841" lon="3.768000"><time>2026-05-04T15:57:53Z</time></trkpt>
</trkseg></trk>
<trk>
<name>hdodo34</name>
<cmt>q</cmt>
<desc>Dour Sentier n°34 r</desc>
<link href="https://chemins.be/dour/sentier/34"/><trkseg>
<trkpt lat="50.400841" lon="3.768000"><time>2026-05-04T15:57:53Z</time></trkpt>
<trkpt lat="50.400543" lon="3.767018"><time>2026-05-04T16:07:53Z</time></trkpt>
</trkseg>
</trk>
<trk>
<name>hdodo35</name>
<cmt>s</cmt>
<desc>Dour Sentier n°35 </desc>
<link href="https://chemins.be/dour/sentier/35"/><trkseg>
<trkpt lat="50.402590" lon="3.772116"><time>2026-05-04T15:17:53Z</time></trkpt>
<trkpt lat="50.403937" lon="3.772051"><time>2026-05-04T15:27:53Z</time></trkpt>
</trkseg></trk>
<trk>
<name>hdodo35</name>
<cmt>q</cmt>
<desc>Dour Sentier n°35 </desc>
<link href="https://chemins.be/dour/sentier/35"/><trkseg>
<trkpt lat="50.403937" lon="3.772051"><time>2026-05-04T15:27:53Z</time></trkpt>
<trkpt lat="50.406166" lon="3.772202"><time>2026-05-04T15:37:53Z</time></trkpt>
<trkpt lat="50.406960" lon="3.771923"><time>2026-05-04T15:47:53Z</time></trkpt>
</trkseg>
</trk>
<trk>
<name>hdodo36</name>
<cmt>v</cmt>
<desc>Dour Sentier n°36 Chemin des Fours / Rue de la Machine à Feu</desc>
<link href="https://chemins.be/dour/sentier/36"/><trkseg>
<trkpt lat="50.407694" lon="3.775165"><time>2026-05-04T15:17:53Z</time></trkpt>
<trkpt lat="50.407132" lon="3.773262"><time>2026-05-04T15:27:53Z</time></trkpt>
</trkseg></trk>
<trk>
<name>hdodo36</name>
<cmt>r</cmt>
<desc>Dour Sentier n°36 Chemin des Fours / Rue de la Machine à Feu</desc>
<link href="https://chemins.be/dour/sentier/36"/><trkseg>
<trkpt lat="50.407132" lon="3.773262"><time>2026-05-04T15:27:53Z</time></trkpt>
<trkpt lat="50.406907" lon="3.771717"><time>2026-05-04T15:37:53Z</time></trkpt>
</trkseg></trk>
<trk>
<name>hdodo36</name>
<cmt>q</cmt>
<desc>Dour Sentier n°36 Chemin des Fours / Rue de la Machine à Feu</desc>
<link href="https://chemins.be/dour/sentier/36"/><trkseg>
<trkpt lat="50.406907" lon="3.771717"><time>2026-05-04T15:37:53Z</time></trkpt>
<trkpt lat="50.406415" lon="3.768460"><time>2026-05-04T15:47:53Z</time></trkpt>
<trkpt lat="50.406041" lon="3.767211"><time>2026-05-04T15:57:53Z</time></trkpt>
<trkpt lat="50.405868" lon="3.766558"><time>2026-05-04T16:07:53Z</time></trkpt>
</trkseg>
</trk>
<trk>
<name>hdodo37</name>
<cmt>v</cmt>
<desc>Dour Sentier n°37 </desc>
<link href="https://chemins.be/dour/sentier/37"/><trkseg>
<trkpt lat="50.402840" lon="3.778817"><time>2026-05-04T15:17:53Z</time></trkpt>
<trkpt lat="50.403016" lon="3.778084"><time>2026-05-04T15:27:53Z</time></trkpt>
<trkpt lat="50.403570" lon="3.777470"><time>2026-05-04T15:37:53Z</time></trkpt>
</trkseg></trk>
<trk>
<name>hdodo37</name>
<cmt>q</cmt>
<desc>Dour Sentier n°37 </desc>
<link href="https://chemins.be/dour/sentier/37"/><trkseg>
<trkpt lat="50.403570" lon="3.777470"><time>2026-05-04T15:37:53Z</time></trkpt>
<trkpt lat="50.404823" lon="3.776459"><time>2026-05-04T15:47:53Z</time></trkpt>
<trkpt lat="50.405716" lon="3.775973"><time>2026-05-04T15:57:53Z</time></trkpt>
<trkpt lat="50.406214" lon="3.775780"><time>2026-05-04T16:07:53Z</time></trkpt>
<trkpt lat="50.406926" lon="3.775486"><time>2026-05-04T16:17:53Z</time></trkpt>
<trkpt lat="50.407661" lon="3.775172"><time>2026-05-04T16:27:53Z</time></trkpt>
</trkseg>
</trk>
<trk>
<name>hdodo38</name>
<cmt>v</cmt>
<desc>Dour Sentier n°38 Voie d'Hainin</desc>
<link href="https://chemins.be/dour/sentier/38"/><trkseg>
<trkpt lat="50.402250" lon="3.779361"><time>2026-05-04T15:17:53Z</time></trkpt>
<trkpt lat="50.402373" lon="3.779477"><time>2026-05-04T15:27:53Z</time></trkpt>
<trkpt lat="50.403357" lon="3.780446"><time>2026-05-04T15:37:53Z</time></trkpt>
<trkpt lat="50.403360" lon="3.780446"><time>2026-05-04T15:47:53Z</time></trkpt>
<trkpt lat="50.403352" lon="3.780769"><time>2026-05-04T15:57:53Z</time></trkpt>
<trkpt lat="50.403574" lon="3.780989"><time>2026-05-04T16:07:53Z</time></trkpt>
<trkpt lat="50.403721" lon="3.781343"><time>2026-05-04T16:17:53Z</time></trkpt>
<trkpt lat="50.403936" lon="3.781569"><time>2026-05-04T16:27:53Z</time></trkpt>
<trkpt lat="50.404100" lon="3.782143"><time>2026-05-04T16:37:53Z</time></trkpt>
<trkpt lat="50.404203" lon="3.782566"><time>2026-05-04T16:47:53Z</time></trkpt>
<trkpt lat="50.404200" lon="3.782668"><time>2026-05-04T16:57:53Z</time></trkpt>
</trkseg>
</trk>
<trk>
<name>hdodo39</name>
<cmt>v</cmt>
<desc>Dour Sentier n°39 Rue Aimeries / Rue Sainte-Croix</desc>
<link href="https://chemins.be/dour/sentier/39"/><trkseg>
<trkpt lat="50.407746" lon="3.787932"><time>2026-05-04T15:17:53Z</time></trkpt>
<trkpt lat="50.406434" lon="3.787484"><time>2026-05-04T15:27:53Z</time></trkpt>
</trkseg></trk>
<trk>
<name>hdodo39</name>
<cmt>r</cmt>
<desc>Dour Sentier n°39 Rue Aimeries / Rue Sainte-Croix</desc>
<link href="https://chemins.be/dour/sentier/39"/><trkseg>
<trkpt lat="50.406434" lon="3.787484"><time>2026-05-04T15:27:53Z</time></trkpt>
<trkpt lat="50.406634" lon="3.787095"><time>2026-05-04T15:37:53Z</time></trkpt>
<trkpt lat="50.407007" lon="3.785676"><time>2026-05-04T15:47:53Z</time></trkpt>
<trkpt lat="50.407412" lon="3.784134"><time>2026-05-04T15:57:53Z</time></trkpt>
<trkpt lat="50.407600" lon="3.784053"><time>2026-05-04T16:07:53Z</time></trkpt>
<trkpt lat="50.407459" lon="3.782607"><time>2026-05-04T16:17:53Z</time></trkpt>
<trkpt lat="50.407365" lon="3.781715"><time>2026-05-04T16:27:53Z</time></trkpt>
</trkseg></trk>
<trk>
<name>hdodo39</name>
<cmt>q</cmt>
<desc>Dour Sentier n°39 Rue Aimeries / Rue Sainte-Croix</desc>
<link href="https://chemins.be/dour/sentier/39"/><trkseg>
<trkpt lat="50.407365" lon="3.781715"><time>2026-05-04T16:27:53Z</time></trkpt>
<trkpt lat="50.406901" lon="3.778511"><time>2026-05-04T16:37:53Z</time></trkpt>
</trkseg></trk>
<trk>
<name>hdodo39</name>
<cmt>v</cmt>
<desc>Dour Sentier n°39 Rue Aimeries / Rue Sainte-Croix</desc>
<link href="https://chemins.be/dour/sentier/39"/><trkseg>
<trkpt lat="50.406901" lon="3.778511"><time>2026-05-04T16:37:53Z</time></trkpt>
<trkpt lat="50.406490" lon="3.778522"><time>2026-05-04T16:47:53Z</time></trkpt>
</trkseg></trk>
<trk>
<name>hdodo39</name>
<cmt>d</cmt>
<desc>Dour Sentier n°39 Rue Aimeries / Rue Sainte-Croix</desc>
<link href="https://chemins.be/dour/sentier/39"/><trkseg>
<trkpt lat="50.406490" lon="3.778522"><time>2026-05-04T16:47:53Z</time></trkpt>
<trkpt lat="50.405970" lon="3.777874"><time>2026-05-04T16:57:53Z</time></trkpt>
</trkseg></trk>
<trk>
<name>hdodo39</name>
<cmt>q</cmt>
<desc>Dour Sentier n°39 Rue Aimeries / Rue Sainte-Croix</desc>
<link href="https://chemins.be/dour/sentier/39"/><trkseg>
<trkpt lat="50.405970" lon="3.777874"><time>2026-05-04T16:57:53Z</time></trkpt>
<trkpt lat="50.404555" lon="3.776113"><time>2026-05-04T17:07:53Z</time></trkpt>
</trkseg>
</trk>
<trk>
<name>hdodo40</name>
<cmt>r</cmt>
<desc>Dour Sentier n°40 Rue Alfred Danhier</desc>
<link href="https://chemins.be/dour/sentier/40"/><trkseg>
<trkpt lat="50.401987" lon="3.783548"><time>2026-05-04T15:17:53Z</time></trkpt>
<trkpt lat="50.401917" lon="3.786015"><time>2026-05-04T15:27:53Z</time></trkpt>
<trkpt lat="50.401680" lon="3.787474"><time>2026-05-04T15:37:53Z</time></trkpt>
</trkseg></trk>
<trk>
<name>hdodo40</name>
<cmt>s</cmt>
<desc>Dour Sentier n°40 Rue Alfred Danhier</desc>
<link href="https://chemins.be/dour/sentier/40"/><trkseg>
<trkpt lat="50.401680" lon="3.787474"><time>2026-05-04T15:37:53Z</time></trkpt>
<trkpt lat="50.401638" lon="3.789896"><time>2026-05-04T15:47:53Z</time></trkpt>
</trkseg>
</trk>
<trk>
<name>hdodo42</name>
<cmt>r</cmt>
<desc>Dour Sentier n°42 Rue de l'Enfer</desc>
<link href="https://chemins.be/dour/sentier/42"/><trkseg>
<trkpt lat="50.399151" lon="3.786167"><time>2026-05-04T15:17:53Z</time></trkpt>
<trkpt lat="50.400148" lon="3.786883"><time>2026-05-04T15:27:53Z</time></trkpt>
<trkpt lat="50.400825" lon="3.788695"><time>2026-05-04T15:37:53Z</time></trkpt>
<trkpt lat="50.401632" lon="3.789839"><time>2026-05-04T15:47:53Z</time></trkpt>
<trkpt lat="50.401972" lon="3.790879"><time>2026-05-04T15:57:53Z</time></trkpt>
<trkpt lat="50.402281" lon="3.791410"><time>2026-05-04T16:07:53Z</time></trkpt>
</trkseg></trk>
<trk>
<name>hdodo42</name>
<cmt>q</cmt>
<desc>Dour Sentier n°42 Rue de l'Enfer</desc>
<link href="https://chemins.be/dour/sentier/42"/><trkseg>
<trkpt lat="50.402281" lon="3.791410"><time>2026-05-04T16:07:53Z</time></trkpt>
<trkpt lat="50.402644" lon="3.791737"><time>2026-05-04T16:17:53Z</time></trkpt>
<trkpt lat="50.402770" lon="3.791662"><time>2026-05-04T16:27:53Z</time></trkpt>
<trkpt lat="50.403488" lon="3.793260"><time>2026-05-04T16:37:53Z</time></trkpt>
<trkpt lat="50.403967" lon="3.794231"><time>2026-05-04T16:47:53Z</time></trkpt>
</trkseg>
</trk>
<trk>
<name>hdodo43</name>
<cmt>q</cmt>
<desc>Dour Sentier n°43 Rue du Coron</desc>
<link href="https://chemins.be/dour/sentier/43"/><trkseg>
<trkpt lat="50.397188" lon="3.790049"><time>2026-05-04T15:17:53Z</time></trkpt>
<trkpt lat="50.397954" lon="3.791050"><time>2026-05-04T15:27:53Z</time></trkpt>
<trkpt lat="50.398872" lon="3.791260"><time>2026-05-04T15:37:53Z</time></trkpt>
</trkseg></trk>
<trk>
<name>hdodo43</name>
<cmt>r</cmt>
<desc>Dour Sentier n°43 Rue du Coron</desc>
<link href="https://chemins.be/dour/sentier/43"/><trkseg>
<trkpt lat="50.398872" lon="3.791260"><time>2026-05-04T15:37:53Z</time></trkpt>
<trkpt lat="50.398981" lon="3.791432"><time>2026-05-04T15:47:53Z</time></trkpt>
<trkpt lat="50.398756" lon="3.792672"><time>2026-05-04T15:57:53Z</time></trkpt>
<trkpt lat="50.398774" lon="3.793549"><time>2026-05-04T16:07:53Z</time></trkpt>
</trkseg></trk>
<trk>
<name>hdodo43</name>
<cmt>q</cmt>
<desc>Dour Sentier n°43 Rue du Coron</desc>
<link href="https://chemins.be/dour/sentier/43"/><trkseg>
<trkpt lat="50.398774" lon="3.793549"><time>2026-05-04T16:07:53Z</time></trkpt>
<trkpt lat="50.399183" lon="3.793555"><time>2026-05-04T16:17:53Z</time></trkpt>
<trkpt lat="50.399775" lon="3.794682"><time>2026-05-04T16:27:53Z</time></trkpt>
<trkpt lat="50.400867" lon="3.796160"><time>2026-05-04T16:37:53Z</time></trkpt>
<trkpt lat="50.401353" lon="3.796970"><time>2026-05-04T16:47:53Z</time></trkpt>
</trkseg>
</trk>
<trk>
<name>hdodo44</name>
<cmt>s</cmt>
<desc>Dour Sentier n°44 Voie des Cocars</desc>
<link href="https://chemins.be/dour/sentier/44"/><trkseg>
<trkpt lat="50.398958" lon="3.771577"><time>2026-05-04T15:17:53Z</time></trkpt>
<trkpt lat="50.397953" lon="3.770483"><time>2026-05-04T15:27:53Z</time></trkpt>
<trkpt lat="50.396832" lon="3.769907"><time>2026-05-04T15:37:53Z</time></trkpt>
</trkseg></trk>
<trk>
<name>hdodo44</name>
<cmt>r</cmt>
<desc>Dour Sentier n°44 Voie des Cocars</desc>
<link href="https://chemins.be/dour/sentier/44"/><trkseg>
<trkpt lat="50.396832" lon="3.769907"><time>2026-05-04T15:37:53Z</time></trkpt>
<trkpt lat="50.395592" lon="3.768706"><time>2026-05-04T15:47:53Z</time></trkpt>
</trkseg>
</trk>
<trk>
<name>hdodo45</name>
<cmt>r</cmt>
<desc>Dour Sentier n°45 Voie du Prêtre</desc>
<link href="https://chemins.be/dour/sentier/45"/><trkseg>
<trkpt lat="50.397323" lon="3.775408"><time>2026-05-04T15:17:53Z</time></trkpt>
<trkpt lat="50.396852" lon="3.769823"><time>2026-05-04T15:27:53Z</time></trkpt>
</trkseg></trk>
<trk>
<name>hdodo45</name>
<cmt>s</cmt>
<desc>Dour Sentier n°45 Voie du Prêtre</desc>
<link href="https://chemins.be/dour/sentier/45"/><trkseg>
<trkpt lat="50.396852" lon="3.769823"><time>2026-05-04T15:27:53Z</time></trkpt>
<trkpt lat="50.397071" lon="3.768042"><time>2026-05-04T15:37:53Z</time></trkpt>
<trkpt lat="50.397673" lon="3.766969"><time>2026-05-04T15:47:53Z</time></trkpt>
</trkseg>
</trk>
<trk>
<name>hdodo46</name>
<cmt>v</cmt>
<desc>Dour Sentier n°46 Ruelle Croisette / Ruelle Quezin</desc>
<link href="https://chemins.be/dour/sentier/46"/><trkseg>
<trkpt lat="50.399108" lon="3.771783"><time>2026-05-04T15:17:53Z</time></trkpt>
<trkpt lat="50.398697" lon="3.772483"><time>2026-05-04T15:27:53Z</time></trkpt>
<trkpt lat="50.399061" lon="3.773011"><time>2026-05-04T15:37:53Z</time></trkpt>
<trkpt lat="50.399112" lon="3.774327"><time>2026-05-04T15:47:53Z</time></trkpt>
<trkpt lat="50.399279" lon="3.775094"><time>2026-05-04T15:57:53Z</time></trkpt>
<trkpt lat="50.399413" lon="3.775534"><time>2026-05-04T16:07:53Z</time></trkpt>
<trkpt lat="50.399508" lon="3.775566"><time>2026-05-04T16:17:53Z</time></trkpt>
<trkpt lat="50.399570" lon="3.775941"><time>2026-05-04T16:27:53Z</time></trkpt>
</trkseg>
</trk>
<trk>
<name>hdodo48</name>
<cmt>v</cmt>
<desc>Dour Sentier n°48 Rue du Mur Troué</desc>
<link href="https://chemins.be/dour/sentier/48"/><trkseg>
<trkpt lat="50.398712" lon="3.780219"><time>2026-05-04T15:17:53Z</time></trkpt>
<trkpt lat="50.399222" lon="3.779720"><time>2026-05-04T15:27:53Z</time></trkpt>
<trkpt lat="50.399507" lon="3.779253"><time>2026-05-04T15:37:53Z</time></trkpt>
</trkseg>
</trk>
<trk>
<name>hdodo49</name>
<cmt>v</cmt>
<desc>Dour Sentier n°49 Ruelle Constantin</desc>
<link href="https://chemins.be/dour/sentier/49"/><trkseg>
<trkpt lat="50.398124" lon="3.783236"><time>2026-05-04T15:17:53Z</time></trkpt>
<trkpt lat="50.398482" lon="3.782796"><time>2026-05-04T15:27:53Z</time></trkpt>
<trkpt lat="50.398436" lon="3.782684"><time>2026-05-04T15:37:53Z</time></trkpt>
<trkpt lat="50.398544" lon="3.782570"><time>2026-05-04T15:47:53Z</time></trkpt>
<trkpt lat="50.398471" lon="3.782430"><time>2026-05-04T15:57:53Z</time></trkpt>
</trkseg>
</trk>
<trk>
<name>hdodo50</name>
<cmt>v</cmt>
<desc>Dour Sentier n°50 </desc>
<link href="https://chemins.be/dour/sentier/50"/><trkseg>
<trkpt lat="50.397443" lon="3.780988"><time>2026-05-04T15:17:53Z</time></trkpt>
<trkpt lat="50.397659" lon="3.780604"><time>2026-05-04T15:27:53Z</time></trkpt>
<trkpt lat="50.397503" lon="3.779901"><time>2026-05-04T15:37:53Z</time></trkpt>
<trkpt lat="50.397461" lon="3.779716"><time>2026-05-04T15:47:53Z</time></trkpt>
<trkpt lat="50.397471" lon="3.779470"><time>2026-05-04T15:57:53Z</time></trkpt>
</trkseg>
</trk>
<trk>
<name>hdodo52</name>
<cmt>v</cmt>
<desc>Dour Sentier n°52 rue du Petit Village</desc>
<link href="https://chemins.be/dour/sentier/52"/><trkseg>
<trkpt lat="50.397970" lon="3.782985"><time>2026-05-04T15:17:53Z</time></trkpt>
<trkpt lat="50.397774" lon="3.783123"><time>2026-05-04T15:27:53Z</time></trkpt>
</trkseg></trk>
<trk>
<name>hdodo52</name>
<cmt>r</cmt>
<desc>Dour Sentier n°52 rue du Petit Village</desc>
<link href="https://chemins.be/dour/sentier/52"/><trkseg>
<trkpt lat="50.397774" lon="3.783123"><time>2026-05-04T15:27:53Z</time></trkpt>
<trkpt lat="50.397005" lon="3.783767"><time>2026-05-04T15:37:53Z</time></trkpt>
</trkseg></trk>
<trk>
<name>hdodo52</name>
<cmt>v</cmt>
<desc>Dour Sentier n°52 rue du Petit Village</desc>
<link href="https://chemins.be/dour/sentier/52"/><trkseg>
<trkpt lat="50.397005" lon="3.783767"><time>2026-05-04T15:37:53Z</time></trkpt>
<trkpt lat="50.396839" lon="3.784472"><time>2026-05-04T15:47:53Z</time></trkpt>
</trkseg></trk>
<trk>
<name>hdodo52</name>
<cmt>r</cmt>
<desc>Dour Sentier n°52 rue du Petit Village</desc>
<link href="https://chemins.be/dour/sentier/52"/><trkseg>
<trkpt lat="50.396839" lon="3.784472"><time>2026-05-04T15:47:53Z</time></trkpt>
<trkpt lat="50.396776" lon="3.784573"><time>2026-05-04T15:57:53Z</time></trkpt>
<trkpt lat="50.396705" lon="3.784416"><time>2026-05-04T16:07:53Z</time></trkpt>
</trkseg></trk>
<trk>
<name>hdodo52</name>
<cmt>q</cmt>
<desc>Dour Sentier n°52 rue du Petit Village</desc>
<link href="https://chemins.be/dour/sentier/52"/><trkseg>
<trkpt lat="50.396705" lon="3.784416"><time>2026-05-04T16:07:53Z</time></trkpt>
<trkpt lat="50.396558" lon="3.784940"><time>2026-05-04T16:17:53Z</time></trkpt>
</trkseg></trk>
<trk>
<name>hdodo52</name>
<cmt>r</cmt>
<desc>Dour Sentier n°52 rue du Petit Village</desc>
<link href="https://chemins.be/dour/sentier/52"/><trkseg>
<trkpt lat="50.396558" lon="3.784940"><time>2026-05-04T16:17:53Z</time></trkpt>
<trkpt lat="50.397048" lon="3.785208"><time>2026-05-04T16:27:53Z</time></trkpt>
<trkpt lat="50.397602" lon="3.786320"><time>2026-05-04T16:37:53Z</time></trkpt>
<trkpt lat="50.398500" lon="3.786871"><time>2026-05-04T16:47:53Z</time></trkpt>
</trkseg>
</trk>
<trk>
<name>hdodo53</name>
<cmt>r</cmt>
<desc>Dour Sentier n°53 Rue du Rossignol / Sentier Plantis Jacquette / Plantis Jacquette / Rue du Chêne Brulé</desc>
<link href="https://chemins.be/dour/sentier/53"/><trkseg>
<trkpt lat="50.395856" lon="3.783085"><time>2026-05-04T15:17:53Z</time></trkpt>
<trkpt lat="50.396157" lon="3.783296"><time>2026-05-04T15:27:53Z</time></trkpt>
<trkpt lat="50.396049" lon="3.783872"><time>2026-05-04T15:37:53Z</time></trkpt>
<trkpt lat="50.396152" lon="3.784339"><time>2026-05-04T15:47:53Z</time></trkpt>
<trkpt lat="50.396083" lon="3.784622"><time>2026-05-04T15:57:53Z</time></trkpt>
<trkpt lat="50.395863" lon="3.785345"><time>2026-05-04T16:07:53Z</time></trkpt>
<trkpt lat="50.395795" lon="3.786340"><time>2026-05-04T16:17:53Z</time></trkpt>
<trkpt lat="50.395559" lon="3.787131"><time>2026-05-04T16:27:53Z</time></trkpt>
<trkpt lat="50.393941" lon="3.788037"><time>2026-05-04T16:37:53Z</time></trkpt>
</trkseg>
</trk>
<trk>
<name>hdodo54</name>
<cmt>s</cmt>
<desc>Dour Sentier n°54 Chemin d'Offignies / Rue du docteur Victor Delporte / Rue Jean-Hourdoux / Rue Victor Delporte / Rue Alfred Defuisseaux / Rue d'Offignies</desc>
<link href="https://chemins.be/dour/sentier/54"/><trkseg>
<trkpt lat="50.394364" lon="3.783940"><time>2026-05-04T15:17:53Z</time></trkpt>
<trkpt lat="50.393719" lon="3.784515"><time>2026-05-04T15:27:53Z</time></trkpt>
<trkpt lat="50.393013" lon="3.785474"><time>2026-05-04T15:37:53Z</time></trkpt>
</trkseg></trk>
<trk>
<name>hdodo54</name>
<cmt>q</cmt>
<desc>Dour Sentier n°54 Chemin d'Offignies / Rue du docteur Victor Delporte / Rue Jean-Hourdoux / Rue Victor Delporte / Rue Alfred Defuisseaux / Rue d'Offignies</desc>
<link href="https://chemins.be/dour/sentier/54"/><trkseg>
<trkpt lat="50.393013" lon="3.785474"><time>2026-05-04T15:37:53Z</time></trkpt>
<trkpt lat="50.392362" lon="3.786214"><time>2026-05-04T15:47:53Z</time></trkpt>
</trkseg></trk>
<trk>
<name>hdodo54</name>
<cmt>r</cmt>
<desc>Dour Sentier n°54 Chemin d'Offignies / Rue du docteur Victor Delporte / Rue Jean-Hourdoux / Rue Victor Delporte / Rue Alfred Defuisseaux / Rue d'Offignies</desc>
<link href="https://chemins.be/dour/sentier/54"/><trkseg>
<trkpt lat="50.392362" lon="3.786214"><time>2026-05-04T15:47:53Z</time></trkpt>
<trkpt lat="50.392586" lon="3.786686"><time>2026-05-04T15:57:53Z</time></trkpt>
<trkpt lat="50.392014" lon="3.787710"><time>2026-05-04T16:07:53Z</time></trkpt>
<trkpt lat="50.391274" lon="3.788760"><time>2026-05-04T16:17:53Z</time></trkpt>
<trkpt lat="50.390634" lon="3.791211"><time>2026-05-04T16:27:53Z</time></trkpt>
<trkpt lat="50.388693" lon="3.793481"><time>2026-05-04T16:37:53Z</time></trkpt>
</trkseg></trk>
<trk>
<name>hdodo54</name>
<cmt>v</cmt>
<desc>Dour Sentier n°54 Chemin d'Offignies / Rue du docteur Victor Delporte / Rue Jean-Hourdoux / Rue Victor Delporte / Rue Alfred Defuisseaux / Rue d'Offignies</desc>
<link href="https://chemins.be/dour/sentier/54"/><trkseg>
<trkpt lat="50.388693" lon="3.793481"><time>2026-05-04T16:37:53Z</time></trkpt>
<trkpt lat="50.388683" lon="3.793481"><time>2026-05-04T16:47:53Z</time></trkpt>
<trkpt lat="50.388393" lon="3.793571"><time>2026-05-04T16:57:53Z</time></trkpt>
<trkpt lat="50.387813" lon="3.793691"><time>2026-05-04T17:07:53Z</time></trkpt>
<trkpt lat="50.387643" lon="3.793761"><time>2026-05-04T17:17:53Z</time></trkpt>
<trkpt lat="50.386653" lon="3.794521"><time>2026-05-04T17:27:53Z</time></trkpt>
<trkpt lat="50.386443" lon="3.794781"><time>2026-05-04T17:37:53Z</time></trkpt>
<trkpt lat="50.386183" lon="3.795191"><time>2026-05-04T17:47:53Z</time></trkpt>
<trkpt lat="50.385993" lon="3.795401"><time>2026-05-04T17:57:53Z</time></trkpt>
<trkpt lat="50.385763" lon="3.795571"><time>2026-05-04T18:07:53Z</time></trkpt>
<trkpt lat="50.385383" lon="3.795771"><time>2026-05-04T18:17:53Z</time></trkpt>
<trkpt lat="50.384763" lon="3.796061"><time>2026-05-04T18:27:53Z</time></trkpt>
<trkpt lat="50.384093" lon="3.796311"><time>2026-05-04T18:37:53Z</time></trkpt>
<trkpt lat="50.383453" lon="3.796471"><time>2026-05-04T18:47:53Z</time></trkpt>
<trkpt lat="50.383293" lon="3.796491"><time>2026-05-04T18:57:53Z</time></trkpt>
<trkpt lat="50.383073" lon="3.796481"><time>2026-05-04T19:07:53Z</time></trkpt>
<trkpt lat="50.381943" lon="3.796281"><time>2026-05-04T19:17:53Z</time></trkpt>
<trkpt lat="50.381021" lon="3.796180"><time>2026-05-04T19:27:53Z</time></trkpt>
</trkseg></trk>
<trk>
<name>hdodo54</name>
<cmt>r</cmt>
<desc>Dour Sentier n°54 Chemin d'Offignies / Rue du docteur Victor Delporte / Rue Jean-Hourdoux / Rue Victor Delporte / Rue Alfred Defuisseaux / Rue d'Offignies</desc>
<link href="https://chemins.be/dour/sentier/54"/><trkseg>
<trkpt lat="50.381021" lon="3.796180"><time>2026-05-04T19:27:53Z</time></trkpt>
<trkpt lat="50.380726" lon="3.797141"><time>2026-05-04T19:37:53Z</time></trkpt>
</trkseg></trk>
<trk>
<name>hdodo54</name>
<cmt>d</cmt>
<desc>Dour Sentier n°54 Chemin d'Offignies / Rue du docteur Victor Delporte / Rue Jean-Hourdoux / Rue Victor Delporte / Rue Alfred Defuisseaux / Rue d'Offignies</desc>
<link href="https://chemins.be/dour/sentier/54"/><trkseg>
<trkpt lat="50.380726" lon="3.797141"><time>2026-05-04T19:37:53Z</time></trkpt>
<trkpt lat="50.379784" lon="3.796575"><time>2026-05-04T19:47:53Z</time></trkpt>
<trkpt lat="50.378098" lon="3.798073"><time>2026-05-04T19:57:53Z</time></trkpt>
<trkpt lat="50.378148" lon="3.798864"><time>2026-05-04T20:07:53Z</time></trkpt>
</trkseg></trk>
<trk>
<name>hdodo54</name>
<cmt>v</cmt>
<desc>Dour Sentier n°54 Chemin d'Offignies / Rue du docteur Victor Delporte / Rue Jean-Hourdoux / Rue Victor Delporte / Rue Alfred Defuisseaux / Rue d'Offignies</desc>
<link href="https://chemins.be/dour/sentier/54"/><trkseg>
<trkpt lat="50.378148" lon="3.798864"><time>2026-05-04T20:07:53Z</time></trkpt>
<trkpt lat="50.378416" lon="3.799115"><time>2026-05-04T20:17:53Z</time></trkpt>
</trkseg>
</trk>
<trk>
<name>hdodo55</name>
<cmt>v</cmt>
<desc>Dour Sentier n°55 Rue Cauderloo / Rue Moranfayt</desc>
<link href="https://chemins.be/dour/sentier/55"/><trkseg>
<trkpt lat="50.383444" lon="3.810523"><time>2026-05-04T15:17:53Z</time></trkpt>
<trkpt lat="50.383647" lon="3.809804"><time>2026-05-04T15:27:53Z</time></trkpt>
</trkseg></trk>
<trk>
<name>hdodo55</name>
<cmt>q</cmt>
<desc>Dour Sentier n°55 Rue Cauderloo / Rue Moranfayt</desc>
<link href="https://chemins.be/dour/sentier/55"/><trkseg>
<trkpt lat="50.383647" lon="3.809804"><time>2026-05-04T15:27:53Z</time></trkpt>
<trkpt lat="50.385238" lon="3.807406"><time>2026-05-04T15:37:53Z</time></trkpt>
</trkseg></trk>
<trk>
<name>hdodo55</name>
<cmt>r</cmt>
<desc>Dour Sentier n°55 Rue Cauderloo / Rue Moranfayt</desc>
<link href="https://chemins.be/dour/sentier/55"/><trkseg>
<trkpt lat="50.385238" lon="3.807406"><time>2026-05-04T15:37:53Z</time></trkpt>
<trkpt lat="50.384444" lon="3.803844"><time>2026-05-04T15:47:53Z</time></trkpt>
<trkpt lat="50.385238" lon="3.803716"><time>2026-05-04T15:57:53Z</time></trkpt>
</trkseg></trk>
<trk>
<name>hdodo55</name>
<cmt>q</cmt>
<desc>Dour Sentier n°55 Rue Cauderloo / Rue Moranfayt</desc>
<link href="https://chemins.be/dour/sentier/55"/><trkseg>
<trkpt lat="50.385238" lon="3.803716"><time>2026-05-04T15:57:53Z</time></trkpt>
<trkpt lat="50.387427" lon="3.797836"><time>2026-05-04T16:07:53Z</time></trkpt>
<trkpt lat="50.387226" lon="3.796646"><time>2026-05-04T16:17:53Z</time></trkpt>
</trkseg></trk>
<trk>
<name>hdodo55</name>
<cmt>d</cmt>
<desc>Dour Sentier n°55 Rue Cauderloo / Rue Moranfayt</desc>
<link href="https://chemins.be/dour/sentier/55"/><trkseg>
<trkpt lat="50.387226" lon="3.796646"><time>2026-05-04T16:17:53Z</time></trkpt>
<trkpt lat="50.388576" lon="3.794918"><time>2026-05-04T16:27:53Z</time></trkpt>
<trkpt lat="50.388576" lon="3.793588"><time>2026-05-04T16:37:53Z</time></trkpt>
</trkseg>
</trk>
<trk>
<name>hdodo56</name>
<cmt>s</cmt>
<desc>Dour Sentier n°56 Chemin du Rouge Bonnet / Rue de la Gayolle / Sentier Annoile Banot</desc>
<link href="https://chemins.be/dour/sentier/56"/><trkseg>
<trkpt lat="50.394482" lon="3.791549"><time>2026-05-04T15:17:53Z</time></trkpt>
<trkpt lat="50.393550" lon="3.790784"><time>2026-05-04T15:27:53Z</time></trkpt>
</trkseg></trk>
<trk>
<name>hdodo56</name>
<cmt>r</cmt>
<desc>Dour Sentier n°56 Chemin du Rouge Bonnet / Rue de la Gayolle / Sentier Annoile Banot</desc>
<link href="https://chemins.be/dour/sentier/56"/><trkseg>
<trkpt lat="50.393550" lon="3.790784"><time>2026-05-04T15:27:53Z</time></trkpt>
<trkpt lat="50.393352" lon="3.791022"><time>2026-05-04T15:37:53Z</time></trkpt>
<trkpt lat="50.392750" lon="3.789849"><time>2026-05-04T15:47:53Z</time></trkpt>
<trkpt lat="50.393224" lon="3.789429"><time>2026-05-04T15:57:53Z</time></trkpt>
</trkseg></trk>
<trk>
<name>hdodo56</name>
<cmt>v</cmt>
<desc>Dour Sentier n°56 Chemin du Rouge Bonnet / Rue de la Gayolle / Sentier Annoile Banot</desc>
<link href="https://chemins.be/dour/sentier/56"/><trkseg>
<trkpt lat="50.393224" lon="3.789429"><time>2026-05-04T15:57:53Z</time></trkpt>
<trkpt lat="50.393048" lon="3.789206"><time>2026-05-04T16:07:53Z</time></trkpt>
<trkpt lat="50.392921" lon="3.789038"><time>2026-05-04T16:17:53Z</time></trkpt>
<trkpt lat="50.392214" lon="3.787866"><time>2026-05-04T16:27:53Z</time></trkpt>
<trkpt lat="50.392176" lon="3.787791"><time>2026-05-04T16:37:53Z</time></trkpt>
<trkpt lat="50.392062" lon="3.787786"><time>2026-05-04T16:47:53Z</time></trkpt>
<trkpt lat="50.391970" lon="3.787710"><time>2026-05-04T16:57:53Z</time></trkpt>
</trkseg>
</trk>
<trk>
<name>hdodo57</name>
<cmt>r</cmt>
<desc>Dour Sentier n°57 </desc>
<link href="https://chemins.be/dour/sentier/57"/><trkseg>
<trkpt lat="50.394970" lon="3.789440"><time>2026-05-04T15:17:53Z</time></trkpt>
<trkpt lat="50.393958" lon="3.788110"><time>2026-05-04T15:27:53Z</time></trkpt>
<trkpt lat="50.393510" lon="3.787810"><time>2026-05-04T15:37:53Z</time></trkpt>
<trkpt lat="50.393159" lon="3.787243"><time>2026-05-04T15:47:53Z</time></trkpt>
<trkpt lat="50.392760" lon="3.786965"><time>2026-05-04T15:57:53Z</time></trkpt>
<trkpt lat="50.392612" lon="3.786728"><time>2026-05-04T16:07:53Z</time></trkpt>
<trkpt lat="50.391430" lon="3.784719"><time>2026-05-04T16:17:53Z</time></trkpt>
</trkseg></trk>
<trk>
<name>hdodo57</name>
<cmt>v</cmt>
<desc>Dour Sentier n°57 </desc>
<link href="https://chemins.be/dour/sentier/57"/><trkseg>
<trkpt lat="50.391430" lon="3.784719"><time>2026-05-04T16:17:53Z</time></trkpt>
<trkpt lat="50.391138" lon="3.784225"><time>2026-05-04T16:27:53Z</time></trkpt>
<trkpt lat="50.390663" lon="3.783420"><time>2026-05-04T16:37:53Z</time></trkpt>
<trkpt lat="50.389863" lon="3.782710"><time>2026-05-04T16:47:53Z</time></trkpt>
<trkpt lat="50.388233" lon="3.780490"><time>2026-05-04T16:57:53Z</time></trkpt>
<trkpt lat="50.387896" lon="3.780241"><time>2026-05-04T17:07:53Z</time></trkpt>
</trkseg></trk>
<trk>
<name>hdodo57</name>
<cmt>d</cmt>
<desc>Dour Sentier n°57 </desc>
<link href="https://chemins.be/dour/sentier/57"/><trkseg>
<trkpt lat="50.387896" lon="3.780241"><time>2026-05-04T17:07:53Z</time></trkpt>
<trkpt lat="50.387313" lon="3.779810"><time>2026-05-04T17:17:53Z</time></trkpt>
</trkseg>
</trk>
<trk>
<name>hdodo58</name>
<cmt>r</cmt>
<desc>Dour Sentier n°58 Rue des Fondsvarts</desc>
<link href="https://chemins.be/dour/sentier/58"/><trkseg>
<trkpt lat="50.393239" lon="3.787360"><time>2026-05-04T15:17:53Z</time></trkpt>
<trkpt lat="50.393677" lon="3.785801"><time>2026-05-04T15:27:53Z</time></trkpt>
</trkseg></trk>
<trk>
<name>hdodo58</name>
<cmt>s</cmt>
<desc>Dour Sentier n°58 Rue des Fondsvarts</desc>
<link href="https://chemins.be/dour/sentier/58"/><trkseg>
<trkpt lat="50.393677" lon="3.785801"><time>2026-05-04T15:27:53Z</time></trkpt>
<trkpt lat="50.393697" lon="3.784478"><time>2026-05-04T15:37:53Z</time></trkpt>
</trkseg>
</trk>
<trk>
<name>hdodo59</name>
<cmt>q</cmt>
<desc>Dour Sentier n°59 </desc>
<link href="https://chemins.be/dour/sentier/59"/><trkseg>
<trkpt lat="50.379930" lon="3.801904"><time>2026-05-04T15:17:53Z</time></trkpt>
<trkpt lat="50.380979" lon="3.801804"><time>2026-05-04T15:27:53Z</time></trkpt>
<trkpt lat="50.382128" lon="3.800746"><time>2026-05-04T15:37:53Z</time></trkpt>
<trkpt lat="50.382087" lon="3.799909"><time>2026-05-04T15:47:53Z</time></trkpt>
<trkpt lat="50.384299" lon="3.799344"><time>2026-05-04T15:57:53Z</time></trkpt>
<trkpt lat="50.385134" lon="3.799315"><time>2026-05-04T16:07:53Z</time></trkpt>
<trkpt lat="50.386133" lon="3.798578"><time>2026-05-04T16:17:53Z</time></trkpt>
<trkpt lat="50.387428" lon="3.797799"><time>2026-05-04T16:27:53Z</time></trkpt>
</trkseg>
</trk>
<trk>
<name>hdodo60</name>
<cmt>v</cmt>
<desc>Dour Sentier n°60 </desc>
<link href="https://chemins.be/dour/sentier/60"/><trkseg>
<trkpt lat="50.399345" lon="3.788024"><time>2026-05-04T15:17:53Z</time></trkpt>
<trkpt lat="50.399244" lon="3.787230"><time>2026-05-04T15:27:53Z</time></trkpt>
</trkseg></trk>
<trk>
<name>hdodo60</name>
<cmt>r</cmt>
<desc>Dour Sentier n°60 </desc>
<link href="https://chemins.be/dour/sentier/60"/><trkseg>
<trkpt lat="50.399244" lon="3.787230"><time>2026-05-04T15:27:53Z</time></trkpt>
<trkpt lat="50.399060" lon="3.786980"><time>2026-05-04T15:37:53Z</time></trkpt>
</trkseg></trk>
<trk>
<name>hdodo60</name>
<cmt>q</cmt>
<desc>Dour Sentier n°60 </desc>
<link href="https://chemins.be/dour/sentier/60"/><trkseg>
<trkpt lat="50.399060" lon="3.786980"><time>2026-05-04T15:37:53Z</time></trkpt>
<trkpt lat="50.399098" lon="3.786329"><time>2026-05-04T15:47:53Z</time></trkpt>
</trkseg>
</trk>
<trk>
<name>hdodo61</name>
<cmt>v</cmt>
<desc>Dour Sentier n°61 Ruelle Pilate</desc>
<link href="https://chemins.be/dour/sentier/61"/><trkseg>
<trkpt lat="50.402659" lon="3.777292"><time>2026-05-04T15:17:53Z</time></trkpt>
<trkpt lat="50.402428" lon="3.777217"><time>2026-05-04T15:27:53Z</time></trkpt>
<trkpt lat="50.402404" lon="3.776474"><time>2026-05-04T15:37:53Z</time></trkpt>
<trkpt lat="50.402264" lon="3.776468"><time>2026-05-04T15:47:53Z</time></trkpt>
<trkpt lat="50.402302" lon="3.776018"><time>2026-05-04T15:57:53Z</time></trkpt>
<trkpt lat="50.402374" lon="3.774692"><time>2026-05-04T16:07:53Z</time></trkpt>
</trkseg>
</trk>
<trk>
<name>hdodo62</name>
<cmt>q</cmt>
<desc>Dour Sentier n°62 </desc>
<link href="https://chemins.be/dour/sentier/62"/><trkseg>
<trkpt lat="50.390587" lon="3.777612"><time>2026-05-04T15:17:53Z</time></trkpt>
<trkpt lat="50.389256" lon="3.778549"><time>2026-05-04T15:27:53Z</time></trkpt>
<trkpt lat="50.388723" lon="3.778749"><time>2026-05-04T15:37:53Z</time></trkpt>
<trkpt lat="50.388234" lon="3.779887"><time>2026-05-04T15:47:53Z</time></trkpt>
<trkpt lat="50.387385" lon="3.779930"><time>2026-05-04T15:57:53Z</time></trkpt>
<trkpt lat="50.386729" lon="3.780724"><time>2026-05-04T16:07:53Z</time></trkpt>
<trkpt lat="50.385073" lon="3.780767"><time>2026-05-04T16:17:53Z</time></trkpt>
<trkpt lat="50.383459" lon="3.782784"><time>2026-05-04T16:27:53Z</time></trkpt>
</trkseg>
</trk>
<trk>
<name>hdodo63</name>
<cmt>r</cmt>
<desc>Dour Sentier n°63 Avenue Victor Regnart</desc>
<link href="https://chemins.be/dour/sentier/63"/><trkseg>
<trkpt lat="50.394102" lon="3.776711"><time>2026-05-04T15:17:53Z</time></trkpt>
<trkpt lat="50.391831" lon="3.773968"><time>2026-05-04T15:27:53Z</time></trkpt>
<trkpt lat="50.390757" lon="3.772672"><time>2026-05-04T15:37:53Z</time></trkpt>
</trkseg>
</trk>
<trk>
<name>hdodo64</name>
<cmt>v</cmt>
<desc>Dour Sentier n°64 Sentier de Warquignies</desc>
<link href="https://chemins.be/dour/sentier/64"/><trkseg>
<trkpt lat="50.395037" lon="3.793387"><time>2026-05-04T15:17:53Z</time></trkpt>
<trkpt lat="50.395130" lon="3.793948"><time>2026-05-04T15:27:53Z</time></trkpt>
<trkpt lat="50.394881" lon="3.796258"><time>2026-05-04T15:37:53Z</time></trkpt>
<trkpt lat="50.394648" lon="3.798244"><time>2026-05-04T15:47:53Z</time></trkpt>
<trkpt lat="50.394768" lon="3.798833"><time>2026-05-04T15:57:53Z</time></trkpt>
<trkpt lat="50.394871" lon="3.799760"><time>2026-05-04T16:07:53Z</time></trkpt>
<trkpt lat="50.394926" lon="3.799984"><time>2026-05-04T16:17:53Z</time></trkpt>
<trkpt lat="50.395218" lon="3.800797"><time>2026-05-04T16:27:53Z</time></trkpt>
<trkpt lat="50.394392" lon="3.802930"><time>2026-05-04T16:37:53Z</time></trkpt>
<trkpt lat="50.394152" lon="3.803411"><time>2026-05-04T16:47:53Z</time></trkpt>
<trkpt lat="50.394063" lon="3.803637"><time>2026-05-04T16:57:53Z</time></trkpt>
<trkpt lat="50.394055" lon="3.803806"><time>2026-05-04T17:07:53Z</time></trkpt>
<trkpt lat="50.394128" lon="3.804143"><time>2026-05-04T17:17:53Z</time></trkpt>
<trkpt lat="50.394718" lon="3.810943"><time>2026-05-04T17:27:53Z</time></trkpt>
<trkpt lat="50.394889" lon="3.812713"><time>2026-05-04T17:37:53Z</time></trkpt>
</trkseg>
</trk>
<trk>
<name>hdodo65</name>
<cmt>v</cmt>
<desc>Dour Sentier n°65 </desc>
<link href="https://chemins.be/dour/sentier/65"/><trkseg>
<trkpt lat="50.402521" lon="3.793867"><time>2026-05-04T15:17:53Z</time></trkpt>
<trkpt lat="50.402249" lon="3.793323"><time>2026-05-04T15:27:53Z</time></trkpt>
</trkseg></trk>
<trk>
<name>hdodo65</name>
<cmt>d</cmt>
<desc>Dour Sentier n°65 </desc>
<link href="https://chemins.be/dour/sentier/65"/><trkseg>
<trkpt lat="50.402249" lon="3.793323"><time>2026-05-04T15:27:53Z</time></trkpt>
<trkpt lat="50.401667" lon="3.792163"><time>2026-05-04T15:37:53Z</time></trkpt>
</trkseg></trk>
<trk>
<name>hdodo65</name>
<cmt>v</cmt>
<desc>Dour Sentier n°65 </desc>
<link href="https://chemins.be/dour/sentier/65"/><trkseg>
<trkpt lat="50.401667" lon="3.792163"><time>2026-05-04T15:37:53Z</time></trkpt>
<trkpt lat="50.401228" lon="3.791614"><time>2026-05-04T15:47:53Z</time></trkpt>
<trkpt lat="50.401071" lon="3.791227"><time>2026-05-04T15:57:53Z</time></trkpt>
</trkseg>
</trk>
<trk>
<name>hdodo66</name>
<cmt>q</cmt>
<desc>Dour Sentier n°66 </desc>
<link href="https://chemins.be/dour/sentier/66"/><trkseg>
<trkpt lat="50.407439" lon="3.791377"><time>2026-05-04T15:17:53Z</time></trkpt>
<trkpt lat="50.407324" lon="3.791177"><time>2026-05-04T15:27:53Z</time></trkpt>
<trkpt lat="50.406724" lon="3.790668"><time>2026-05-04T15:37:53Z</time></trkpt>
</trkseg></trk>
<trk>
<name>hdodo66</name>
<cmt>v</cmt>
<desc>Dour Sentier n°66 </desc>
<link href="https://chemins.be/dour/sentier/66"/><trkseg>
<trkpt lat="50.406724" lon="3.790668"><time>2026-05-04T15:37:53Z</time></trkpt>
<trkpt lat="50.406323" lon="3.790388"><time>2026-05-04T15:47:53Z</time></trkpt>
</trkseg></trk>
<trk>
<name>hdodo66</name>
<cmt>q</cmt>
<desc>Dour Sentier n°66 </desc>
<link href="https://chemins.be/dour/sentier/66"/><trkseg>
<trkpt lat="50.406323" lon="3.790388"><time>2026-05-04T15:47:53Z</time></trkpt>
<trkpt lat="50.405759" lon="3.789744"><time>2026-05-04T15:57:53Z</time></trkpt>
</trkseg>
</trk>
<trk>
<name>hdodo67</name>
<cmt>r</cmt>
<desc>Dour Sentier n°67 Rue des Wallants</desc>
<link href="https://chemins.be/dour/sentier/67"/><trkseg>
<trkpt lat="50.404292" lon="3.788829"><time>2026-05-04T15:17:53Z</time></trkpt>
<trkpt lat="50.405612" lon="3.790503"><time>2026-05-04T15:27:53Z</time></trkpt>
</trkseg></trk>
<trk>
<name>hdodo67</name>
<cmt>q</cmt>
<desc>Dour Sentier n°67 Rue des Wallants</desc>
<link href="https://chemins.be/dour/sentier/67"/><trkseg>
<trkpt lat="50.405612" lon="3.790503"><time>2026-05-04T15:27:53Z</time></trkpt>
<trkpt lat="50.406323" lon="3.792520"><time>2026-05-04T15:37:53Z</time></trkpt>
</trkseg>
</trk>
<trk>
<name>hdodo68</name>
<cmt>r</cmt>
<desc>Dour Sentier n°68 Rue Fauvette / Rue du Rossignol / Rue Pont Saint-Jean</desc>
<link href="https://chemins.be/dour/sentier/68"/><trkseg>
<trkpt lat="50.394376" lon="3.781195"><time>2026-05-04T15:17:53Z</time></trkpt>
<trkpt lat="50.395190" lon="3.782575"><time>2026-05-04T15:27:53Z</time></trkpt>
<trkpt lat="50.395518" lon="3.783113"><time>2026-05-04T15:37:53Z</time></trkpt>
<trkpt lat="50.395846" lon="3.783100"><time>2026-05-04T15:47:53Z</time></trkpt>
<trkpt lat="50.395870" lon="3.782772"><time>2026-05-04T15:57:53Z</time></trkpt>
<trkpt lat="50.396253" lon="3.781768"><time>2026-05-04T16:07:53Z</time></trkpt>
<trkpt lat="50.396427" lon="3.781566"><time>2026-05-04T16:17:53Z</time></trkpt>
</trkseg></trk>
<trk>
<name>hdodo68</name>
<cmt>v</cmt>
<desc>Dour Sentier n°68 Rue Fauvette / Rue du Rossignol / Rue Pont Saint-Jean</desc>
<link href="https://chemins.be/dour/sentier/68"/><trkseg>
<trkpt lat="50.396427" lon="3.781566"><time>2026-05-04T16:17:53Z</time></trkpt>
<trkpt lat="50.396700" lon="3.781824"><time>2026-05-04T16:27:53Z</time></trkpt>
</trkseg>
</trk>
<trk>
<name>hdodo69</name>
<cmt>v</cmt>
<desc>Dour Sentier n°69 Rue Baille de Fer / Rue du Derode / Rue Cauderloo</desc>
<link href="https://chemins.be/dour/sentier/69"/><trkseg>
<trkpt lat="50.398228" lon="3.821100"><time>2026-05-04T15:17:53Z</time></trkpt>
<trkpt lat="50.398031" lon="3.820642"><time>2026-05-04T15:27:53Z</time></trkpt>
</trkseg></trk>
<trk>
<name>hdodo69</name>
<cmt>r</cmt>
<desc>Dour Sentier n°69 Rue Baille de Fer / Rue du Derode / Rue Cauderloo</desc>
<link href="https://chemins.be/dour/sentier/69"/><trkseg>
<trkpt lat="50.398031" lon="3.820642"><time>2026-05-04T15:27:53Z</time></trkpt>
<trkpt lat="50.397491" lon="3.821308"><time>2026-05-04T15:37:53Z</time></trkpt>
<trkpt lat="50.395757" lon="3.819440"><time>2026-05-04T15:47:53Z</time></trkpt>
</trkseg></trk>
<trk>
<name>hdodo69</name>
<cmt>q</cmt>
<desc>Dour Sentier n°69 Rue Baille de Fer / Rue du Derode / Rue Cauderloo</desc>
<link href="https://chemins.be/dour/sentier/69"/><trkseg>
<trkpt lat="50.395757" lon="3.819440"><time>2026-05-04T15:47:53Z</time></trkpt>
<trkpt lat="50.392486" lon="3.816018"><time>2026-05-04T15:57:53Z</time></trkpt>
<trkpt lat="50.391727" lon="3.815254"><time>2026-05-04T16:07:53Z</time></trkpt>
</trkseg></trk>
<trk>
<name>hdodo69</name>
<cmt>v</cmt>
<desc>Dour Sentier n°69 Rue Baille de Fer / Rue du Derode / Rue Cauderloo</desc>
<link href="https://chemins.be/dour/sentier/69"/><trkseg>
<trkpt lat="50.391727" lon="3.815254"><time>2026-05-04T16:07:53Z</time></trkpt>
<trkpt lat="50.389171" lon="3.812780"><time>2026-05-04T16:17:53Z</time></trkpt>
<trkpt lat="50.385939" lon="3.809665"><time>2026-05-04T16:27:53Z</time></trkpt>
<trkpt lat="50.385409" lon="3.809690"><time>2026-05-04T16:37:53Z</time></trkpt>
</trkseg></trk>
<trk>
<name>hdodo69</name>
<cmt>r</cmt>
<desc>Dour Sentier n°69 Rue Baille de Fer / Rue du Derode / Rue Cauderloo</desc>
<link href="https://chemins.be/dour/sentier/69"/><trkseg>
<trkpt lat="50.385409" lon="3.809690"><time>2026-05-04T16:37:53Z</time></trkpt>
<trkpt lat="50.385372" lon="3.809874"><time>2026-05-04T16:47:53Z</time></trkpt>
<trkpt lat="50.385246" lon="3.809918"><time>2026-05-04T16:57:53Z</time></trkpt>
<trkpt lat="50.384998" lon="3.809901"><time>2026-05-04T17:07:53Z</time></trkpt>
</trkseg></trk>
<trk>
<name>hdodo69</name>
<cmt>v</cmt>
<desc>Dour Sentier n°69 Rue Baille de Fer / Rue du Derode / Rue Cauderloo</desc>
<link href="https://chemins.be/dour/sentier/69"/><trkseg>
<trkpt lat="50.384998" lon="3.809901"><time>2026-05-04T17:07:53Z</time></trkpt>
<trkpt lat="50.384847" lon="3.809676"><time>2026-05-04T17:17:53Z</time></trkpt>
<trkpt lat="50.384676" lon="3.809582"><time>2026-05-04T17:27:53Z</time></trkpt>
</trkseg></trk>
<trk>
<name>hdodo69</name>
<cmt>q</cmt>
<desc>Dour Sentier n°69 Rue Baille de Fer / Rue du Derode / Rue Cauderloo</desc>
<link href="https://chemins.be/dour/sentier/69"/><trkseg>
<trkpt lat="50.384676" lon="3.809582"><time>2026-05-04T17:27:53Z</time></trkpt>
<trkpt lat="50.384012" lon="3.809590"><time>2026-05-04T17:37:53Z</time></trkpt>
<trkpt lat="50.383685" lon="3.809757"><time>2026-05-04T17:47:53Z</time></trkpt>
</trkseg>
</trk>
<trk>
<name>hdodo7</name>
<cmt>d</cmt>
<desc>Dour Chemin n°7 Rue Pont à Cavains / Rue de Bavay / Rue de l'Avaleresse - Rue de Bavay / Rue Sauwartan / Rue du Cimetière</desc>
<link href="https://chemins.be/dour/chemin/7"/><trkseg>
<trkpt lat="50.399774" lon="3.800112"><time>2026-05-04T15:17:53Z</time></trkpt>
<trkpt lat="50.399700" lon="3.802455"><time>2026-05-04T15:27:53Z</time></trkpt>
<trkpt lat="50.400216" lon="3.803276"><time>2026-05-04T15:37:53Z</time></trkpt>
</trkseg></trk>
<trk>
<name>hdodo7</name>
<cmt>r</cmt>
<desc>Dour Chemin n°7 Rue Pont à Cavains / Rue de Bavay / Rue de l'Avaleresse - Rue de Bavay / Rue Sauwartan / Rue du Cimetière</desc>
<link href="https://chemins.be/dour/chemin/7"/><trkseg>
<trkpt lat="50.400216" lon="3.803276"><time>2026-05-04T15:37:53Z</time></trkpt>
<trkpt lat="50.400614" lon="3.804896"><time>2026-05-04T15:47:53Z</time></trkpt>
<trkpt lat="50.400901" lon="3.806231"><time>2026-05-04T15:57:53Z</time></trkpt>
</trkseg></trk>
<trk>
<name>hdodo7</name>
<cmt>d</cmt>
<desc>Dour Chemin n°7 Rue Pont à Cavains / Rue de Bavay / Rue de l'Avaleresse - Rue de Bavay / Rue Sauwartan / Rue du Cimetière</desc>
<link href="https://chemins.be/dour/chemin/7"/><trkseg>
<trkpt lat="50.400901" lon="3.806231"><time>2026-05-04T15:57:53Z</time></trkpt>
<trkpt lat="50.401468" lon="3.807407"><time>2026-05-04T16:07:53Z</time></trkpt>
<trkpt lat="50.401477" lon="3.807665"><time>2026-05-04T16:17:53Z</time></trkpt>
</trkseg></trk>
<trk>
<name>hdodo7</name>
<cmt>v</cmt>
<desc>Dour Chemin n°7 Rue Pont à Cavains / Rue de Bavay / Rue de l'Avaleresse - Rue de Bavay / Rue Sauwartan / Rue du Cimetière</desc>
<link href="https://chemins.be/dour/chemin/7"/><trkseg>
<trkpt lat="50.401477" lon="3.807665"><time>2026-05-04T16:17:53Z</time></trkpt>
<trkpt lat="50.401434" lon="3.808153"><time>2026-05-04T16:27:53Z</time></trkpt>
<trkpt lat="50.401420" lon="3.808271"><time>2026-05-04T16:37:53Z</time></trkpt>
<trkpt lat="50.400897" lon="3.809607"><time>2026-05-04T16:47:53Z</time></trkpt>
</trkseg></trk>
<trk>
<name>hdodo7</name>
<cmt>r</cmt>
<desc>Dour Chemin n°7 Rue Pont à Cavains / Rue de Bavay / Rue de l'Avaleresse - Rue de Bavay / Rue Sauwartan / Rue du Cimetière</desc>
<link href="https://chemins.be/dour/chemin/7"/><trkseg>
<trkpt lat="50.400897" lon="3.809607"><time>2026-05-04T16:47:53Z</time></trkpt>
<trkpt lat="50.399881" lon="3.809488"><time>2026-05-04T16:57:53Z</time></trkpt>
<trkpt lat="50.394912" lon="3.812926"><time>2026-05-04T17:07:53Z</time></trkpt>
<trkpt lat="50.392847" lon="3.815104"><time>2026-05-04T17:17:53Z</time></trkpt>
</trkseg></trk>
<trk>
<name>hdodo7</name>
<cmt>v</cmt>
<desc>Dour Chemin n°7 Rue Pont à Cavains / Rue de Bavay / Rue de l'Avaleresse - Rue de Bavay / Rue Sauwartan / Rue du Cimetière</desc>
<link href="https://chemins.be/dour/chemin/7"/><trkseg>
<trkpt lat="50.392847" lon="3.815104"><time>2026-05-04T17:17:53Z</time></trkpt>
<trkpt lat="50.392105" lon="3.815689"><time>2026-05-04T17:27:53Z</time></trkpt>
<trkpt lat="50.391462" lon="3.816569"><time>2026-05-04T17:37:53Z</time></trkpt>
<trkpt lat="50.391298" lon="3.818071"><time>2026-05-04T17:47:53Z</time></trkpt>
<trkpt lat="50.390764" lon="3.819809"><time>2026-05-04T17:57:53Z</time></trkpt>
<trkpt lat="50.390757" lon="3.821311"><time>2026-05-04T18:07:53Z</time></trkpt>
<trkpt lat="50.390668" lon="3.822405"><time>2026-05-04T18:17:53Z</time></trkpt>
<trkpt lat="50.389903" lon="3.822684"><time>2026-05-04T18:27:53Z</time></trkpt>
<trkpt lat="50.389533" lon="3.823242"><time>2026-05-04T18:37:53Z</time></trkpt>
<trkpt lat="50.389278" lon="3.824406"><time>2026-05-04T18:47:53Z</time></trkpt>
<trkpt lat="50.388973" lon="3.824986"><time>2026-05-04T18:57:53Z</time></trkpt>
<trkpt lat="50.388678" lon="3.825377"><time>2026-05-04T19:07:53Z</time></trkpt>
<trkpt lat="50.388097" lon="3.825538"><time>2026-05-04T19:17:53Z</time></trkpt>
<trkpt lat="50.385579" lon="3.824851"><time>2026-05-04T19:27:53Z</time></trkpt>
</trkseg>
</trk>
<trk>
<name>hdodo70</name>
<cmt>v</cmt>
<desc>Dour Sentier n°70 Voie de Sart / Voie de Sars</desc>
<link href="https://chemins.be/dour/sentier/70"/><trkseg>
<trkpt lat="50.383283" lon="3.814846"><time>2026-05-04T15:17:53Z</time></trkpt>
<trkpt lat="50.383284" lon="3.814972"><time>2026-05-04T15:27:53Z</time></trkpt>
<trkpt lat="50.383151" lon="3.815438"><time>2026-05-04T15:37:53Z</time></trkpt>
<trkpt lat="50.383134" lon="3.815564"><time>2026-05-04T15:47:53Z</time></trkpt>
<trkpt lat="50.383265" lon="3.816716"><time>2026-05-04T15:57:53Z</time></trkpt>
<trkpt lat="50.383285" lon="3.817067"><time>2026-05-04T16:07:53Z</time></trkpt>
<trkpt lat="50.383282" lon="3.817221"><time>2026-05-04T16:17:53Z</time></trkpt>
<trkpt lat="50.383222" lon="3.817237"><time>2026-05-04T16:27:53Z</time></trkpt>
<trkpt lat="50.382961" lon="3.817474"><time>2026-05-04T16:37:53Z</time></trkpt>
</trkseg></trk>
<trk>
<name>hdodo70</name>
<cmt>r</cmt>
<desc>Dour Sentier n°70 Voie de Sart / Voie de Sars</desc>
<link href="https://chemins.be/dour/sentier/70"/><trkseg>
<trkpt lat="50.382961" lon="3.817474"><time>2026-05-04T16:37:53Z</time></trkpt>
<trkpt lat="50.382932" lon="3.819047"><time>2026-05-04T16:47:53Z</time></trkpt>
<trkpt lat="50.382528" lon="3.820453"><time>2026-05-04T16:57:53Z</time></trkpt>
<trkpt lat="50.382439" lon="3.820453"><time>2026-05-04T17:07:53Z</time></trkpt>
</trkseg></trk>
<trk>
<name>hdodo70</name>
<cmt>v</cmt>
<desc>Dour Sentier n°70 Voie de Sart / Voie de Sars</desc>
<link href="https://chemins.be/dour/sentier/70"/><trkseg>
<trkpt lat="50.382439" lon="3.820453"><time>2026-05-04T17:07:53Z</time></trkpt>
<trkpt lat="50.382086" lon="3.821944"><time>2026-05-04T17:17:53Z</time></trkpt>
<trkpt lat="50.381809" lon="3.822411"><time>2026-05-04T17:27:53Z</time></trkpt>
<trkpt lat="50.381590" lon="3.823596"><time>2026-05-04T17:37:53Z</time></trkpt>
<trkpt lat="50.381339" lon="3.826421"><time>2026-05-04T17:47:53Z</time></trkpt>
</trkseg></trk>
<trk>
<name>hdodo70</name>
<cmt>d</cmt>
<desc>Dour Sentier n°70 Voie de Sart / Voie de Sars</desc>
<link href="https://chemins.be/dour/sentier/70"/><trkseg>
<trkpt lat="50.381339" lon="3.826421"><time>2026-05-04T17:47:53Z</time></trkpt>
<trkpt lat="50.381262" lon="3.827249"><time>2026-05-04T17:57:53Z</time></trkpt>
<trkpt lat="50.381286" lon="3.829948"><time>2026-05-04T18:07:53Z</time></trkpt>
</trkseg></trk>
<trk>
<name>hdodo70</name>
<cmt>v</cmt>
<desc>Dour Sentier n°70 Voie de Sart / Voie de Sars</desc>
<link href="https://chemins.be/dour/sentier/70"/><trkseg>
<trkpt lat="50.381286" lon="3.829948"><time>2026-05-04T18:07:53Z</time></trkpt>
<trkpt lat="50.380709" lon="3.832887"><time>2026-05-04T18:17:53Z</time></trkpt>
<trkpt lat="50.380826" lon="3.833163"><time>2026-05-04T18:27:53Z</time></trkpt>
<trkpt lat="50.380452" lon="3.835231"><time>2026-05-04T18:37:53Z</time></trkpt>
<trkpt lat="50.380161" lon="3.835866"><time>2026-05-04T18:47:53Z</time></trkpt>
</trkseg></trk>
<trk>
<name>hdodo70</name>
<cmt>q</cmt>
<desc>Dour Sentier n°70 Voie de Sart / Voie de Sars</desc>
<link href="https://chemins.be/dour/sentier/70"/><trkseg>
<trkpt lat="50.380161" lon="3.835866"><time>2026-05-04T18:47:53Z</time></trkpt>
<trkpt lat="50.379417" lon="3.837531"><time>2026-05-04T18:57:53Z</time></trkpt>
<trkpt lat="50.379105" lon="3.838526"><time>2026-05-04T19:07:53Z</time></trkpt>
<trkpt lat="50.378257" lon="3.839179"><time>2026-05-04T19:17:53Z</time></trkpt>
</trkseg>
</trk>
<trk>
<name>hdodo71</name>
<cmt>v</cmt>
<desc>Dour Sentier n°71 </desc>
<link href="https://chemins.be/dour/sentier/71"/><trkseg>
<trkpt lat="50.381514" lon="3.814186"><time>2026-05-04T15:17:53Z</time></trkpt>
<trkpt lat="50.381843" lon="3.814152"><time>2026-05-04T15:27:53Z</time></trkpt>
</trkseg></trk>
<trk>
<name>hdodo71</name>
<cmt>d</cmt>
<desc>Dour Sentier n°71 </desc>
<link href="https://chemins.be/dour/sentier/71"/><trkseg>
<trkpt lat="50.381843" lon="3.814152"><time>2026-05-04T15:27:53Z</time></trkpt>
<trkpt lat="50.381900" lon="3.816752"><time>2026-05-04T15:37:53Z</time></trkpt>
<trkpt lat="50.382040" lon="3.817847"><time>2026-05-04T15:47:53Z</time></trkpt>
</trkseg></trk>
<trk>
<name>hdodo71</name>
<cmt>q</cmt>
<desc>Dour Sentier n°71 </desc>
<link href="https://chemins.be/dour/sentier/71"/><trkseg>
<trkpt lat="50.382040" lon="3.817847"><time>2026-05-04T15:47:53Z</time></trkpt>
<trkpt lat="50.382133" lon="3.819593"><time>2026-05-04T15:57:53Z</time></trkpt>
</trkseg>
</trk>
<trk>
<name>hdodo72</name>
<cmt>v</cmt>
<desc>Dour Sentier n°72 Ruelle Modeste Richard / Rue du Cimetière</desc>
<link href="https://chemins.be/dour/sentier/72"/><trkseg>
<trkpt lat="50.379800" lon="3.816743"><time>2026-05-04T15:17:53Z</time></trkpt>
<trkpt lat="50.380309" lon="3.816691"><time>2026-05-04T15:27:53Z</time></trkpt>
<trkpt lat="50.380900" lon="3.817335"><time>2026-05-04T15:37:53Z</time></trkpt>
<trkpt lat="50.380910" lon="3.817429"><time>2026-05-04T15:47:53Z</time></trkpt>
<trkpt lat="50.380944" lon="3.817601"><time>2026-05-04T15:57:53Z</time></trkpt>
<trkpt lat="50.381271" lon="3.818087"><time>2026-05-04T16:07:53Z</time></trkpt>
</trkseg></trk>
<trk>
<name>hdodo72</name>
<cmt>q</cmt>
<desc>Dour Sentier n°72 Ruelle Modeste Richard / Rue du Cimetière</desc>
<link href="https://chemins.be/dour/sentier/72"/><trkseg>
<trkpt lat="50.381271" lon="3.818087"><time>2026-05-04T16:07:53Z</time></trkpt>
<trkpt lat="50.382510" lon="3.820315"><time>2026-05-04T16:17:53Z</time></trkpt>
</trkseg></trk>
<trk>
<name>hdodo72</name>
<cmt>r</cmt>
<desc>Dour Sentier n°72 Ruelle Modeste Richard / Rue du Cimetière</desc>
<link href="https://chemins.be/dour/sentier/72"/><trkseg>
<trkpt lat="50.382510" lon="3.820315"><time>2026-05-04T16:17:53Z</time></trkpt>
<trkpt lat="50.384286" lon="3.823650"><time>2026-05-04T16:27:53Z</time></trkpt>
<trkpt lat="50.386253" lon="3.825122"><time>2026-05-04T16:37:53Z</time></trkpt>
<trkpt lat="50.388311" lon="3.825568"><time>2026-05-04T16:47:53Z</time></trkpt>
</trkseg></trk>
<trk>
<name>hdodo72</name>
<cmt>q</cmt>
<desc>Dour Sentier n°72 Ruelle Modeste Richard / Rue du Cimetière</desc>
<link href="https://chemins.be/dour/sentier/72"/><trkseg>
<trkpt lat="50.388311" lon="3.825568"><time>2026-05-04T16:47:53Z</time></trkpt>
<trkpt lat="50.389980" lon="3.826032"><time>2026-05-04T16:57:53Z</time></trkpt>
<trkpt lat="50.391162" lon="3.827003"><time>2026-05-04T17:07:53Z</time></trkpt>
<trkpt lat="50.393115" lon="3.827346"><time>2026-05-04T17:17:53Z</time></trkpt>
<trkpt lat="50.396092" lon="3.825779"><time>2026-05-04T17:27:53Z</time></trkpt>
</trkseg>
</trk>
<trk>
<name>hdodo73</name>
<cmt>q</cmt>
<desc>Dour Sentier n°73 Voie de Sars</desc>
<link href="https://chemins.be/dour/sentier/73"/><trkseg>
<trkpt lat="50.385957" lon="3.812597"><time>2026-05-04T15:17:53Z</time></trkpt>
<trkpt lat="50.385607" lon="3.813799"><time>2026-05-04T15:27:53Z</time></trkpt>
<trkpt lat="50.385136" lon="3.813893"><time>2026-05-04T15:37:53Z</time></trkpt>
<trkpt lat="50.385235" lon="3.815472"><time>2026-05-04T15:47:53Z</time></trkpt>
<trkpt lat="50.383278" lon="3.817231"><time>2026-05-04T15:57:53Z</time></trkpt>
</trkseg></trk>
<trk>
<name>hdodo73</name>
<cmt>v</cmt>
<desc>Dour Sentier n°73 Voie de Sars</desc>
<link href="https://chemins.be/dour/sentier/73"/><trkseg>
<trkpt lat="50.383278" lon="3.817231"><time>2026-05-04T15:57:53Z</time></trkpt>
<trkpt lat="50.382961" lon="3.817465"><time>2026-05-04T16:07:53Z</time></trkpt>
</trkseg></trk>
<trk>
<name>hdodo73</name>
<cmt>d</cmt>
<desc>Dour Sentier n°73 Voie de Sars</desc>
<link href="https://chemins.be/dour/sentier/73"/><trkseg>
<trkpt lat="50.382961" lon="3.817465"><time>2026-05-04T16:07:53Z</time></trkpt>
<trkpt lat="50.382016" lon="3.817858"><time>2026-05-04T16:17:53Z</time></trkpt>
<trkpt lat="50.381251" lon="3.818176"><time>2026-05-04T16:27:53Z</time></trkpt>
</trkseg></trk>
<trk>
<name>hdodo73</name>
<cmt>q</cmt>
<desc>Dour Sentier n°73 Voie de Sars</desc>
<link href="https://chemins.be/dour/sentier/73"/><trkseg>
<trkpt lat="50.381251" lon="3.818176"><time>2026-05-04T16:27:53Z</time></trkpt>
<trkpt lat="50.380025" lon="3.819721"><time>2026-05-04T16:37:53Z</time></trkpt>
</trkseg>
</trk>
<trk>
<name>hdodo74</name>
<cmt>b</cmt>
<desc>Dour Sentier n°74 </desc>
<link href="https://chemins.be/dour/sentier/74"/><trkseg>
<trkpt lat="50.379148" lon="3.826665"><time>2026-05-04T15:17:53Z</time></trkpt>
<trkpt lat="50.380287" lon="3.826874"><time>2026-05-04T15:27:53Z</time></trkpt>
</trkseg></trk>
<trk>
<name>hdodo74</name>
<cmt>d</cmt>
<desc>Dour Sentier n°74 </desc>
<link href="https://chemins.be/dour/sentier/74"/><trkseg>
<trkpt lat="50.380287" lon="3.826874"><time>2026-05-04T15:27:53Z</time></trkpt>
<trkpt lat="50.381358" lon="3.825999"><time>2026-05-04T15:37:53Z</time></trkpt>
<trkpt lat="50.385306" lon="3.824787"><time>2026-05-04T15:47:53Z</time></trkpt>
</trkseg>
</trk>
<trk>
<name>hdodo75</name>
<cmt>q</cmt>
<desc>Dour Sentier n°75 </desc>
<link href="https://chemins.be/dour/sentier/75"/><trkseg>
<trkpt lat="50.380904" lon="3.832289"><time>2026-05-04T15:17:53Z</time></trkpt>
<trkpt lat="50.382382" lon="3.831602"><time>2026-05-04T15:27:53Z</time></trkpt>
</trkseg></trk>
<trk>
<name>hdodo75</name>
<cmt>v</cmt>
<desc>Dour Sentier n°75 </desc>
<link href="https://chemins.be/dour/sentier/75"/><trkseg>
<trkpt lat="50.382382" lon="3.831602"><time>2026-05-04T15:27:53Z</time></trkpt>
<trkpt lat="50.384396" lon="3.829954"><time>2026-05-04T15:37:53Z</time></trkpt>
<trkpt lat="50.385603" lon="3.828444"><time>2026-05-04T15:47:53Z</time></trkpt>
</trkseg></trk>
<trk>
<name>hdodo75</name>
<cmt>q</cmt>
<desc>Dour Sentier n°75 </desc>
<link href="https://chemins.be/dour/sentier/75"/><trkseg>
<trkpt lat="50.385603" lon="3.828444"><time>2026-05-04T15:47:53Z</time></trkpt>
<trkpt lat="50.386455" lon="3.827788"><time>2026-05-04T15:57:53Z</time></trkpt>
<trkpt lat="50.386802" lon="3.827521"><time>2026-05-04T16:07:53Z</time></trkpt>
<trkpt lat="50.387656" lon="3.826959"><time>2026-05-04T16:17:53Z</time></trkpt>
<trkpt lat="50.388906" lon="3.826869"><time>2026-05-04T16:27:53Z</time></trkpt>
<trkpt lat="50.390463" lon="3.827173"><time>2026-05-04T16:37:53Z</time></trkpt>
<trkpt lat="50.391111" lon="3.826984"><time>2026-05-04T16:47:53Z</time></trkpt>
</trkseg>
</trk>
<trk>
<name>hdodo76</name>
<cmt>q</cmt>
<desc>Dour Sentier n°76 </desc>
<link href="https://chemins.be/dour/sentier/76"/><trkseg>
<trkpt lat="50.384715" lon="3.837707"><time>2026-05-04T15:17:53Z</time></trkpt>
<trkpt lat="50.384565" lon="3.837750"><time>2026-05-04T15:27:53Z</time></trkpt>
<trkpt lat="50.383938" lon="3.837655"><time>2026-05-04T15:37:53Z</time></trkpt>
<trkpt lat="50.382395" lon="3.837548"><time>2026-05-04T15:47:53Z</time></trkpt>
<trkpt lat="50.381552" lon="3.836655"><time>2026-05-04T15:57:53Z</time></trkpt>
<trkpt lat="50.381174" lon="3.836621"><time>2026-05-04T16:07:53Z</time></trkpt>
<trkpt lat="50.380183" lon="3.835823"><time>2026-05-04T16:17:53Z</time></trkpt>
</trkseg>
</trk>
<trk>
<name>hdodo77</name>
<cmt>v</cmt>
<desc>Dour Sentier n°77 </desc>
<link href="https://chemins.be/dour/sentier/77"/><trkseg>
<trkpt lat="50.378322" lon="3.836715"><time>2026-05-04T15:17:53Z</time></trkpt>
<trkpt lat="50.379370" lon="3.837702"><time>2026-05-04T15:27:53Z</time></trkpt>
</trkseg></trk>
<trk>
<name>hdodo77</name>
<cmt>q</cmt>
<desc>Dour Sentier n°77 </desc>
<link href="https://chemins.be/dour/sentier/77"/><trkseg>
<trkpt lat="50.379370" lon="3.837702"><time>2026-05-04T15:27:53Z</time></trkpt>
<trkpt lat="50.380681" lon="3.838681"><time>2026-05-04T15:37:53Z</time></trkpt>
<trkpt lat="50.381979" lon="3.839308"><time>2026-05-04T15:47:53Z</time></trkpt>
</trkseg>
</trk>
<trk>
<name>hdodo78</name>
<cmt>q</cmt>
<desc>Dour Sentier n°78 </desc>
<link href="https://chemins.be/dour/sentier/78"/><trkseg>
<trkpt lat="50.379160" lon="3.838415"><time>2026-05-04T15:17:53Z</time></trkpt>
<trkpt lat="50.379565" lon="3.838801"><time>2026-05-04T15:27:53Z</time></trkpt>
<trkpt lat="50.380495" lon="3.843814"><time>2026-05-04T15:37:53Z</time></trkpt>
</trkseg>
</trk>
<trk>
<name>hdodo79</name>
<cmt>d</cmt>
<desc>Dour Sentier n°79 </desc>
<link href="https://chemins.be/dour/sentier/79"/><trkseg>
<trkpt lat="50.379600" lon="3.800392"><time>2026-05-04T15:17:53Z</time></trkpt>
<trkpt lat="50.379184" lon="3.801028"><time>2026-05-04T15:27:53Z</time></trkpt>
<trkpt lat="50.379085" lon="3.801248"><time>2026-05-04T15:37:53Z</time></trkpt>
</trkseg></trk>
<trk>
<name>hdodo79</name>
<cmt>b</cmt>
<desc>Dour Sentier n°79 </desc>
<link href="https://chemins.be/dour/sentier/79"/><trkseg>
<trkpt lat="50.379085" lon="3.801248"><time>2026-05-04T15:37:53Z</time></trkpt>
<trkpt lat="50.378653" lon="3.801811"><time>2026-05-04T15:47:53Z</time></trkpt>
<trkpt lat="50.378435" lon="3.801988"><time>2026-05-04T15:57:53Z</time></trkpt>
</trkseg>
</trk>
<trk>
<name>hdodo8</name>
<cmt>v</cmt>
<desc>Dour Chemin n°8 </desc>
<link href="https://chemins.be/dour/chemin/8"/><trkseg>
<trkpt lat="50.379251" lon="3.825431"><time>2026-05-04T15:17:53Z</time></trkpt>
<trkpt lat="50.380024" lon="3.825699"><time>2026-05-04T15:27:53Z</time></trkpt>
<trkpt lat="50.380359" lon="3.826590"><time>2026-05-04T15:37:53Z</time></trkpt>
<trkpt lat="50.380298" lon="3.827169"><time>2026-05-04T15:47:53Z</time></trkpt>
<trkpt lat="50.381016" lon="3.829626"><time>2026-05-04T15:57:53Z</time></trkpt>
</trkseg>
</trk>
<trk>
<name>hdodo80</name>
<cmt>q</cmt>
<desc>Dour Sentier n°80 </desc>
<link href="https://chemins.be/dour/sentier/80"/><trkseg>
<trkpt lat="50.385198" lon="3.829010"><time>2026-05-04T15:17:53Z</time></trkpt>
<trkpt lat="50.386008" lon="3.829302"><time>2026-05-04T15:27:53Z</time></trkpt>
<trkpt lat="50.388011" lon="3.831430"><time>2026-05-04T15:37:53Z</time></trkpt>
</trkseg>
</trk>
<trk>
<name>hdodo81</name>
<cmt>v</cmt>
<desc>Dour Chemin n°81 Chemin des Fours</desc>
<link href="https://chemins.be/dour/chemin/81"/><trkseg>
<trkpt lat="50.407695" lon="3.775170"><time>2026-05-04T15:17:53Z</time></trkpt>
<trkpt lat="50.407653" lon="3.775817"><time>2026-05-04T15:27:53Z</time></trkpt>
</trkseg></trk>
<trk>
<name>hdodo81</name>
<cmt>q</cmt>
<desc>Dour Chemin n°81 Chemin des Fours</desc>
<link href="https://chemins.be/dour/chemin/81"/><trkseg>
<trkpt lat="50.407653" lon="3.775817"><time>2026-05-04T15:27:53Z</time></trkpt>
<trkpt lat="50.407495" lon="3.776579"><time>2026-05-04T15:37:53Z</time></trkpt>
</trkseg></trk>
<trk>
<name>hdodo81</name>
<cmt>v</cmt>
<desc>Dour Chemin n°81 Chemin des Fours</desc>
<link href="https://chemins.be/dour/chemin/81"/><trkseg>
<trkpt lat="50.407495" lon="3.776579"><time>2026-05-04T15:37:53Z</time></trkpt>
<trkpt lat="50.407555" lon="3.777704"><time>2026-05-04T15:47:53Z</time></trkpt>
<trkpt lat="50.407672" lon="3.779630"><time>2026-05-04T15:57:53Z</time></trkpt>
</trkseg>
</trk>
<trk>
<name>hdodo83</name>
<cmt>v</cmt>
<desc>Dour Sentier n°83 Rue de l'Avaleresse - Rue de Bavay</desc>
<link href="https://chemins.be/dour/sentier/83"/><trkseg>
<trkpt lat="50.403693" lon="3.801393"><time>2026-05-04T15:17:53Z</time></trkpt>
<trkpt lat="50.403529" lon="3.801401"><time>2026-05-04T15:27:53Z</time></trkpt>
<trkpt lat="50.403204" lon="3.801869"><time>2026-05-04T15:37:53Z</time></trkpt>
<trkpt lat="50.400850" lon="3.805677"><time>2026-05-04T15:47:53Z</time></trkpt>
<trkpt lat="50.400423" lon="3.807754"><time>2026-05-04T15:57:53Z</time></trkpt>
<trkpt lat="50.399799" lon="3.807823"><time>2026-05-04T16:07:53Z</time></trkpt>
<trkpt lat="50.399526" lon="3.809608"><time>2026-05-04T16:17:53Z</time></trkpt>
</trkseg></trk>
<trk>
<name>hdodo83</name>
<cmt>r</cmt>
<desc>Dour Sentier n°83 Rue de l'Avaleresse - Rue de Bavay</desc>
<link href="https://chemins.be/dour/sentier/83"/><trkseg>
<trkpt lat="50.399526" lon="3.809608"><time>2026-05-04T16:17:53Z</time></trkpt>
<trkpt lat="50.398760" lon="3.810157"><time>2026-05-04T16:27:53Z</time></trkpt>
</trkseg></trk>
<trk>
<name>hdodo83</name>
<cmt>q</cmt>
<desc>Dour Sentier n°83 Rue de l'Avaleresse - Rue de Bavay</desc>
<link href="https://chemins.be/dour/sentier/83"/><trkseg>
<trkpt lat="50.398760" lon="3.810157"><time>2026-05-04T16:27:53Z</time></trkpt>
<trkpt lat="50.396748" lon="3.810441"><time>2026-05-04T16:37:53Z</time></trkpt>
</trkseg></trk>
<trk>
<name>hdodo83</name>
<cmt>v</cmt>
<desc>Dour Sentier n°83 Rue de l'Avaleresse - Rue de Bavay</desc>
<link href="https://chemins.be/dour/sentier/83"/><trkseg>
<trkpt lat="50.396748" lon="3.810441"><time>2026-05-04T16:37:53Z</time></trkpt>
<trkpt lat="50.394763" lon="3.810928"><time>2026-05-04T16:47:53Z</time></trkpt>
<trkpt lat="50.393632" lon="3.811237"><time>2026-05-04T16:57:53Z</time></trkpt>
<trkpt lat="50.389117" lon="3.812724"><time>2026-05-04T17:07:53Z</time></trkpt>
<trkpt lat="50.386819" lon="3.813483"><time>2026-05-04T17:17:53Z</time></trkpt>
<trkpt lat="50.386465" lon="3.812826"><time>2026-05-04T17:27:53Z</time></trkpt>
</trkseg>
</trk>
<trk>
<name>hdodo84</name>
<cmt>v</cmt>
<desc>Dour Sentier n°84 </desc>
<link href="https://chemins.be/dour/sentier/84"/><trkseg>
<trkpt lat="50.400868" lon="3.809512"><time>2026-05-04T15:17:53Z</time></trkpt>
<trkpt lat="50.400113" lon="3.807946"><time>2026-05-04T15:27:53Z</time></trkpt>
<trkpt lat="50.399896" lon="3.807719"><time>2026-05-04T15:37:53Z</time></trkpt>
</trkseg>
</trk>
<trk>
<name>hdodo85</name>
<cmt>q</cmt>
<desc>Dour Sentier n°85 </desc>
<link href="https://chemins.be/dour/sentier/85"/><trkseg>
<trkpt lat="50.402639" lon="3.795356"><time>2026-05-04T15:17:53Z</time></trkpt>
<trkpt lat="50.401337" lon="3.797141"><time>2026-05-04T15:27:53Z</time></trkpt>
<trkpt lat="50.400626" lon="3.798257"><time>2026-05-04T15:37:53Z</time></trkpt>
<trkpt lat="50.399652" lon="3.799304"><time>2026-05-04T15:47:53Z</time></trkpt>
</trkseg>
</trk>
<trk>
<name>hdodo86</name>
<cmt>v</cmt>
<desc>Dour Sentier n°86 </desc>
<link href="https://chemins.be/dour/sentier/86"/><trkseg>
<trkpt lat="50.379163" lon="3.811142"><time>2026-05-04T15:17:53Z</time></trkpt>
<trkpt lat="50.378780" lon="3.811275"><time>2026-05-04T15:27:53Z</time></trkpt>
<trkpt lat="50.378507" lon="3.811005"><time>2026-05-04T15:37:53Z</time></trkpt>
</trkseg>
</trk>
<trk>
<name>hdodo87</name>
<cmt>v</cmt>
<desc>Dour Sentier n°87 Ruelle Totomme</desc>
<link href="https://chemins.be/dour/sentier/87"/><trkseg>
<trkpt lat="50.379651" lon="3.815859"><time>2026-05-04T15:17:53Z</time></trkpt>
<trkpt lat="50.378909" lon="3.816645"><time>2026-05-04T15:27:53Z</time></trkpt>
</trkseg>
</trk>
<trk>
<name>hdodo88</name>
<cmt>q</cmt>
<desc>Dour Sentier n°88 </desc>
<link href="https://chemins.be/dour/sentier/88"/><trkseg>
<trkpt lat="50.387200" lon="3.796667"><time>2026-05-04T15:17:53Z</time></trkpt>
<trkpt lat="50.386521" lon="3.794624"><time>2026-05-04T15:27:53Z</time></trkpt>
<trkpt lat="50.386329" lon="3.792332"><time>2026-05-04T15:37:53Z</time></trkpt>
<trkpt lat="50.385361" lon="3.790650"><time>2026-05-04T15:47:53Z</time></trkpt>
<trkpt lat="50.384731" lon="3.789182"><time>2026-05-04T15:57:53Z</time></trkpt>
</trkseg>
</trk>
<trk>
<name>hdodo89</name>
<cmt>v</cmt>
<desc>Dour Sentier n°89 </desc>
<link href="https://chemins.be/dour/sentier/89"/><trkseg>
<trkpt lat="50.392476" lon="3.790082"><time>2026-05-04T15:17:53Z</time></trkpt>
<trkpt lat="50.391566" lon="3.788301"><time>2026-05-04T15:27:53Z</time></trkpt>
</trkseg>
</trk>
<trk>
<name>hdodo90</name>
<cmt>d</cmt>
<desc>Dour Sentier n°90 </desc>
<link href="https://chemins.be/dour/sentier/90"/><trkseg>
<trkpt lat="50.391503" lon="3.787275"><time>2026-05-04T15:17:53Z</time></trkpt>
<trkpt lat="50.391316" lon="3.787410"><time>2026-05-04T15:27:53Z</time></trkpt>
<trkpt lat="50.391151" lon="3.787436"><time>2026-05-04T15:37:53Z</time></trkpt>
<trkpt lat="50.390769" lon="3.787980"><time>2026-05-04T15:47:53Z</time></trkpt>
</trkseg>
</trk>
<trk>
<name>hdodo91</name>
<cmt>v</cmt>
<desc>Dour Sentier n°91 </desc>
<link href="https://chemins.be/dour/sentier/91"/><trkseg>
<trkpt lat="50.390939" lon="3.786095"><time>2026-05-04T15:17:53Z</time></trkpt>
<trkpt lat="50.390771" lon="3.786255"><time>2026-05-04T15:27:53Z</time></trkpt>
<trkpt lat="50.390932" lon="3.786601"><time>2026-05-04T15:37:53Z</time></trkpt>
<trkpt lat="50.390204" lon="3.787420"><time>2026-05-04T15:47:53Z</time></trkpt>
</trkseg>
</trk>
<trk>
<name>hdodo92</name>
<cmt>q</cmt>
<desc>Dour Sentier n°92 </desc>
<link href="https://chemins.be/dour/sentier/92"/><trkseg>
<trkpt lat="50.395571" lon="3.787156"><time>2026-05-04T15:17:53Z</time></trkpt>
<trkpt lat="50.395692" lon="3.788390"><time>2026-05-04T15:27:53Z</time></trkpt>
<trkpt lat="50.396068" lon="3.788816"><time>2026-05-04T15:37:53Z</time></trkpt>
<trkpt lat="50.395625" lon="3.789626"><time>2026-05-04T15:47:53Z</time></trkpt>
<trkpt lat="50.395668" lon="3.790154"><time>2026-05-04T15:57:53Z</time></trkpt>
<trkpt lat="50.395510" lon="3.790497"><time>2026-05-04T16:07:53Z</time></trkpt>
</trkseg></trk>
<trk>
<name>hdodo92</name>
<cmt>s</cmt>
<desc>Dour Sentier n°92 </desc>
<link href="https://chemins.be/dour/sentier/92"/><trkseg>
<trkpt lat="50.395510" lon="3.790497"><time>2026-05-04T16:07:53Z</time></trkpt>
<trkpt lat="50.395090" lon="3.790936"><time>2026-05-04T16:17:53Z</time></trkpt>
<trkpt lat="50.394865" lon="3.790879"><time>2026-05-04T16:27:53Z</time></trkpt>
<trkpt lat="50.394458" lon="3.791546"><time>2026-05-04T16:37:53Z</time></trkpt>
<trkpt lat="50.394014" lon="3.792805"><time>2026-05-04T16:47:53Z</time></trkpt>
</trkseg></trk>
<trk>
<name>hdodo92</name>
<cmt>q</cmt>
<desc>Dour Sentier n°92 </desc>
<link href="https://chemins.be/dour/sentier/92"/><trkseg>
<trkpt lat="50.394014" lon="3.792805"><time>2026-05-04T16:47:53Z</time></trkpt>
<trkpt lat="50.394598" lon="3.793730"><time>2026-05-04T16:57:53Z</time></trkpt>
</trkseg>
</trk>
<trk>
<name>hdodo93</name>
<cmt>s</cmt>
<desc>Dour Sentier n°93 </desc>
<link href="https://chemins.be/dour/sentier/93"/><trkseg>
<trkpt lat="50.390507" lon="3.777320"><time>2026-05-04T15:17:53Z</time></trkpt>
<trkpt lat="50.390788" lon="3.775882"><time>2026-05-04T15:27:53Z</time></trkpt>
<trkpt lat="50.391794" lon="3.773945"><time>2026-05-04T15:37:53Z</time></trkpt>
</trkseg></trk>
<trk>
<name>hdodo93</name>
<cmt>d</cmt>
<desc>Dour Sentier n°93 </desc>
<link href="https://chemins.be/dour/sentier/93"/><trkseg>
<trkpt lat="50.391794" lon="3.773945"><time>2026-05-04T15:37:53Z</time></trkpt>
<trkpt lat="50.391933" lon="3.773617"><time>2026-05-04T15:47:53Z</time></trkpt>
<trkpt lat="50.393421" lon="3.770234"><time>2026-05-04T15:57:53Z</time></trkpt>
<trkpt lat="50.393979" lon="3.769327"><time>2026-05-04T16:07:53Z</time></trkpt>
<trkpt lat="50.394570" lon="3.768705"><time>2026-05-04T16:17:53Z</time></trkpt>
<trkpt lat="50.395624" lon="3.768673"><time>2026-05-04T16:27:53Z</time></trkpt>
</trkseg>
</trk>
<trk>
<name>hdodoi1</name>
<cmt>v</cmt>
<desc>Dour Chemin n°i1 Chemin des Fours</desc>
<link href="https://chemins.be/dour/chemin/i1"/><trkseg>
<trkpt lat="50.408571" lon="3.779618"><time>2026-05-04T15:17:53Z</time></trkpt>
<trkpt lat="50.408325" lon="3.778862"><time>2026-05-04T15:27:53Z</time></trkpt>
<trkpt lat="50.408216" lon="3.778638"><time>2026-05-04T15:37:53Z</time></trkpt>
<trkpt lat="50.407855" lon="3.778412"><time>2026-05-04T15:47:53Z</time></trkpt>
<trkpt lat="50.407597" lon="3.778455"><time>2026-05-04T15:57:53Z</time></trkpt>
<trkpt lat="50.406922" lon="3.778493"><time>2026-05-04T16:07:53Z</time></trkpt>
</trkseg>
</trk>
<trk>
<name>hdodoi10</name>
<cmt>v</cmt>
<desc>Dour Chemin n°i10 </desc>
<link href="https://chemins.be/dour/chemin/i10"/><trkseg>
<trkpt lat="50.390800" lon="3.820998"><time>2026-05-04T15:17:53Z</time></trkpt>
<trkpt lat="50.391283" lon="3.821885"><time>2026-05-04T15:27:53Z</time></trkpt>
<trkpt lat="50.391684" lon="3.823108"><time>2026-05-04T15:37:53Z</time></trkpt>
<trkpt lat="50.391666" lon="3.823981"><time>2026-05-04T15:47:53Z</time></trkpt>
<trkpt lat="50.392095" lon="3.825454"><time>2026-05-04T15:57:53Z</time></trkpt>
<trkpt lat="50.392696" lon="3.826341"><time>2026-05-04T16:07:53Z</time></trkpt>
<trkpt lat="50.393180" lon="3.826849"><time>2026-05-04T16:17:53Z</time></trkpt>
<trkpt lat="50.394489" lon="3.830146"><time>2026-05-04T16:27:53Z</time></trkpt>
</trkseg>
</trk>
<trk>
<name>hdodoi11</name>
<cmt>v</cmt>
<desc>Dour Sentier n°i11 </desc>
<link href="https://chemins.be/dour/sentier/i11"/><trkseg>
<trkpt lat="50.399670" lon="3.799583"><time>2026-05-04T15:17:53Z</time></trkpt>
<trkpt lat="50.399556" lon="3.799741"><time>2026-05-04T15:27:53Z</time></trkpt>
<trkpt lat="50.398982" lon="3.801658"><time>2026-05-04T15:37:53Z</time></trkpt>
<trkpt lat="50.398608" lon="3.802122"><time>2026-05-04T15:47:53Z</time></trkpt>
</trkseg>
</trk>
<trk>
<name>hdodoi12</name>
<cmt>v</cmt>
<desc>Dour Chemin n°i12 </desc>
<link href="https://chemins.be/dour/chemin/i12"/><trkseg>
<trkpt lat="50.395089" lon="3.793491"><time>2026-05-04T15:17:53Z</time></trkpt>
<trkpt lat="50.396822" lon="3.795193"><time>2026-05-04T15:27:53Z</time></trkpt>
<trkpt lat="50.398390" lon="3.797125"><time>2026-05-04T15:37:53Z</time></trkpt>
<trkpt lat="50.398564" lon="3.799728"><time>2026-05-04T15:47:53Z</time></trkpt>
<trkpt lat="50.398600" lon="3.802174"><time>2026-05-04T15:57:53Z</time></trkpt>
<trkpt lat="50.398777" lon="3.804032"><time>2026-05-04T16:07:53Z</time></trkpt>
<trkpt lat="50.399050" lon="3.804976"><time>2026-05-04T16:17:53Z</time></trkpt>
<trkpt lat="50.399903" lon="3.807487"><time>2026-05-04T16:27:53Z</time></trkpt>
<trkpt lat="50.400231" lon="3.807866"><time>2026-05-04T16:37:53Z</time></trkpt>
<trkpt lat="50.401094" lon="3.807662"><time>2026-05-04T16:47:53Z</time></trkpt>
</trkseg>
</trk>
<trk>
<name>hdodoi13</name>
<cmt>v</cmt>
<desc>Dour Chemin n°i13 </desc>
<link href="https://chemins.be/dour/chemin/i13"/><trkseg>
<trkpt lat="50.398520" lon="3.794020"><time>2026-05-04T15:17:53Z</time></trkpt>
<trkpt lat="50.397887" lon="3.794774"><time>2026-05-04T15:27:53Z</time></trkpt>
<trkpt lat="50.397454" lon="3.795908"><time>2026-05-04T15:37:53Z</time></trkpt>
</trkseg>
</trk>
<trk>
<name>hdodoi2</name>
<cmt>v</cmt>
<desc>Dour Sentier n°i2 </desc>
<link href="https://chemins.be/dour/sentier/i2"/><trkseg>
<trkpt lat="50.393358" lon="3.789131"><time>2026-05-04T15:17:53Z</time></trkpt>
<trkpt lat="50.393642" lon="3.789477"><time>2026-05-04T15:27:53Z</time></trkpt>
<trkpt lat="50.393663" lon="3.789464"><time>2026-05-04T15:37:53Z</time></trkpt>
<trkpt lat="50.393951" lon="3.789760"><time>2026-05-04T15:47:53Z</time></trkpt>
</trkseg>
</trk>
<trk>
<name>hdodoi3</name>
<cmt>v</cmt>
<desc>Dour Sentier n°i3 </desc>
<link href="https://chemins.be/dour/sentier/i3"/><trkseg>
<trkpt lat="50.396184" lon="3.780115"><time>2026-05-04T15:17:53Z</time></trkpt>
<trkpt lat="50.396359" lon="3.780211"><time>2026-05-04T15:27:53Z</time></trkpt>
<trkpt lat="50.396557" lon="3.780201"><time>2026-05-04T15:37:53Z</time></trkpt>
<trkpt lat="50.396646" lon="3.780399"><time>2026-05-04T15:47:53Z</time></trkpt>
</trkseg>
</trk>
<trk>
<name>hdodoi4</name>
<cmt>v</cmt>
<desc>Dour Sentier n°i4 </desc>
<link href="https://chemins.be/dour/sentier/i4"/><trkseg>
<trkpt lat="50.400124" lon="3.768813"><time>2026-05-04T15:17:53Z</time></trkpt>
<trkpt lat="50.401017" lon="3.769281"><time>2026-05-04T15:27:53Z</time></trkpt>
<trkpt lat="50.401187" lon="3.769180"><time>2026-05-04T15:37:53Z</time></trkpt>
</trkseg>
</trk>
<trk>
<name>hdodoi5</name>
<cmt>s</cmt>
<desc>Dour Sentier n°i5 </desc>
<link href="https://chemins.be/dour/sentier/i5"/><trkseg>
<trkpt lat="50.406156" lon="3.776380"><time>2026-05-04T15:17:53Z</time></trkpt>
<trkpt lat="50.406236" lon="3.775389"><time>2026-05-04T15:27:53Z</time></trkpt>
<trkpt lat="50.406258" lon="3.775213"><time>2026-05-04T15:37:53Z</time></trkpt>
<trkpt lat="50.406304" lon="3.775192"><time>2026-05-04T15:47:53Z</time></trkpt>
<trkpt lat="50.406411" lon="3.775148"><time>2026-05-04T15:57:53Z</time></trkpt>
<trkpt lat="50.406511" lon="3.775179"><time>2026-05-04T16:07:53Z</time></trkpt>
<trkpt lat="50.406716" lon="3.775333"><time>2026-05-04T16:17:53Z</time></trkpt>
<trkpt lat="50.406929" lon="3.775508"><time>2026-05-04T16:27:53Z</time></trkpt>
<trkpt lat="50.407035" lon="3.775610"><time>2026-05-04T16:37:53Z</time></trkpt>
<trkpt lat="50.407186" lon="3.775765"><time>2026-05-04T16:47:53Z</time></trkpt>
</trkseg>
</trk>
<trk>
<name>hdodoi6</name>
<cmt>v</cmt>
<desc>Dour Sentier n°i6 </desc>
<link href="https://chemins.be/dour/sentier/i6"/><trkseg>
<trkpt lat="50.380225" lon="3.826219"><time>2026-05-04T15:17:53Z</time></trkpt>
<trkpt lat="50.380392" lon="3.826142"><time>2026-05-04T15:27:53Z</time></trkpt>
<trkpt lat="50.381323" lon="3.826425"><time>2026-05-04T15:37:53Z</time></trkpt>
</trkseg>
</trk>
<trk>
<name>hdodoi7</name>
<cmt>v</cmt>
<desc>Dour Sentier n°i7 </desc>
<link href="https://chemins.be/dour/sentier/i7"/><trkseg>
<trkpt lat="50.378747" lon="3.835060"><time>2026-05-04T15:17:53Z</time></trkpt>
<trkpt lat="50.380143" lon="3.835931"><time>2026-05-04T15:27:53Z</time></trkpt>
</trkseg>
</trk>
<trk>
<name>hdodoi8</name>
<cmt>v</cmt>
<desc>Dour Sentier n°i8 </desc>
<link href="https://chemins.be/dour/sentier/i8"/><trkseg>
<trkpt lat="50.403702" lon="3.799623"><time>2026-05-04T15:17:53Z</time></trkpt>
<trkpt lat="50.403009" lon="3.800910"><time>2026-05-04T15:27:53Z</time></trkpt>
<trkpt lat="50.403228" lon="3.801818"><time>2026-05-04T15:37:53Z</time></trkpt>
</trkseg>
</trk>
<trk>
<name>hdodoi9</name>
<cmt>v</cmt>
<desc>Dour Chemin n°i9 </desc>
<link href="https://chemins.be/dour/chemin/i9"/><trkseg>
<trkpt lat="50.381010" lon="3.796189"><time>2026-05-04T15:17:53Z</time></trkpt>
<trkpt lat="50.380944" lon="3.796131"><time>2026-05-04T15:27:53Z</time></trkpt>
<trkpt lat="50.381259" lon="3.795101"><time>2026-05-04T15:37:53Z</time></trkpt>
<trkpt lat="50.381928" lon="3.794022"><time>2026-05-04T15:47:53Z</time></trkpt>
<trkpt lat="50.381993" lon="3.794035"><time>2026-05-04T15:57:53Z</time></trkpt>
<trkpt lat="50.382392" lon="3.793453"><time>2026-05-04T16:07:53Z</time></trkpt>
<trkpt lat="50.382958" lon="3.792609"><time>2026-05-04T16:17:53Z</time></trkpt>
<trkpt lat="50.384550" lon="3.789136"><time>2026-05-04T16:27:53Z</time></trkpt>
<trkpt lat="50.384839" lon="3.788761"><time>2026-05-04T16:37:53Z</time></trkpt>
<trkpt lat="50.385722" lon="3.787945"><time>2026-05-04T16:47:53Z</time></trkpt>
<trkpt lat="50.386798" lon="3.787359"><time>2026-05-04T16:57:53Z</time></trkpt>
<trkpt lat="50.387580" lon="3.786794"><time>2026-05-04T17:07:53Z</time></trkpt>
<trkpt lat="50.388827" lon="3.786064"><time>2026-05-04T17:17:53Z</time></trkpt>
<trkpt lat="50.390186" lon="3.784480"><time>2026-05-04T17:27:53Z</time></trkpt>
<trkpt lat="50.390592" lon="3.783368"><time>2026-05-04T17:37:53Z</time></trkpt>
<trkpt lat="50.390996" lon="3.781830"><time>2026-05-04T17:47:53Z</time></trkpt>
<trkpt lat="50.391178" lon="3.780832"><time>2026-05-04T17:57:53Z</time></trkpt>
<trkpt lat="50.391744" lon="3.779859"><time>2026-05-04T18:07:53Z</time></trkpt>
<trkpt lat="50.392145" lon="3.779305"><time>2026-05-04T18:17:53Z</time></trkpt>
</trkseg>
</trk>
<trk>
<name>hdodoL98</name>
<cmt>v</cmt>
<desc>Dour Chemin n°L98 RAVeL de la Ligne 98</desc>
<link href="https://chemins.be/dour/chemin/L98"/><trkseg>
<trkpt lat="50.399314" lon="3.766269"><time>2026-05-04T15:17:53Z</time></trkpt>
<trkpt lat="50.400429" lon="3.767511"><time>2026-05-04T15:27:53Z</time></trkpt>
<trkpt lat="50.400654" lon="3.767689"><time>2026-05-04T15:37:53Z</time></trkpt>
<trkpt lat="50.403341" lon="3.771306"><time>2026-05-04T15:47:53Z</time></trkpt>
<trkpt lat="50.404877" lon="3.773496"><time>2026-05-04T15:57:53Z</time></trkpt>
<trkpt lat="50.406266" lon="3.775203"><time>2026-05-04T16:07:53Z</time></trkpt>
<trkpt lat="50.406898" lon="3.775685"><time>2026-05-04T16:17:53Z</time></trkpt>
<trkpt lat="50.407514" lon="3.775840"><time>2026-05-04T16:27:53Z</time></trkpt>
</trkseg>
</trk>
<trk>
<name>hdoel10bis</name>
<cmt>v</cmt>
<desc>Elouges Chemin n°10bis </desc>
<link href="https://chemins.be/elouges/chemin/10bis"/><trkseg>
<trkpt lat="50.395025" lon="3.760752"><time>2026-05-04T15:17:53Z</time></trkpt>
<trkpt lat="50.395579" lon="3.763456"><time>2026-05-04T15:27:53Z</time></trkpt>
<trkpt lat="50.396010" lon="3.763638"><time>2026-05-04T15:37:53Z</time></trkpt>
<trkpt lat="50.397118" lon="3.764411"><time>2026-05-04T15:47:53Z</time></trkpt>
<trkpt lat="50.397310" lon="3.764647"><time>2026-05-04T15:57:53Z</time></trkpt>
</trkseg>
</trk>
<trk>
<name>hdoel11</name>
<cmt>v</cmt>
<desc>Elouges Chemin n°11 </desc>
<link href="https://chemins.be/elouges/chemin/11"/><trkseg>
<trkpt lat="50.384336" lon="3.777390"><time>2026-05-04T15:17:53Z</time></trkpt>
<trkpt lat="50.383989" lon="3.779893"><time>2026-05-04T15:27:53Z</time></trkpt>
<trkpt lat="50.383679" lon="3.780619"><time>2026-05-04T15:37:53Z</time></trkpt>
<trkpt lat="50.383460" lon="3.781853"><time>2026-05-04T15:47:53Z</time></trkpt>
<trkpt lat="50.383463" lon="3.782826"><time>2026-05-04T15:57:53Z</time></trkpt>
</trkseg>
</trk>
<trk>
<name>hdoel12</name>
<cmt>d</cmt>
<desc>Elouges Chemin n°12 </desc>
<link href="https://chemins.be/elouges/chemin/12"/><trkseg>
<trkpt lat="50.405160" lon="3.736963"><time>2026-05-04T15:17:53Z</time></trkpt>
<trkpt lat="50.405220" lon="3.736991"><time>2026-05-04T15:27:53Z</time></trkpt>
<trkpt lat="50.405285" lon="3.737053"><time>2026-05-04T15:37:53Z</time></trkpt>
<trkpt lat="50.406471" lon="3.738514"><time>2026-05-04T15:47:53Z</time></trkpt>
<trkpt lat="50.406576" lon="3.738654"><time>2026-05-04T15:57:53Z</time></trkpt>
<trkpt lat="50.407660" lon="3.739377"><time>2026-05-04T16:07:53Z</time></trkpt>
</trkseg>
</trk>
<trk>
<name>hdoel13</name>
<cmt>q</cmt>
<desc>Elouges Chemin n°13 </desc>
<link href="https://chemins.be/elouges/chemin/13"/><trkseg>
<trkpt lat="50.416184" lon="3.762009"><time>2026-05-04T15:17:53Z</time></trkpt>
<trkpt lat="50.416254" lon="3.761929"><time>2026-05-04T15:27:53Z</time></trkpt>
<trkpt lat="50.416304" lon="3.761869"><time>2026-05-04T15:37:53Z</time></trkpt>
<trkpt lat="50.416534" lon="3.761489"><time>2026-05-04T15:47:53Z</time></trkpt>
<trkpt lat="50.416864" lon="3.761039"><time>2026-05-04T15:57:53Z</time></trkpt>
<trkpt lat="50.417204" lon="3.760480"><time>2026-05-04T16:07:53Z</time></trkpt>
<trkpt lat="50.419241" lon="3.758667"><time>2026-05-04T16:17:53Z</time></trkpt>
<trkpt lat="50.420174" lon="3.758619"><time>2026-05-04T16:27:53Z</time></trkpt>
</trkseg>
</trk>
<trk>
<name>hdoel15</name>
<cmt>r</cmt>
<desc>Elouges Chemin n°15 Rue Béatam</desc>
<link href="https://chemins.be/elouges/chemin/15"/><trkseg>
<trkpt lat="50.397788" lon="3.759191"><time>2026-05-04T15:17:53Z</time></trkpt>
<trkpt lat="50.395566" lon="3.759792"><time>2026-05-04T15:27:53Z</time></trkpt>
</trkseg></trk>
<trk>
<name>hdoel15</name>
<cmt>q</cmt>
<desc>Elouges Chemin n°15 Rue Béatam</desc>
<link href="https://chemins.be/elouges/chemin/15"/><trkseg>
<trkpt lat="50.395566" lon="3.759792"><time>2026-05-04T15:27:53Z</time></trkpt>
<trkpt lat="50.394840" lon="3.760039"><time>2026-05-04T15:37:53Z</time></trkpt>
</trkseg>
</trk>
<trk>
<name>hdoel16</name>
<cmt>v</cmt>
<desc>Elouges Chemin n°16 </desc>
<link href="https://chemins.be/elouges/chemin/16"/><trkseg>
<trkpt lat="50.393678" lon="3.748092"><time>2026-05-04T15:17:53Z</time></trkpt>
<trkpt lat="50.393233" lon="3.747877"><time>2026-05-04T15:27:53Z</time></trkpt>
<trkpt lat="50.392009" lon="3.746000"><time>2026-05-04T15:37:53Z</time></trkpt>
<trkpt lat="50.390887" lon="3.743693"><time>2026-05-04T15:47:53Z</time></trkpt>
</trkseg>
</trk>
<trk>
<name>hdoel17</name>
<cmt>v</cmt>
<desc>Elouges Chemin n°17 </desc>
<link href="https://chemins.be/elouges/chemin/17"/><trkseg>
<trkpt lat="50.413098" lon="3.748645"><time>2026-05-04T15:17:53Z</time></trkpt>
<trkpt lat="50.412428" lon="3.746907"><time>2026-05-04T15:27:53Z</time></trkpt>
<trkpt lat="50.411403" lon="3.745297"><time>2026-05-04T15:37:53Z</time></trkpt>
<trkpt lat="50.411360" lon="3.744436"><time>2026-05-04T15:47:53Z</time></trkpt>
<trkpt lat="50.411211" lon="3.741435"><time>2026-05-04T15:57:53Z</time></trkpt>
</trkseg>
</trk>
<trk>
<name>hdoel18</name>
<cmt>s</cmt>
<desc>Elouges Chemin n°18 </desc>
<link href="https://chemins.be/elouges/chemin/18"/><trkseg>
<trkpt lat="50.407527" lon="3.755523"><time>2026-05-04T15:17:53Z</time></trkpt>
<trkpt lat="50.406365" lon="3.759192"><time>2026-05-04T15:27:53Z</time></trkpt>
<trkpt lat="50.406082" lon="3.760415"><time>2026-05-04T15:37:53Z</time></trkpt>
</trkseg></trk>
<trk>
<name>hdoel18</name>
<cmt>q</cmt>
<desc>Elouges Chemin n°18 </desc>
<link href="https://chemins.be/elouges/chemin/18"/><trkseg>
<trkpt lat="50.406082" lon="3.760415"><time>2026-05-04T15:37:53Z</time></trkpt>
<trkpt lat="50.405408" lon="3.763334"><time>2026-05-04T15:47:53Z</time></trkpt>
</trkseg>
</trk>
<trk>
<name>hdoel20</name>
<cmt>r</cmt>
<desc>Elouges Chemin n°20 Avenue Victor Regnart</desc>
<link href="https://chemins.be/elouges/chemin/20"/><trkseg>
<trkpt lat="50.388822" lon="3.767570"><time>2026-05-04T15:17:53Z</time></trkpt>
<trkpt lat="50.389666" lon="3.771014"><time>2026-05-04T15:27:53Z</time></trkpt>
</trkseg></trk>
<trk>
<name>hdoel20</name>
<cmt>v</cmt>
<desc>Elouges Chemin n°20 Avenue Victor Regnart</desc>
<link href="https://chemins.be/elouges/chemin/20"/><trkseg>
<trkpt lat="50.389666" lon="3.771014"><time>2026-05-04T15:27:53Z</time></trkpt>
<trkpt lat="50.389592" lon="3.771158"><time>2026-05-04T15:37:53Z</time></trkpt>
<trkpt lat="50.389610" lon="3.771373"><time>2026-05-04T15:47:53Z</time></trkpt>
</trkseg></trk>
<trk>
<name>hdoel20</name>
<cmt>d</cmt>
<desc>Elouges Chemin n°20 Avenue Victor Regnart</desc>
<link href="https://chemins.be/elouges/chemin/20"/><trkseg>
<trkpt lat="50.389610" lon="3.771373"><time>2026-05-04T15:47:53Z</time></trkpt>
<trkpt lat="50.390185" lon="3.775445"><time>2026-05-04T15:57:53Z</time></trkpt>
<trkpt lat="50.390318" lon="3.776386"><time>2026-05-04T16:07:53Z</time></trkpt>
<trkpt lat="50.390381" lon="3.777248"><time>2026-05-04T16:17:53Z</time></trkpt>
</trkseg>
</trk>
<trk>
<name>hdoel21</name>
<cmt>r</cmt>
<desc>Elouges Sentier n°21 Rue François André</desc>
<link href="https://chemins.be/elouges/sentier/21"/><trkseg>
<trkpt lat="50.402530" lon="3.754196"><time>2026-05-04T15:17:53Z</time></trkpt>
<trkpt lat="50.404432" lon="3.755003"><time>2026-05-04T15:27:53Z</time></trkpt>
<trkpt lat="50.404795" lon="3.755157"><time>2026-05-04T15:37:53Z</time></trkpt>
<trkpt lat="50.405162" lon="3.755479"><time>2026-05-04T15:47:53Z</time></trkpt>
</trkseg></trk>
<trk>
<name>hdoel21</name>
<cmt>v</cmt>
<desc>Elouges Sentier n°21 Rue François André</desc>
<link href="https://chemins.be/elouges/sentier/21"/><trkseg>
<trkpt lat="50.405162" lon="3.755479"><time>2026-05-04T15:47:53Z</time></trkpt>
<trkpt lat="50.406175" lon="3.756267"><time>2026-05-04T15:57:53Z</time></trkpt>
<trkpt lat="50.406425" lon="3.756470"><time>2026-05-04T16:07:53Z</time></trkpt>
<trkpt lat="50.406475" lon="3.756581"><time>2026-05-04T16:17:53Z</time></trkpt>
</trkseg></trk>
<trk>
<name>hdoel21</name>
<cmt>s</cmt>
<desc>Elouges Sentier n°21 Rue François André</desc>
<link href="https://chemins.be/elouges/sentier/21"/><trkseg>
<trkpt lat="50.406475" lon="3.756581"><time>2026-05-04T16:17:53Z</time></trkpt>
<trkpt lat="50.409492" lon="3.758776"><time>2026-05-04T16:27:53Z</time></trkpt>
</trkseg></trk>
<trk>
<name>hdoel21</name>
<cmt>d</cmt>
<desc>Elouges Sentier n°21 Rue François André</desc>
<link href="https://chemins.be/elouges/sentier/21"/><trkseg>
<trkpt lat="50.409492" lon="3.758776"><time>2026-05-04T16:27:53Z</time></trkpt>
<trkpt lat="50.410070" lon="3.759196"><time>2026-05-04T16:37:53Z</time></trkpt>
<trkpt lat="50.414035" lon="3.759658"><time>2026-05-04T16:47:53Z</time></trkpt>
</trkseg>
</trk>
<trk>
<name>hdoel22</name>
<cmt>v</cmt>
<desc>Elouges Sentier n°22 Rue Quevauville</desc>
<link href="https://chemins.be/elouges/sentier/22"/><trkseg>
<trkpt lat="50.407811" lon="3.752616"><time>2026-05-04T15:17:53Z</time></trkpt>
<trkpt lat="50.406485" lon="3.750856"><time>2026-05-04T15:27:53Z</time></trkpt>
<trkpt lat="50.406435" lon="3.750805"><time>2026-05-04T15:37:53Z</time></trkpt>
</trkseg></trk>
<trk>
<name>hdoel22</name>
<cmt>d</cmt>
<desc>Elouges Sentier n°22 Rue Quevauville</desc>
<link href="https://chemins.be/elouges/sentier/22"/><trkseg>
<trkpt lat="50.406435" lon="3.750805"><time>2026-05-04T15:37:53Z</time></trkpt>
<trkpt lat="50.406327" lon="3.750750"><time>2026-05-04T15:47:53Z</time></trkpt>
<trkpt lat="50.405541" lon="3.750085"><time>2026-05-04T15:57:53Z</time></trkpt>
</trkseg></trk>
<trk>
<name>hdoel22</name>
<cmt>v</cmt>
<desc>Elouges Sentier n°22 Rue Quevauville</desc>
<link href="https://chemins.be/elouges/sentier/22"/><trkseg>
<trkpt lat="50.405541" lon="3.750085"><time>2026-05-04T15:57:53Z</time></trkpt>
<trkpt lat="50.405136" lon="3.749964"><time>2026-05-04T16:07:53Z</time></trkpt>
</trkseg></trk>
<trk>
<name>hdoel22</name>
<cmt>r</cmt>
<desc>Elouges Sentier n°22 Rue Quevauville</desc>
<link href="https://chemins.be/elouges/sentier/22"/><trkseg>
<trkpt lat="50.405136" lon="3.749964"><time>2026-05-04T16:07:53Z</time></trkpt>
<trkpt lat="50.405097" lon="3.749486"><time>2026-05-04T16:17:53Z</time></trkpt>
</trkseg></trk>
<trk>
<name>hdoel22</name>
<cmt>v</cmt>
<desc>Elouges Sentier n°22 Rue Quevauville</desc>
<link href="https://chemins.be/elouges/sentier/22"/><trkseg>
<trkpt lat="50.405097" lon="3.749486"><time>2026-05-04T16:17:53Z</time></trkpt>
<trkpt lat="50.404844" lon="3.749236"><time>2026-05-04T16:27:53Z</time></trkpt>
<trkpt lat="50.404130" lon="3.748416"><time>2026-05-04T16:37:53Z</time></trkpt>
<trkpt lat="50.403279" lon="3.747316"><time>2026-05-04T16:47:53Z</time></trkpt>
<trkpt lat="50.401916" lon="3.746419"><time>2026-05-04T16:57:53Z</time></trkpt>
<trkpt lat="50.400870" lon="3.745842"><time>2026-05-04T17:07:53Z</time></trkpt>
</trkseg>
</trk>
<trk>
<name>hdoel23</name>
<cmt>v</cmt>
<desc>Elouges Sentier n°23 Rue de Belle-Vue</desc>
<link href="https://chemins.be/elouges/sentier/23"/><trkseg>
<trkpt lat="50.414426" lon="3.759354"><time>2026-05-04T15:17:53Z</time></trkpt>
<trkpt lat="50.414887" lon="3.759064"><time>2026-05-04T15:27:53Z</time></trkpt>
<trkpt lat="50.417355" lon="3.755845"><time>2026-05-04T15:37:53Z</time></trkpt>
<trkpt lat="50.418850" lon="3.755025"><time>2026-05-04T15:47:53Z</time></trkpt>
<trkpt lat="50.419191" lon="3.754166"><time>2026-05-04T15:57:53Z</time></trkpt>
</trkseg>
</trk>
<trk>
<name>hdoel24</name>
<cmt>s</cmt>
<desc>Elouges Sentier n°24 </desc>
<link href="https://chemins.be/elouges/sentier/24"/><trkseg>
<trkpt lat="50.405577" lon="3.755720"><time>2026-05-04T15:17:53Z</time></trkpt>
<trkpt lat="50.406446" lon="3.754690"><time>2026-05-04T15:27:53Z</time></trkpt>
<trkpt lat="50.407555" lon="3.753940"><time>2026-05-04T15:37:53Z</time></trkpt>
<trkpt lat="50.407608" lon="3.753939"><time>2026-05-04T15:47:53Z</time></trkpt>
</trkseg>
</trk>
<trk>
<name>hdoel25</name>
<cmt>v</cmt>
<desc>Elouges Sentier n°25 </desc>
<link href="https://chemins.be/elouges/sentier/25"/><trkseg>
<trkpt lat="50.402404" lon="3.755879"><time>2026-05-04T15:17:53Z</time></trkpt>
<trkpt lat="50.402994" lon="3.756159"><time>2026-05-04T15:27:53Z</time></trkpt>
</trkseg></trk>
<trk>
<name>hdoel25</name>
<cmt>q</cmt>
<desc>Elouges Sentier n°25 </desc>
<link href="https://chemins.be/elouges/sentier/25"/><trkseg>
<trkpt lat="50.402994" lon="3.756159"><time>2026-05-04T15:27:53Z</time></trkpt>
<trkpt lat="50.404101" lon="3.759214"><time>2026-05-04T15:37:53Z</time></trkpt>
<trkpt lat="50.404174" lon="3.759339"><time>2026-05-04T15:47:53Z</time></trkpt>
<trkpt lat="50.405374" lon="3.762789"><time>2026-05-04T15:57:53Z</time></trkpt>
<trkpt lat="50.405846" lon="3.766543"><time>2026-05-04T16:07:53Z</time></trkpt>
</trkseg>
</trk>
<trk>
<name>hdoel26</name>
<cmt>s</cmt>
<desc>Elouges Sentier n°26 </desc>
<link href="https://chemins.be/elouges/sentier/26"/><trkseg>
<trkpt lat="50.401236" lon="3.762357"><time>2026-05-04T15:17:53Z</time></trkpt>
<trkpt lat="50.401282" lon="3.762554"><time>2026-05-04T15:27:53Z</time></trkpt>
<trkpt lat="50.401228" lon="3.763842"><time>2026-05-04T15:37:53Z</time></trkpt>
<trkpt lat="50.400531" lon="3.767056"><time>2026-05-04T15:47:53Z</time></trkpt>
</trkseg>
</trk>
<trk>
<name>hdoel27</name>
<cmt>q</cmt>
<desc>Elouges Sentier n°27 </desc>
<link href="https://chemins.be/elouges/sentier/27"/><trkseg>
<trkpt lat="50.400517" lon="3.766948"><time>2026-05-04T15:17:53Z</time></trkpt>
<trkpt lat="50.399997" lon="3.765146"><time>2026-05-04T15:27:53Z</time></trkpt>
<trkpt lat="50.399587" lon="3.764952"><time>2026-05-04T15:37:53Z</time></trkpt>
</trkseg></trk>
<trk>
<name>hdoel27</name>
<cmt>r</cmt>
<desc>Elouges Sentier n°27 </desc>
<link href="https://chemins.be/elouges/sentier/27"/><trkseg>
<trkpt lat="50.399587" lon="3.764952"><time>2026-05-04T15:37:53Z</time></trkpt>
<trkpt lat="50.399703" lon="3.764437"><time>2026-05-04T15:47:53Z</time></trkpt>
</trkseg></trk>
<trk>
<name>hdoel27</name>
<cmt>q</cmt>
<desc>Elouges Sentier n°27 </desc>
<link href="https://chemins.be/elouges/sentier/27"/><trkseg>
<trkpt lat="50.399703" lon="3.764437"><time>2026-05-04T15:47:53Z</time></trkpt>
<trkpt lat="50.399279" lon="3.762453"><time>2026-05-04T15:57:53Z</time></trkpt>
<trkpt lat="50.397939" lon="3.759170"><time>2026-05-04T16:07:53Z</time></trkpt>
</trkseg></trk>
<trk>
<name>hdoel27</name>
<cmt>v</cmt>
<desc>Elouges Sentier n°27 </desc>
<link href="https://chemins.be/elouges/sentier/27"/><trkseg>
<trkpt lat="50.397939" lon="3.759170"><time>2026-05-04T16:07:53Z</time></trkpt>
<trkpt lat="50.397846" lon="3.757752"><time>2026-05-04T16:17:53Z</time></trkpt>
</trkseg></trk>
<trk>
<name>hdoel27</name>
<cmt>d</cmt>
<desc>Elouges Sentier n°27 </desc>
<link href="https://chemins.be/elouges/sentier/27"/><trkseg>
<trkpt lat="50.397846" lon="3.757752"><time>2026-05-04T16:17:53Z</time></trkpt>
<trkpt lat="50.397668" lon="3.755789"><time>2026-05-04T16:27:53Z</time></trkpt>
</trkseg></trk>
<trk>
<name>hdoel27</name>
<cmt>v</cmt>
<desc>Elouges Sentier n°27 </desc>
<link href="https://chemins.be/elouges/sentier/27"/><trkseg>
<trkpt lat="50.397668" lon="3.755789"><time>2026-05-04T16:27:53Z</time></trkpt>
<trkpt lat="50.397604" lon="3.754919"><time>2026-05-04T16:37:53Z</time></trkpt>
</trkseg>
</trk>
<trk>
<name>hdoel28</name>
<cmt>q</cmt>
<desc>Elouges Sentier n°28 </desc>
<link href="https://chemins.be/elouges/sentier/28"/><trkseg>
<trkpt lat="50.400865" lon="3.755213"><time>2026-05-04T15:17:53Z</time></trkpt>
<trkpt lat="50.400386" lon="3.755911"><time>2026-05-04T15:27:53Z</time></trkpt>
<trkpt lat="50.399675" lon="3.757466"><time>2026-05-04T15:37:53Z</time></trkpt>
<trkpt lat="50.398280" lon="3.758679"><time>2026-05-04T15:47:53Z</time></trkpt>
</trkseg>
</trk>
<trk>
<name>hdoel29</name>
<cmt>r</cmt>
<desc>Elouges Sentier n°29 Rue de la Perche / Rue de la Grande Veine / Rue de là Haut</desc>
<link href="https://chemins.be/elouges/sentier/29"/><trkseg>
<trkpt lat="50.401404" lon="3.753709"><time>2026-05-04T15:17:53Z</time></trkpt>
<trkpt lat="50.401284" lon="3.753529"><time>2026-05-04T15:27:53Z</time></trkpt>
<trkpt lat="50.400734" lon="3.753379"><time>2026-05-04T15:37:53Z</time></trkpt>
</trkseg></trk>
<trk>
<name>hdoel29</name>
<cmt>v</cmt>
<desc>Elouges Sentier n°29 Rue de la Perche / Rue de la Grande Veine / Rue de là Haut</desc>
<link href="https://chemins.be/elouges/sentier/29"/><trkseg>
<trkpt lat="50.400734" lon="3.753379"><time>2026-05-04T15:37:53Z</time></trkpt>
<trkpt lat="50.400724" lon="3.753379"><time>2026-05-04T15:47:53Z</time></trkpt>
<trkpt lat="50.400724" lon="3.753469"><time>2026-05-04T15:57:53Z</time></trkpt>
<trkpt lat="50.400704" lon="3.753569"><time>2026-05-04T16:07:53Z</time></trkpt>
<trkpt lat="50.400644" lon="3.753669"><time>2026-05-04T16:17:53Z</time></trkpt>
<trkpt lat="50.400564" lon="3.753759"><time>2026-05-04T16:27:53Z</time></trkpt>
<trkpt lat="50.400464" lon="3.753849"><time>2026-05-04T16:37:53Z</time></trkpt>
<trkpt lat="50.400374" lon="3.753939"><time>2026-05-04T16:47:53Z</time></trkpt>
<trkpt lat="50.400314" lon="3.753999"><time>2026-05-04T16:57:53Z</time></trkpt>
<trkpt lat="50.400034" lon="3.754139"><time>2026-05-04T17:07:53Z</time></trkpt>
<trkpt lat="50.399714" lon="3.754279"><time>2026-05-04T17:17:53Z</time></trkpt>
<trkpt lat="50.399554" lon="3.754239"><time>2026-05-04T17:27:53Z</time></trkpt>
<trkpt lat="50.399484" lon="3.754229"><time>2026-05-04T17:37:53Z</time></trkpt>
<trkpt lat="50.399330" lon="3.754201"><time>2026-05-04T17:47:53Z</time></trkpt>
</trkseg></trk>
<trk>
<name>hdoel29</name>
<cmt>r</cmt>
<desc>Elouges Sentier n°29 Rue de la Perche / Rue de la Grande Veine / Rue de là Haut</desc>
<link href="https://chemins.be/elouges/sentier/29"/><trkseg>
<trkpt lat="50.399330" lon="3.754201"><time>2026-05-04T17:47:53Z</time></trkpt>
<trkpt lat="50.398919" lon="3.755575"><time>2026-05-04T17:57:53Z</time></trkpt>
<trkpt lat="50.396046" lon="3.754152"><time>2026-05-04T18:07:53Z</time></trkpt>
<trkpt lat="50.395663" lon="3.754710"><time>2026-05-04T18:17:53Z</time></trkpt>
<trkpt lat="50.395348" lon="3.754013"><time>2026-05-04T18:27:53Z</time></trkpt>
<trkpt lat="50.395136" lon="3.754002"><time>2026-05-04T18:37:53Z</time></trkpt>
</trkseg></trk>
<trk>
<name>hdoel29</name>
<cmt>b</cmt>
<desc>Elouges Sentier n°29 Rue de la Perche / Rue de la Grande Veine / Rue de là Haut</desc>
<link href="https://chemins.be/elouges/sentier/29"/><trkseg>
<trkpt lat="50.395136" lon="3.754002"><time>2026-05-04T18:37:53Z</time></trkpt>
<trkpt lat="50.394452" lon="3.754657"><time>2026-05-04T18:47:53Z</time></trkpt>
<trkpt lat="50.393808" lon="3.754519"><time>2026-05-04T18:57:53Z</time></trkpt>
</trkseg></trk>
<trk>
<name>hdoel29</name>
<cmt>q</cmt>
<desc>Elouges Sentier n°29 Rue de la Perche / Rue de la Grande Veine / Rue de là Haut</desc>
<link href="https://chemins.be/elouges/sentier/29"/><trkseg>
<trkpt lat="50.393808" lon="3.754519"><time>2026-05-04T18:57:53Z</time></trkpt>
<trkpt lat="50.393295" lon="3.753872"><time>2026-05-04T19:07:53Z</time></trkpt>
<trkpt lat="50.393295" lon="3.750839"><time>2026-05-04T19:17:53Z</time></trkpt>
<trkpt lat="50.393288" lon="3.750839"><time>2026-05-04T19:27:53Z</time></trkpt>
<trkpt lat="50.393356" lon="3.748339"><time>2026-05-04T19:37:53Z</time></trkpt>
</trkseg></trk>
<trk>
<name>hdoel29</name>
<cmt>s</cmt>
<desc>Elouges Sentier n°29 Rue de la Perche / Rue de la Grande Veine / Rue de là Haut</desc>
<link href="https://chemins.be/elouges/sentier/29"/><trkseg>
<trkpt lat="50.393356" lon="3.748339"><time>2026-05-04T19:37:53Z</time></trkpt>
<trkpt lat="50.393404" lon="3.748006"><time>2026-05-04T19:47:53Z</time></trkpt>
</trkseg></trk>
<trk>
<name>hdoel29</name>
<cmt>v</cmt>
<desc>Elouges Sentier n°29 Rue de la Perche / Rue de la Grande Veine / Rue de là Haut</desc>
<link href="https://chemins.be/elouges/sentier/29"/><trkseg>
<trkpt lat="50.393404" lon="3.748006"><time>2026-05-04T19:47:53Z</time></trkpt>
<trkpt lat="50.391955" lon="3.745898"><time>2026-05-04T19:57:53Z</time></trkpt>
</trkseg></trk>
<trk>
<name>hdoel29</name>
<cmt>d</cmt>
<desc>Elouges Sentier n°29 Rue de la Perche / Rue de la Grande Veine / Rue de là Haut</desc>
<link href="https://chemins.be/elouges/sentier/29"/><trkseg>
<trkpt lat="50.391955" lon="3.745898"><time>2026-05-04T19:57:53Z</time></trkpt>
<trkpt lat="50.390751" lon="3.745533"><time>2026-05-04T20:07:53Z</time></trkpt>
</trkseg>
</trk>
<trk>
<name>hdoel3</name>
<cmt>v</cmt>
<desc>Elouges Chemin n°3 </desc>
<link href="https://chemins.be/elouges/chemin/3"/><trkseg>
<trkpt lat="50.405677" lon="3.746372"><time>2026-05-04T15:17:53Z</time></trkpt>
<trkpt lat="50.405983" lon="3.744862"><time>2026-05-04T15:27:53Z</time></trkpt>
<trkpt lat="50.407140" lon="3.741322"><time>2026-05-04T15:37:53Z</time></trkpt>
<trkpt lat="50.407778" lon="3.739368"><time>2026-05-04T15:47:53Z</time></trkpt>
<trkpt lat="50.408675" lon="3.734425"><time>2026-05-04T15:57:53Z</time></trkpt>
<trkpt lat="50.409465" lon="3.732631"><time>2026-05-04T16:07:53Z</time></trkpt>
<trkpt lat="50.410417" lon="3.729524"><time>2026-05-04T16:17:53Z</time></trkpt>
<trkpt lat="50.410652" lon="3.727644"><time>2026-05-04T16:27:53Z</time></trkpt>
</trkseg>
</trk>
<trk>
<name>hdoel30</name>
<cmt>v</cmt>
<desc>Elouges Sentier n°30 rue du coin du bois</desc>
<link href="https://chemins.be/elouges/sentier/30"/><trkseg>
<trkpt lat="50.395101" lon="3.768171"><time>2026-05-04T15:17:53Z</time></trkpt>
<trkpt lat="50.393788" lon="3.765060"><time>2026-05-04T15:27:53Z</time></trkpt>
<trkpt lat="50.392885" lon="3.763880"><time>2026-05-04T15:37:53Z</time></trkpt>
<trkpt lat="50.391667" lon="3.763044"><time>2026-05-04T15:47:53Z</time></trkpt>
<trkpt lat="50.391263" lon="3.762581"><time>2026-05-04T15:57:53Z</time></trkpt>
<trkpt lat="50.391211" lon="3.762180"><time>2026-05-04T16:07:53Z</time></trkpt>
<trkpt lat="50.391064" lon="3.761567"><time>2026-05-04T16:17:53Z</time></trkpt>
<trkpt lat="50.391044" lon="3.761328"><time>2026-05-04T16:27:53Z</time></trkpt>
<trkpt lat="50.390379" lon="3.759579"><time>2026-05-04T16:37:53Z</time></trkpt>
<trkpt lat="50.390215" lon="3.759117"><time>2026-05-04T16:47:53Z</time></trkpt>
<trkpt lat="50.390205" lon="3.759047"><time>2026-05-04T16:57:53Z</time></trkpt>
</trkseg>
</trk>
<trk>
<name>hdoel31</name>
<cmt>v</cmt>
<desc>Elouges Sentier n°31 </desc>
<link href="https://chemins.be/elouges/sentier/31"/><trkseg>
<trkpt lat="50.387273" lon="3.762419"><time>2026-05-04T15:17:53Z</time></trkpt>
<trkpt lat="50.387403" lon="3.761909"><time>2026-05-04T15:27:53Z</time></trkpt>
</trkseg></trk>
<trk>
<name>hdoel31</name>
<cmt>d</cmt>
<desc>Elouges Sentier n°31 </desc>
<link href="https://chemins.be/elouges/sentier/31"/><trkseg>
<trkpt lat="50.387403" lon="3.761909"><time>2026-05-04T15:27:53Z</time></trkpt>
<trkpt lat="50.387403" lon="3.761909"><time>2026-05-04T15:37:53Z</time></trkpt>
<trkpt lat="50.387403" lon="3.761909"><time>2026-05-04T15:47:53Z</time></trkpt>
<trkpt lat="50.387403" lon="3.761909"><time>2026-05-04T15:57:53Z</time></trkpt>
<trkpt lat="50.387403" lon="3.761909"><time>2026-05-04T16:07:53Z</time></trkpt>
<trkpt lat="50.388233" lon="3.761919"><time>2026-05-04T16:17:53Z</time></trkpt>
<trkpt lat="50.389509" lon="3.762012"><time>2026-05-04T16:27:53Z</time></trkpt>
<trkpt lat="50.390013" lon="3.762139"><time>2026-05-04T16:37:53Z</time></trkpt>
<trkpt lat="50.390703" lon="3.762449"><time>2026-05-04T16:47:53Z</time></trkpt>
<trkpt lat="50.390863" lon="3.762769"><time>2026-05-04T16:57:53Z</time></trkpt>
</trkseg>
</trk>
<trk>
<name>hdoel32</name>
<cmt>q</cmt>
<desc>Elouges Sentier n°32 Avenue Victor Regnart</desc>
<link href="https://chemins.be/elouges/sentier/32"/><trkseg>
<trkpt lat="50.387151" lon="3.763875"><time>2026-05-04T15:17:53Z</time></trkpt>
<trkpt lat="50.388908" lon="3.767346"><time>2026-05-04T15:27:53Z</time></trkpt>
</trkseg></trk>
<trk>
<name>hdoel32</name>
<cmt>r</cmt>
<desc>Elouges Sentier n°32 Avenue Victor Regnart</desc>
<link href="https://chemins.be/elouges/sentier/32"/><trkseg>
<trkpt lat="50.388908" lon="3.767346"><time>2026-05-04T15:27:53Z</time></trkpt>
<trkpt lat="50.389710" lon="3.771085"><time>2026-05-04T15:37:53Z</time></trkpt>
<trkpt lat="50.390723" lon="3.772699"><time>2026-05-04T15:47:53Z</time></trkpt>
</trkseg>
</trk>
<trk>
<name>hdoel33</name>
<cmt>v</cmt>
<desc>Elouges Sentier n°33 </desc>
<link href="https://chemins.be/elouges/sentier/33"/><trkseg>
<trkpt lat="50.403839" lon="3.751317"><time>2026-05-04T15:17:53Z</time></trkpt>
<trkpt lat="50.403909" lon="3.750894"><time>2026-05-04T15:27:53Z</time></trkpt>
<trkpt lat="50.404023" lon="3.750457"><time>2026-05-04T15:37:53Z</time></trkpt>
<trkpt lat="50.404138" lon="3.748416"><time>2026-05-04T15:47:53Z</time></trkpt>
</trkseg></trk>
<trk>
<name>hdoel33</name>
<cmt>d</cmt>
<desc>Elouges Sentier n°33 </desc>
<link href="https://chemins.be/elouges/sentier/33"/><trkseg>
<trkpt lat="50.404138" lon="3.748416"><time>2026-05-04T15:47:53Z</time></trkpt>
<trkpt lat="50.404052" lon="3.747432"><time>2026-05-04T15:57:53Z</time></trkpt>
<trkpt lat="50.404432" lon="3.746018"><time>2026-05-04T16:07:53Z</time></trkpt>
<trkpt lat="50.404572" lon="3.745498"><time>2026-05-04T16:17:53Z</time></trkpt>
</trkseg></trk>
<trk>
<name>hdoel33</name>
<cmt>q</cmt>
<desc>Elouges Sentier n°33 </desc>
<link href="https://chemins.be/elouges/sentier/33"/><trkseg>
<trkpt lat="50.404572" lon="3.745498"><time>2026-05-04T16:17:53Z</time></trkpt>
<trkpt lat="50.404871" lon="3.744087"><time>2026-05-04T16:27:53Z</time></trkpt>
<trkpt lat="50.404704" lon="3.739897"><time>2026-05-04T16:37:53Z</time></trkpt>
</trkseg>
</trk>
<trk>
<name>hdoel34</name>
<cmt>v</cmt>
<desc>Elouges Sentier n°34 </desc>
<link href="https://chemins.be/elouges/sentier/34"/><trkseg>
<trkpt lat="50.399898" lon="3.750679"><time>2026-05-04T15:17:53Z</time></trkpt>
<trkpt lat="50.400474" lon="3.750714"><time>2026-05-04T15:27:53Z</time></trkpt>
<trkpt lat="50.400921" lon="3.750385"><time>2026-05-04T15:37:53Z</time></trkpt>
<trkpt lat="50.401657" lon="3.750108"><time>2026-05-04T15:47:53Z</time></trkpt>
<trkpt lat="50.401934" lon="3.749809"><time>2026-05-04T15:57:53Z</time></trkpt>
<trkpt lat="50.401997" lon="3.749822"><time>2026-05-04T16:07:53Z</time></trkpt>
<trkpt lat="50.402499" lon="3.749506"><time>2026-05-04T16:17:53Z</time></trkpt>
<trkpt lat="50.402607" lon="3.749434"><time>2026-05-04T16:27:53Z</time></trkpt>
<trkpt lat="50.402642" lon="3.749378"><time>2026-05-04T16:37:53Z</time></trkpt>
<trkpt lat="50.403269" lon="3.748976"><time>2026-05-04T16:47:53Z</time></trkpt>
<trkpt lat="50.403915" lon="3.748573"><time>2026-05-04T16:57:53Z</time></trkpt>
<trkpt lat="50.404169" lon="3.748494"><time>2026-05-04T17:07:53Z</time></trkpt>
</trkseg></trk>
<trk>
<name>hdoel34</name>
<cmt>d</cmt>
<desc>Elouges Sentier n°34 </desc>
<link href="https://chemins.be/elouges/sentier/34"/><trkseg>
<trkpt lat="50.404169" lon="3.748494"><time>2026-05-04T17:07:53Z</time></trkpt>
<trkpt lat="50.404087" lon="3.747464"><time>2026-05-04T17:17:53Z</time></trkpt>
<trkpt lat="50.404634" lon="3.745426"><time>2026-05-04T17:27:53Z</time></trkpt>
</trkseg></trk>
<trk>
<name>hdoel34</name>
<cmt>q</cmt>
<desc>Elouges Sentier n°34 </desc>
<link href="https://chemins.be/elouges/sentier/34"/><trkseg>
<trkpt lat="50.404634" lon="3.745426"><time>2026-05-04T17:27:53Z</time></trkpt>
<trkpt lat="50.404881" lon="3.745359"><time>2026-05-04T17:37:53Z</time></trkpt>
<trkpt lat="50.405906" lon="3.745083"><time>2026-05-04T17:47:53Z</time></trkpt>
</trkseg></trk>
<trk>
<name>hdoel34</name>
<cmt>v</cmt>
<desc>Elouges Sentier n°34 </desc>
<link href="https://chemins.be/elouges/sentier/34"/><trkseg>
<trkpt lat="50.405906" lon="3.745083"><time>2026-05-04T17:47:53Z</time></trkpt>
<trkpt lat="50.407137" lon="3.741435"><time>2026-05-04T17:57:53Z</time></trkpt>
</trkseg></trk>
<trk>
<name>hdoel34</name>
<cmt>d</cmt>
<desc>Elouges Sentier n°34 </desc>
<link href="https://chemins.be/elouges/sentier/34"/><trkseg>
<trkpt lat="50.407137" lon="3.741435"><time>2026-05-04T17:57:53Z</time></trkpt>
<trkpt lat="50.408751" lon="3.741649"><time>2026-05-04T18:07:53Z</time></trkpt>
<trkpt lat="50.411226" lon="3.741349"><time>2026-05-04T18:17:53Z</time></trkpt>
</trkseg>
</trk>
<trk>
<name>hdoel35</name>
<cmt>v</cmt>
<desc>Elouges Sentier n°35 Rue Courteville</desc>
<link href="https://chemins.be/elouges/sentier/35"/><trkseg>
<trkpt lat="50.398457" lon="3.752046"><time>2026-05-04T15:17:53Z</time></trkpt>
<trkpt lat="50.398581" lon="3.751333"><time>2026-05-04T15:27:53Z</time></trkpt>
</trkseg></trk>
<trk>
<name>hdoel35</name>
<cmt>r</cmt>
<desc>Elouges Sentier n°35 Rue Courteville</desc>
<link href="https://chemins.be/elouges/sentier/35"/><trkseg>
<trkpt lat="50.398581" lon="3.751333"><time>2026-05-04T15:27:53Z</time></trkpt>
<trkpt lat="50.398811" lon="3.750361"><time>2026-05-04T15:37:53Z</time></trkpt>
<trkpt lat="50.399049" lon="3.750468"><time>2026-05-04T15:47:53Z</time></trkpt>
</trkseg></trk>
<trk>
<name>hdoel35</name>
<cmt>v</cmt>
<desc>Elouges Sentier n°35 Rue Courteville</desc>
<link href="https://chemins.be/elouges/sentier/35"/><trkseg>
<trkpt lat="50.399049" lon="3.750468"><time>2026-05-04T15:47:53Z</time></trkpt>
<trkpt lat="50.399129" lon="3.749859"><time>2026-05-04T15:57:53Z</time></trkpt>
<trkpt lat="50.399925" lon="3.747233"><time>2026-05-04T16:07:53Z</time></trkpt>
</trkseg>
</trk>
<trk>
<name>hdoel36</name>
<cmt>q</cmt>
<desc>Elouges Sentier n°36 </desc>
<link href="https://chemins.be/elouges/sentier/36"/><trkseg>
<trkpt lat="50.408810" lon="3.751322"><time>2026-05-04T15:17:53Z</time></trkpt>
<trkpt lat="50.407407" lon="3.750790"><time>2026-05-04T15:27:53Z</time></trkpt>
<trkpt lat="50.406457" lon="3.750802"><time>2026-05-04T15:37:53Z</time></trkpt>
</trkseg>
</trk>
<trk>
<name>hdoel37</name>
<cmt>q</cmt>
<desc>Elouges Sentier n°37 </desc>
<link href="https://chemins.be/elouges/sentier/37"/><trkseg>
<trkpt lat="50.389876" lon="3.777036"><time>2026-05-04T15:17:53Z</time></trkpt>
<trkpt lat="50.389183" lon="3.776793"><time>2026-05-04T15:27:53Z</time></trkpt>
<trkpt lat="50.388515" lon="3.777308"><time>2026-05-04T15:37:53Z</time></trkpt>
</trkseg>
</trk>
<trk>
<name>hdoel38</name>
<cmt>q</cmt>
<desc>Elouges Sentier n°38 </desc>
<link href="https://chemins.be/elouges/sentier/38"/><trkseg>
<trkpt lat="50.376328" lon="3.776904"><time>2026-05-04T15:17:53Z</time></trkpt>
<trkpt lat="50.374062" lon="3.779050"><time>2026-05-04T15:27:53Z</time></trkpt>
</trkseg>
</trk>
<trk>
<name>hdoel39</name>
<cmt>q</cmt>
<desc>Elouges Sentier n°39 </desc>
<link href="https://chemins.be/elouges/sentier/39"/><trkseg>
<trkpt lat="50.386530" lon="3.777862"><time>2026-05-04T15:17:53Z</time></trkpt>
<trkpt lat="50.387316" lon="3.779798"><time>2026-05-04T15:27:53Z</time></trkpt>
</trkseg>
</trk>
<trk>
<name>hdoel41</name>
<cmt>v</cmt>
<desc>Elouges Sentier n°41 </desc>
<link href="https://chemins.be/elouges/sentier/41"/><trkseg>
<trkpt lat="50.393849" lon="3.764904"><time>2026-05-04T15:17:53Z</time></trkpt>
<trkpt lat="50.395032" lon="3.762329"><time>2026-05-04T15:27:53Z</time></trkpt>
<trkpt lat="50.395183" lon="3.761750"><time>2026-05-04T15:37:53Z</time></trkpt>
</trkseg>
</trk>
<trk>
<name>hdoel42</name>
<cmt>q</cmt>
<desc>Elouges Sentier n°42 </desc>
<link href="https://chemins.be/elouges/sentier/42"/><trkseg>
<trkpt lat="50.393883" lon="3.759373"><time>2026-05-04T15:17:53Z</time></trkpt>
<trkpt lat="50.394813" lon="3.760039"><time>2026-05-04T15:27:53Z</time></trkpt>
</trkseg>
</trk>
<trk>
<name>hdoel43</name>
<cmt>v</cmt>
<desc>Elouges Sentier n°43 Rue de la Perche</desc>
<link href="https://chemins.be/elouges/sentier/43"/><trkseg>
<trkpt lat="50.400391" lon="3.752136"><time>2026-05-04T15:17:53Z</time></trkpt>
<trkpt lat="50.400217" lon="3.753123"><time>2026-05-04T15:27:53Z</time></trkpt>
</trkseg></trk>
<trk>
<name>hdoel43</name>
<cmt>r</cmt>
<desc>Elouges Sentier n°43 Rue de la Perche</desc>
<link href="https://chemins.be/elouges/sentier/43"/><trkseg>
<trkpt lat="50.400217" lon="3.753123"><time>2026-05-04T15:27:53Z</time></trkpt>
<trkpt lat="50.400523" lon="3.753316"><time>2026-05-04T15:37:53Z</time></trkpt>
<trkpt lat="50.400730" lon="3.753369"><time>2026-05-04T15:47:53Z</time></trkpt>
</trkseg>
</trk>
<trk>
<name>hdoel45</name>
<cmt>q</cmt>
<desc>Elouges Sentier n°45 </desc>
<link href="https://chemins.be/elouges/sentier/45"/><trkseg>
<trkpt lat="50.394868" lon="3.757190"><time>2026-05-04T15:17:53Z</time></trkpt>
<trkpt lat="50.394444" lon="3.756976"><time>2026-05-04T15:27:53Z</time></trkpt>
<trkpt lat="50.394239" lon="3.756343"><time>2026-05-04T15:37:53Z</time></trkpt>
<trkpt lat="50.394328" lon="3.755624"><time>2026-05-04T15:47:53Z</time></trkpt>
<trkpt lat="50.394136" lon="3.755409"><time>2026-05-04T15:57:53Z</time></trkpt>
<trkpt lat="50.393917" lon="3.754562"><time>2026-05-04T16:07:53Z</time></trkpt>
<trkpt lat="50.393750" lon="3.754537"><time>2026-05-04T16:17:53Z</time></trkpt>
</trkseg></trk>
<trk>
<name>hdoel45</name>
<cmt>d</cmt>
<desc>Elouges Sentier n°45 </desc>
<link href="https://chemins.be/elouges/sentier/45"/><trkseg>
<trkpt lat="50.393750" lon="3.754537"><time>2026-05-04T16:17:53Z</time></trkpt>
<trkpt lat="50.392389" lon="3.754387"><time>2026-05-04T16:27:53Z</time></trkpt>
</trkseg>
</trk>
<trk>
<name>hdoel46</name>
<cmt>d</cmt>
<desc>Elouges Sentier n°46 </desc>
<link href="https://chemins.be/elouges/sentier/46"/><trkseg>
<trkpt lat="50.390908" lon="3.743658"><time>2026-05-04T15:17:53Z</time></trkpt>
<trkpt lat="50.389868" lon="3.739391"><time>2026-05-04T15:27:53Z</time></trkpt>
</trkseg>
</trk>
<trk>
<name>hdoel47</name>
<cmt>v</cmt>
<desc>Elouges Sentier n°47 </desc>
<link href="https://chemins.be/elouges/sentier/47"/><trkseg>
<trkpt lat="50.395362" lon="3.750787"><time>2026-05-04T15:17:53Z</time></trkpt>
<trkpt lat="50.395431" lon="3.749615"><time>2026-05-04T15:27:53Z</time></trkpt>
<trkpt lat="50.395503" lon="3.749545"><time>2026-05-04T15:37:53Z</time></trkpt>
</trkseg>
</trk>
<trk>
<name>hdoel49</name>
<cmt>q</cmt>
<desc>Elouges Sentier n°49 Rue des Andrieux</desc>
<link href="https://chemins.be/elouges/sentier/49"/><trkseg>
<trkpt lat="50.402402" lon="3.756131"><time>2026-05-04T15:17:53Z</time></trkpt>
<trkpt lat="50.402347" lon="3.757453"><time>2026-05-04T15:27:53Z</time></trkpt>
</trkseg>
</trk>
<trk>
<name>hdoel5</name>
<cmt>v</cmt>
<desc>Elouges Chemin n°5 </desc>
<link href="https://chemins.be/elouges/chemin/5"/><trkseg>
<trkpt lat="50.402287" lon="3.743517"><time>2026-05-04T15:17:53Z</time></trkpt>
<trkpt lat="50.402861" lon="3.742852"><time>2026-05-04T15:27:53Z</time></trkpt>
</trkseg></trk>
<trk>
<name>hdoel5</name>
<cmt>d</cmt>
<desc>Elouges Chemin n°5 </desc>
<link href="https://chemins.be/elouges/chemin/5"/><trkseg>
<trkpt lat="50.402861" lon="3.742852"><time>2026-05-04T15:27:53Z</time></trkpt>
<trkpt lat="50.403121" lon="3.741907"><time>2026-05-04T15:37:53Z</time></trkpt>
<trkpt lat="50.404147" lon="3.740813"><time>2026-05-04T15:47:53Z</time></trkpt>
<trkpt lat="50.404740" lon="3.739928"><time>2026-05-04T15:57:53Z</time></trkpt>
<trkpt lat="50.405145" lon="3.737036"><time>2026-05-04T16:07:53Z</time></trkpt>
<trkpt lat="50.405966" lon="3.730577"><time>2026-05-04T16:17:53Z</time></trkpt>
<trkpt lat="50.406225" lon="3.728091"><time>2026-05-04T16:27:53Z</time></trkpt>
</trkseg>
</trk>
<trk>
<name>hdoel51</name>
<cmt>v</cmt>
<desc>Elouges Sentier n°51 </desc>
<link href="https://chemins.be/elouges/sentier/51"/><trkseg>
<trkpt lat="50.405692" lon="3.752514"><time>2026-05-04T15:17:53Z</time></trkpt>
<trkpt lat="50.405804" lon="3.752156"><time>2026-05-04T15:27:53Z</time></trkpt>
<trkpt lat="50.406033" lon="3.751809"><time>2026-05-04T15:37:53Z</time></trkpt>
<trkpt lat="50.406353" lon="3.751015"><time>2026-05-04T15:47:53Z</time></trkpt>
<trkpt lat="50.406368" lon="3.750798"><time>2026-05-04T15:57:53Z</time></trkpt>
</trkseg></trk>
<trk>
<name>hdoel51</name>
<cmt>q</cmt>
<desc>Elouges Sentier n°51 </desc>
<link href="https://chemins.be/elouges/sentier/51"/><trkseg>
<trkpt lat="50.406368" lon="3.750798"><time>2026-05-04T15:57:53Z</time></trkpt>
<trkpt lat="50.406769" lon="3.748234"><time>2026-05-04T16:07:53Z</time></trkpt>
<trkpt lat="50.407133" lon="3.746442"><time>2026-05-04T16:17:53Z</time></trkpt>
<trkpt lat="50.408069" lon="3.744706"><time>2026-05-04T16:27:53Z</time></trkpt>
<trkpt lat="50.409265" lon="3.744256"><time>2026-05-04T16:37:53Z</time></trkpt>
<trkpt lat="50.411344" lon="3.744416"><time>2026-05-04T16:47:53Z</time></trkpt>
</trkseg>
</trk>
<trk>
<name>hdoel52</name>
<cmt>v</cmt>
<desc>Elouges Sentier n°52 </desc>
<link href="https://chemins.be/elouges/sentier/52"/><trkseg>
<trkpt lat="50.405734" lon="3.746139"><time>2026-05-04T15:17:53Z</time></trkpt>
<trkpt lat="50.405964" lon="3.744919"><time>2026-05-04T15:27:53Z</time></trkpt>
<trkpt lat="50.406974" lon="3.742238"><time>2026-05-04T15:37:53Z</time></trkpt>
<trkpt lat="50.407190" lon="3.741383"><time>2026-05-04T15:47:53Z</time></trkpt>
<trkpt lat="50.407684" lon="3.739428"><time>2026-05-04T15:57:53Z</time></trkpt>
<trkpt lat="50.408724" lon="3.734338"><time>2026-05-04T16:07:53Z</time></trkpt>
<trkpt lat="50.409434" lon="3.732748"><time>2026-05-04T16:17:53Z</time></trkpt>
</trkseg>
</trk>
<trk>
<name>hdoel54</name>
<cmt>q</cmt>
<desc>Elouges Sentier n°54 Rue d'Audregnies</desc>
<link href="https://chemins.be/elouges/sentier/54"/><trkseg>
<trkpt lat="50.400872" lon="3.745748"><time>2026-05-04T15:17:53Z</time></trkpt>
<trkpt lat="50.400217" lon="3.745472"><time>2026-05-04T15:27:53Z</time></trkpt>
</trkseg></trk>
<trk>
<name>hdoel54</name>
<cmt>s</cmt>
<desc>Elouges Sentier n°54 Rue d'Audregnies</desc>
<link href="https://chemins.be/elouges/sentier/54"/><trkseg>
<trkpt lat="50.400217" lon="3.745472"><time>2026-05-04T15:27:53Z</time></trkpt>
<trkpt lat="50.399945" lon="3.745357"><time>2026-05-04T15:37:53Z</time></trkpt>
</trkseg></trk>
<trk>
<name>hdoel54</name>
<cmt>r</cmt>
<desc>Elouges Sentier n°54 Rue d'Audregnies</desc>
<link href="https://chemins.be/elouges/sentier/54"/><trkseg>
<trkpt lat="50.399945" lon="3.745357"><time>2026-05-04T15:37:53Z</time></trkpt>
<trkpt lat="50.399168" lon="3.742572"><time>2026-05-04T15:47:53Z</time></trkpt>
</trkseg>
</trk>
<trk>
<name>hdoel6</name>
<cmt>v</cmt>
<desc>Elouges Chemin n°6 </desc>
<link href="https://chemins.be/elouges/chemin/6"/><trkseg>
<trkpt lat="50.416968" lon="3.735813"><time>2026-05-04T15:17:53Z</time></trkpt>
<trkpt lat="50.414767" lon="3.735491"><time>2026-05-04T15:27:53Z</time></trkpt>
<trkpt lat="50.414025" lon="3.734370"><time>2026-05-04T15:37:53Z</time></trkpt>
<trkpt lat="50.409475" lon="3.732723"><time>2026-05-04T15:47:53Z</time></trkpt>
<trkpt lat="50.406753" lon="3.731564"><time>2026-05-04T15:57:53Z</time></trkpt>
<trkpt lat="50.405988" lon="3.730620"><time>2026-05-04T16:07:53Z</time></trkpt>
<trkpt lat="50.404346" lon="3.729118"><time>2026-05-04T16:17:53Z</time></trkpt>
<trkpt lat="50.403416" lon="3.728667"><time>2026-05-04T16:27:53Z</time></trkpt>
<trkpt lat="50.402965" lon="3.728303"><time>2026-05-04T16:37:53Z</time></trkpt>
<trkpt lat="50.402357" lon="3.728421"><time>2026-05-04T16:47:53Z</time></trkpt>
<trkpt lat="50.401680" lon="3.728152"><time>2026-05-04T16:57:53Z</time></trkpt>
<trkpt lat="50.401023" lon="3.727938"><time>2026-05-04T17:07:53Z</time></trkpt>
<trkpt lat="50.400230" lon="3.728174"><time>2026-05-04T17:17:53Z</time></trkpt>
<trkpt lat="50.397480" lon="3.725857"><time>2026-05-04T17:27:53Z</time></trkpt>
</trkseg>
</trk>
<trk>
<name>hdoel7</name>
<cmt>v</cmt>
<desc>Elouges Chemin n°7 Rue du Plat-Pied / Rue du Plat Pied</desc>
<link href="https://chemins.be/elouges/chemin/7"/><trkseg>
<trkpt lat="50.408936" lon="3.754123"><time>2026-05-04T15:17:53Z</time></trkpt>
<trkpt lat="50.410402" lon="3.755329"><time>2026-05-04T15:27:53Z</time></trkpt>
<trkpt lat="50.411388" lon="3.755806"><time>2026-05-04T15:37:53Z</time></trkpt>
<trkpt lat="50.411952" lon="3.756981"><time>2026-05-04T15:47:53Z</time></trkpt>
<trkpt lat="50.412957" lon="3.758290"><time>2026-05-04T15:57:53Z</time></trkpt>
<trkpt lat="50.414419" lon="3.759355"><time>2026-05-04T16:07:53Z</time></trkpt>
<trkpt lat="50.415550" lon="3.760719"><time>2026-05-04T16:17:53Z</time></trkpt>
<trkpt lat="50.415923" lon="3.761615"><time>2026-05-04T16:27:53Z</time></trkpt>
<trkpt lat="50.416077" lon="3.761880"><time>2026-05-04T16:37:53Z</time></trkpt>
</trkseg>
</trk>
<trk>
<name>hdoel8</name>
<cmt>r</cmt>
<desc>Elouges Chemin n°8 </desc>
<link href="https://chemins.be/elouges/chemin/8"/><trkseg>
<trkpt lat="50.398403" lon="3.739823"><time>2026-05-04T15:17:53Z</time></trkpt>
<trkpt lat="50.399480" lon="3.736394"><time>2026-05-04T15:27:53Z</time></trkpt>
</trkseg></trk>
<trk>
<name>hdoel8</name>
<cmt>v</cmt>
<desc>Elouges Chemin n°8 </desc>
<link href="https://chemins.be/elouges/chemin/8"/><trkseg>
<trkpt lat="50.399480" lon="3.736394"><time>2026-05-04T15:27:53Z</time></trkpt>
<trkpt lat="50.399704" lon="3.734703"><time>2026-05-04T15:37:53Z</time></trkpt>
<trkpt lat="50.397739" lon="3.730495"><time>2026-05-04T15:47:53Z</time></trkpt>
<trkpt lat="50.397032" lon="3.727875"><time>2026-05-04T15:57:53Z</time></trkpt>
<trkpt lat="50.396632" lon="3.726994"><time>2026-05-04T16:07:53Z</time></trkpt>
</trkseg>
</trk>
<trk>
<name>hdoel9</name>
<cmt>v</cmt>
<desc>Elouges Chemin n°9 Avenue Victor Regnard</desc>
<link href="https://chemins.be/elouges/chemin/9"/><trkseg>
<trkpt lat="50.392933" lon="3.759809"><time>2026-05-04T15:17:53Z</time></trkpt>
<trkpt lat="50.392843" lon="3.760079"><time>2026-05-04T15:27:53Z</time></trkpt>
<trkpt lat="50.392783" lon="3.760179"><time>2026-05-04T15:37:53Z</time></trkpt>
<trkpt lat="50.392433" lon="3.760589"><time>2026-05-04T15:47:53Z</time></trkpt>
<trkpt lat="50.391613" lon="3.762079"><time>2026-05-04T15:57:53Z</time></trkpt>
<trkpt lat="50.391343" lon="3.762409"><time>2026-05-04T16:07:53Z</time></trkpt>
<trkpt lat="50.391223" lon="3.762579"><time>2026-05-04T16:17:53Z</time></trkpt>
<trkpt lat="50.390913" lon="3.762749"><time>2026-05-04T16:27:53Z</time></trkpt>
<trkpt lat="50.390793" lon="3.762839"><time>2026-05-04T16:37:53Z</time></trkpt>
<trkpt lat="50.390753" lon="3.762919"><time>2026-05-04T16:47:53Z</time></trkpt>
<trkpt lat="50.390723" lon="3.763059"><time>2026-05-04T16:57:53Z</time></trkpt>
<trkpt lat="50.390513" lon="3.764269"><time>2026-05-04T17:07:53Z</time></trkpt>
<trkpt lat="50.390373" lon="3.764709"><time>2026-05-04T17:17:53Z</time></trkpt>
<trkpt lat="50.390273" lon="3.764889"><time>2026-05-04T17:27:53Z</time></trkpt>
<trkpt lat="50.389823" lon="3.765570"><time>2026-05-04T17:37:53Z</time></trkpt>
<trkpt lat="50.389073" lon="3.767030"><time>2026-05-04T17:47:53Z</time></trkpt>
<trkpt lat="50.387943" lon="3.769230"><time>2026-05-04T17:57:53Z</time></trkpt>
<trkpt lat="50.385853" lon="3.770000"><time>2026-05-04T18:07:53Z</time></trkpt>
<trkpt lat="50.384345" lon="3.770049"><time>2026-05-04T18:17:53Z</time></trkpt>
<trkpt lat="50.383880" lon="3.770098"><time>2026-05-04T18:27:53Z</time></trkpt>
<trkpt lat="50.383552" lon="3.770264"><time>2026-05-04T18:37:53Z</time></trkpt>
<trkpt lat="50.382740" lon="3.771100"><time>2026-05-04T18:47:53Z</time></trkpt>
<trkpt lat="50.382630" lon="3.771409"><time>2026-05-04T18:57:53Z</time></trkpt>
<trkpt lat="50.382567" lon="3.772281"><time>2026-05-04T19:07:53Z</time></trkpt>
<trkpt lat="50.379611" lon="3.774212"><time>2026-05-04T19:17:53Z</time></trkpt>
<trkpt lat="50.378270" lon="3.777002"><time>2026-05-04T19:27:53Z</time></trkpt>
</trkseg>
</trk>
<trk>
<name>hdoeli1</name>
<cmt>v</cmt>
<desc>Elouges Sentier n°i1 </desc>
<link href="https://chemins.be/elouges/sentier/i1"/><trkseg>
<trkpt lat="50.406711" lon="3.753742"><time>2026-05-04T15:17:53Z</time></trkpt>
<trkpt lat="50.406351" lon="3.753719"><time>2026-05-04T15:27:53Z</time></trkpt>
<trkpt lat="50.406213" lon="3.754705"><time>2026-05-04T15:37:53Z</time></trkpt>
<trkpt lat="50.405376" lon="3.754589"><time>2026-05-04T15:47:53Z</time></trkpt>
<trkpt lat="50.405343" lon="3.755082"><time>2026-05-04T15:57:53Z</time></trkpt>
</trkseg>
</trk>
<trk>
<name>hdoeli10</name>
<cmt>v</cmt>
<desc>Elouges Sentier n°i10 </desc>
<link href="https://chemins.be/elouges/sentier/i10"/><trkseg>
<trkpt lat="50.394124" lon="3.750741"><time>2026-05-04T15:17:53Z</time></trkpt>
<trkpt lat="50.394085" lon="3.751199"><time>2026-05-04T15:27:53Z</time></trkpt>
<trkpt lat="50.393943" lon="3.751635"><time>2026-05-04T15:37:53Z</time></trkpt>
</trkseg>
</trk>
<trk>
<name>hdoeli11</name>
<cmt>v</cmt>
<desc>Elouges Sentier n°i11 </desc>
<link href="https://chemins.be/elouges/sentier/i11"/><trkseg>
<trkpt lat="50.400277" lon="3.739641"><time>2026-05-04T15:17:53Z</time></trkpt>
<trkpt lat="50.400297" lon="3.740558"><time>2026-05-04T15:27:53Z</time></trkpt>
<trkpt lat="50.400484" lon="3.740714"><time>2026-05-04T15:37:53Z</time></trkpt>
<trkpt lat="50.400592" lon="3.740928"><time>2026-05-04T15:47:53Z</time></trkpt>
<trkpt lat="50.400753" lon="3.740922"><time>2026-05-04T15:57:53Z</time></trkpt>
<trkpt lat="50.401218" lon="3.741182"><time>2026-05-04T16:07:53Z</time></trkpt>
</trkseg>
</trk>
<trk>
<name>hdoeli2</name>
<cmt>v</cmt>
<desc>Elouges Sentier n°i2 </desc>
<link href="https://chemins.be/elouges/sentier/i2"/><trkseg>
<trkpt lat="50.398804" lon="3.756289"><time>2026-05-04T15:17:53Z</time></trkpt>
<trkpt lat="50.398924" lon="3.756329"><time>2026-05-04T15:27:53Z</time></trkpt>
<trkpt lat="50.399495" lon="3.756545"><time>2026-05-04T15:37:53Z</time></trkpt>
<trkpt lat="50.399738" lon="3.756851"><time>2026-05-04T15:47:53Z</time></trkpt>
<trkpt lat="50.400199" lon="3.756915"><time>2026-05-04T15:57:53Z</time></trkpt>
<trkpt lat="50.400347" lon="3.756609"><time>2026-05-04T16:07:53Z</time></trkpt>
<trkpt lat="50.400424" lon="3.756479"><time>2026-05-04T16:17:53Z</time></trkpt>
<trkpt lat="50.400494" lon="3.756429"><time>2026-05-04T16:27:53Z</time></trkpt>
<trkpt lat="50.400554" lon="3.756359"><time>2026-05-04T16:37:53Z</time></trkpt>
<trkpt lat="50.400624" lon="3.756259"><time>2026-05-04T16:47:53Z</time></trkpt>
<trkpt lat="50.400654" lon="3.756179"><time>2026-05-04T16:57:53Z</time></trkpt>
<trkpt lat="50.400674" lon="3.756089"><time>2026-05-04T17:07:53Z</time></trkpt>
<trkpt lat="50.400874" lon="3.755239"><time>2026-05-04T17:17:53Z</time></trkpt>
<trkpt lat="50.400904" lon="3.755209"><time>2026-05-04T17:27:53Z</time></trkpt>
</trkseg>
</trk>
<trk>
<name>hdoeli3</name>
<cmt>q</cmt>
<desc>Elouges Chemin n°i3 </desc>
<link href="https://chemins.be/elouges/chemin/i3"/><trkseg>
<trkpt lat="50.396195" lon="3.767849"><time>2026-05-04T15:17:53Z</time></trkpt>
<trkpt lat="50.395320" lon="3.766433"><time>2026-05-04T15:27:53Z</time></trkpt>
<trkpt lat="50.394330" lon="3.763889"><time>2026-05-04T15:37:53Z</time></trkpt>
<trkpt lat="50.394184" lon="3.763515"><time>2026-05-04T15:47:53Z</time></trkpt>
<trkpt lat="50.393090" lon="3.760393"><time>2026-05-04T15:57:53Z</time></trkpt>
<trkpt lat="50.393001" lon="3.759819"><time>2026-05-04T16:07:53Z</time></trkpt>
</trkseg></trk>
<trk>
<name>hdoeli3</name>
<cmt>s</cmt>
<desc>Elouges Chemin n°i3 </desc>
<link href="https://chemins.be/elouges/chemin/i3"/><trkseg>
<trkpt lat="50.393001" lon="3.759819"><time>2026-05-04T16:07:53Z</time></trkpt>
<trkpt lat="50.393254" lon="3.756911"><time>2026-05-04T16:17:53Z</time></trkpt>
<trkpt lat="50.393596" lon="3.754374"><time>2026-05-04T16:27:53Z</time></trkpt>
<trkpt lat="50.393713" lon="3.753367"><time>2026-05-04T16:37:53Z</time></trkpt>
</trkseg></trk>
<trk>
<name>hdoeli3</name>
<cmt>v</cmt>
<desc>Elouges Chemin n°i3 </desc>
<link href="https://chemins.be/elouges/chemin/i3"/><trkseg>
<trkpt lat="50.393713" lon="3.753367"><time>2026-05-04T16:37:53Z</time></trkpt>
<trkpt lat="50.393946" lon="3.751621"><time>2026-05-04T16:47:53Z</time></trkpt>
<trkpt lat="50.393982" lon="3.750752"><time>2026-05-04T16:57:53Z</time></trkpt>
<trkpt lat="50.394150" lon="3.748274"><time>2026-05-04T17:07:53Z</time></trkpt>
<trkpt lat="50.394389" lon="3.745721"><time>2026-05-04T17:17:53Z</time></trkpt>
<trkpt lat="50.394471" lon="3.743996"><time>2026-05-04T17:27:53Z</time></trkpt>
<trkpt lat="50.394632" lon="3.742864"><time>2026-05-04T17:37:53Z</time></trkpt>
</trkseg></trk>
<trk>
<name>hdoeli3</name>
<cmt>q</cmt>
<desc>Elouges Chemin n°i3 </desc>
<link href="https://chemins.be/elouges/chemin/i3"/><trkseg>
<trkpt lat="50.394632" lon="3.742864"><time>2026-05-04T17:37:53Z</time></trkpt>
<trkpt lat="50.394677" lon="3.739675"><time>2026-05-04T17:47:53Z</time></trkpt>
<trkpt lat="50.395066" lon="3.737728"><time>2026-05-04T17:57:53Z</time></trkpt>
<trkpt lat="50.395306" lon="3.736843"><time>2026-05-04T18:07:53Z</time></trkpt>
<trkpt lat="50.395696" lon="3.736516"><time>2026-05-04T18:17:53Z</time></trkpt>
</trkseg>
</trk>
<trk>
<name>hdoeli4</name>
<cmt>v</cmt>
<desc>Elouges Sentier n°i4 </desc>
<link href="https://chemins.be/elouges/sentier/i4"/><trkseg>
<trkpt lat="50.402917" lon="3.757053"><time>2026-05-04T15:17:53Z</time></trkpt>
<trkpt lat="50.402979" lon="3.756174"><time>2026-05-04T15:27:53Z</time></trkpt>
</trkseg>
</trk>
<trk>
<name>hdoeli5</name>
<cmt>v</cmt>
<desc>Elouges Sentier n°i5 </desc>
<link href="https://chemins.be/elouges/sentier/i5"/><trkseg>
<trkpt lat="50.394772" lon="3.757753"><time>2026-05-04T15:17:53Z</time></trkpt>
<trkpt lat="50.394666" lon="3.757592"><time>2026-05-04T15:27:53Z</time></trkpt>
<trkpt lat="50.394519" lon="3.757592"><time>2026-05-04T15:37:53Z</time></trkpt>
</trkseg>
</trk>
<trk>
<name>hdoeli6</name>
<cmt>v</cmt>
<desc>Elouges Chemin n°i6 </desc>
<link href="https://chemins.be/elouges/chemin/i6"/><trkseg>
<trkpt lat="50.414799" lon="3.735506"><time>2026-05-04T15:17:53Z</time></trkpt>
<trkpt lat="50.414394" lon="3.740467"><time>2026-05-04T15:27:53Z</time></trkpt>
<trkpt lat="50.414482" lon="3.740913"><time>2026-05-04T15:37:53Z</time></trkpt>
<trkpt lat="50.414328" lon="3.741360"><time>2026-05-04T15:47:53Z</time></trkpt>
<trkpt lat="50.413683" lon="3.741102"><time>2026-05-04T15:57:53Z</time></trkpt>
<trkpt lat="50.411222" lon="3.741411"><time>2026-05-04T16:07:53Z</time></trkpt>
</trkseg>
</trk>
<trk>
<name>hdoeli7</name>
<cmt>v</cmt>
<desc>Elouges Chemin n°i7 </desc>
<link href="https://chemins.be/elouges/chemin/i7"/><trkseg>
<trkpt lat="50.400137" lon="3.756910"><time>2026-05-04T15:17:53Z</time></trkpt>
<trkpt lat="50.400049" lon="3.758691"><time>2026-05-04T15:27:53Z</time></trkpt>
<trkpt lat="50.400700" lon="3.759120"><time>2026-05-04T15:37:53Z</time></trkpt>
<trkpt lat="50.401335" lon="3.759747"><time>2026-05-04T15:47:53Z</time></trkpt>
<trkpt lat="50.401816" lon="3.760017"><time>2026-05-04T15:57:53Z</time></trkpt>
</trkseg>
</trk>
<trk>
<name>hdoeli8</name>
<cmt>v</cmt>
<desc>Elouges Sentier n°i8 </desc>
<link href="https://chemins.be/elouges/sentier/i8"/><trkseg>
<trkpt lat="50.406360" lon="3.755261"><time>2026-05-04T15:17:53Z</time></trkpt>
<trkpt lat="50.406346" lon="3.755538"><time>2026-05-04T15:27:53Z</time></trkpt>
<trkpt lat="50.406160" lon="3.756278"><time>2026-05-04T15:37:53Z</time></trkpt>
</trkseg>
</trk>
<trk>
<name>hdoeli9</name>
<cmt>v</cmt>
<desc>Elouges Sentier n°i9 </desc>
<link href="https://chemins.be/elouges/sentier/i9"/><trkseg>
<trkpt lat="50.394031" lon="3.755838"><time>2026-05-04T15:17:53Z</time></trkpt>
<trkpt lat="50.393882" lon="3.755208"><time>2026-05-04T15:27:53Z</time></trkpt>
<trkpt lat="50.393803" lon="3.754515"><time>2026-05-04T15:37:53Z</time></trkpt>
<trkpt lat="50.393735" lon="3.753363"><time>2026-05-04T15:47:53Z</time></trkpt>
</trkseg>
</trk>
<trk>
<name>hdoelL98</name>
<cmt>v</cmt>
<desc>Elouges Chemin n°L98 RAVeL de la Ligne 98</desc>
<link href="https://chemins.be/elouges/chemin/L98"/><trkseg>
<trkpt lat="50.403452" lon="3.728013"><time>2026-05-04T15:17:53Z</time></trkpt>
<trkpt lat="50.403496" lon="3.731051"><time>2026-05-04T15:27:53Z</time></trkpt>
<trkpt lat="50.403124" lon="3.733687"><time>2026-05-04T15:37:53Z</time></trkpt>
<trkpt lat="50.401539" lon="3.739897"><time>2026-05-04T15:47:53Z</time></trkpt>
<trkpt lat="50.400015" lon="3.745684"><time>2026-05-04T15:57:53Z</time></trkpt>
<trkpt lat="50.398853" lon="3.750327"><time>2026-05-04T16:07:53Z</time></trkpt>
<trkpt lat="50.398637" lon="3.752004"><time>2026-05-04T16:17:53Z</time></trkpt>
<trkpt lat="50.398349" lon="3.755285"><time>2026-05-04T16:27:53Z</time></trkpt>
<trkpt lat="50.398204" lon="3.756693"><time>2026-05-04T16:37:53Z</time></trkpt>
<trkpt lat="50.398285" lon="3.758563"><time>2026-05-04T16:47:53Z</time></trkpt>
<trkpt lat="50.398345" lon="3.763134"><time>2026-05-04T16:57:53Z</time></trkpt>
<trkpt lat="50.398531" lon="3.764242"><time>2026-05-04T17:07:53Z</time></trkpt>
<trkpt lat="50.398932" lon="3.765419"><time>2026-05-04T17:17:53Z</time></trkpt>
<trkpt lat="50.399278" lon="3.766118"><time>2026-05-04T17:27:53Z</time></trkpt>
</trkseg>
</trk>
<trk>
<name>hdoelL98A</name>
<cmt>v</cmt>
<desc>Elouges Chemin n°L98A RAVeL de la Ligne 98A</desc>
<link href="https://chemins.be/elouges/chemin/L98A"/><trkseg>
<trkpt lat="50.391393" lon="3.736618"><time>2026-05-04T15:17:53Z</time></trkpt>
<trkpt lat="50.393943" lon="3.742149"><time>2026-05-04T15:27:53Z</time></trkpt>
<trkpt lat="50.394493" lon="3.743999"><time>2026-05-04T15:37:53Z</time></trkpt>
<trkpt lat="50.394833" lon="3.746679"><time>2026-05-04T15:47:53Z</time></trkpt>
<trkpt lat="50.394554" lon="3.748202"><time>2026-05-04T15:57:53Z</time></trkpt>
<trkpt lat="50.394479" lon="3.748974"><time>2026-05-04T16:07:53Z</time></trkpt>
<trkpt lat="50.394554" lon="3.749339"><time>2026-05-04T16:17:53Z</time></trkpt>
<trkpt lat="50.394281" lon="3.750766"><time>2026-05-04T16:27:53Z</time></trkpt>
<trkpt lat="50.393931" lon="3.752925"><time>2026-05-04T16:37:53Z</time></trkpt>
<trkpt lat="50.393883" lon="3.754019"><time>2026-05-04T16:47:53Z</time></trkpt>
<trkpt lat="50.393879" lon="3.754535"><time>2026-05-04T16:57:53Z</time></trkpt>
<trkpt lat="50.394003" lon="3.755759"><time>2026-05-04T17:07:53Z</time></trkpt>
<trkpt lat="50.394183" lon="3.756789"><time>2026-05-04T17:17:53Z</time></trkpt>
<trkpt lat="50.394683" lon="3.757889"><time>2026-05-04T17:27:53Z</time></trkpt>
<trkpt lat="50.395443" lon="3.759559"><time>2026-05-04T17:37:53Z</time></trkpt>
<trkpt lat="50.397524" lon="3.763159"><time>2026-05-04T17:47:53Z</time></trkpt>
<trkpt lat="50.398817" lon="3.765112"><time>2026-05-04T17:57:53Z</time></trkpt>
</trkseg>
</trk>
<trk>
<name>hdowh1</name>
<cmt>v</cmt>
<desc>Wihéries Chemin n°1 </desc>
<link href="https://chemins.be/wiheries/chemin/1"/><trkseg>
<trkpt lat="50.362537" lon="3.762812"><time>2026-05-04T15:17:53Z</time></trkpt>
<trkpt lat="50.362225" lon="3.762453"><time>2026-05-04T15:27:53Z</time></trkpt>
<trkpt lat="50.361989" lon="3.761407"><time>2026-05-04T15:37:53Z</time></trkpt>
<trkpt lat="50.361756" lon="3.760747"><time>2026-05-04T15:47:53Z</time></trkpt>
</trkseg>
</trk>
<trk>
<name>hdowh10</name>
<cmt>v</cmt>
<desc>Wihéries Chemin n°10 </desc>
<link href="https://chemins.be/wiheries/chemin/10"/><trkseg>
<trkpt lat="50.385107" lon="3.766572"><time>2026-05-04T15:17:53Z</time></trkpt>
<trkpt lat="50.384672" lon="3.766433"><time>2026-05-04T15:27:53Z</time></trkpt>
<trkpt lat="50.377157" lon="3.765414"><time>2026-05-04T15:37:53Z</time></trkpt>
<trkpt lat="50.375536" lon="3.764051"><time>2026-05-04T15:47:53Z</time></trkpt>
<trkpt lat="50.374301" lon="3.764354"><time>2026-05-04T15:57:53Z</time></trkpt>
</trkseg>
</trk>
<trk>
<name>hdowh11</name>
<cmt>v</cmt>
<desc>Wihéries Chemin n°11 </desc>
<link href="https://chemins.be/wiheries/chemin/11"/><trkseg>
<trkpt lat="50.379905" lon="3.755250"><time>2026-05-04T15:17:53Z</time></trkpt>
<trkpt lat="50.379778" lon="3.756365"><time>2026-05-04T15:27:53Z</time></trkpt>
<trkpt lat="50.379689" lon="3.757085"><time>2026-05-04T15:37:53Z</time></trkpt>
</trkseg>
</trk>
<trk>
<name>hdowh12</name>
<cmt>v</cmt>
<desc>Wihéries Sentier n°12 Avenue Victor Regnart</desc>
<link href="https://chemins.be/wiheries/sentier/12"/><trkseg>
<trkpt lat="50.381967" lon="3.755447"><time>2026-05-04T15:17:53Z</time></trkpt>
<trkpt lat="50.381830" lon="3.757292"><time>2026-05-04T15:27:53Z</time></trkpt>
</trkseg></trk>
<trk>
<name>hdowh12</name>
<cmt>d</cmt>
<desc>Wihéries Sentier n°12 Avenue Victor Regnart</desc>
<link href="https://chemins.be/wiheries/sentier/12"/><trkseg>
<trkpt lat="50.381830" lon="3.757292"><time>2026-05-04T15:27:53Z</time></trkpt>
<trkpt lat="50.383009" lon="3.757794"><time>2026-05-04T15:37:53Z</time></trkpt>
<trkpt lat="50.383841" lon="3.758188"><time>2026-05-04T15:47:53Z</time></trkpt>
<trkpt lat="50.385079" lon="3.759888"><time>2026-05-04T15:57:53Z</time></trkpt>
</trkseg></trk>
<trk>
<name>hdowh12</name>
<cmt>r</cmt>
<desc>Wihéries Sentier n°12 Avenue Victor Regnart</desc>
<link href="https://chemins.be/wiheries/sentier/12"/><trkseg>
<trkpt lat="50.385079" lon="3.759888"><time>2026-05-04T15:57:53Z</time></trkpt>
<trkpt lat="50.385576" lon="3.759946"><time>2026-05-04T16:07:53Z</time></trkpt>
<trkpt lat="50.385807" lon="3.761929"><time>2026-05-04T16:17:53Z</time></trkpt>
<trkpt lat="50.386903" lon="3.762457"><time>2026-05-04T16:27:53Z</time></trkpt>
<trkpt lat="50.386885" lon="3.763112"><time>2026-05-04T16:37:53Z</time></trkpt>
<trkpt lat="50.387021" lon="3.763507"><time>2026-05-04T16:47:53Z</time></trkpt>
</trkseg></trk>
<trk>
<name>hdowh12</name>
<cmt>v</cmt>
<desc>Wihéries Sentier n°12 Avenue Victor Regnart</desc>
<link href="https://chemins.be/wiheries/sentier/12"/><trkseg>
<trkpt lat="50.387021" lon="3.763507"><time>2026-05-04T16:47:53Z</time></trkpt>
<trkpt lat="50.387157" lon="3.763875"><time>2026-05-04T16:57:53Z</time></trkpt>
</trkseg>
</trk>
<trk>
<name>hdowh13</name>
<cmt>s</cmt>
<desc>Wihéries Sentier n°13 </desc>
<link href="https://chemins.be/wiheries/sentier/13"/><trkseg>
<trkpt lat="50.381940" lon="3.750930"><time>2026-05-04T15:17:53Z</time></trkpt>
<trkpt lat="50.380175" lon="3.746273"><time>2026-05-04T15:27:53Z</time></trkpt>
<trkpt lat="50.379491" lon="3.745372"><time>2026-05-04T15:37:53Z</time></trkpt>
<trkpt lat="50.378300" lon="3.744428"><time>2026-05-04T15:47:53Z</time></trkpt>
</trkseg>
</trk>
<trk>
<name>hdowh14</name>
<cmt>v</cmt>
<desc>Wihéries Sentier n°14 </desc>
<link href="https://chemins.be/wiheries/sentier/14"/><trkseg>
<trkpt lat="50.380581" lon="3.757136"><time>2026-05-04T15:17:53Z</time></trkpt>
<trkpt lat="50.379704" lon="3.757122"><time>2026-05-04T15:27:53Z</time></trkpt>
</trkseg></trk>
<trk>
<name>hdowh14</name>
<cmt>q</cmt>
<desc>Wihéries Sentier n°14 </desc>
<link href="https://chemins.be/wiheries/sentier/14"/><trkseg>
<trkpt lat="50.379704" lon="3.757122"><time>2026-05-04T15:27:53Z</time></trkpt>
<trkpt lat="50.378347" lon="3.759454"><time>2026-05-04T15:37:53Z</time></trkpt>
<trkpt lat="50.375953" lon="3.761739"><time>2026-05-04T15:47:53Z</time></trkpt>
<trkpt lat="50.375099" lon="3.761710"><time>2026-05-04T15:57:53Z</time></trkpt>
<trkpt lat="50.374913" lon="3.762122"><time>2026-05-04T16:07:53Z</time></trkpt>
<trkpt lat="50.374321" lon="3.762328"><time>2026-05-04T16:17:53Z</time></trkpt>
<trkpt lat="50.372767" lon="3.761830"><time>2026-05-04T16:27:53Z</time></trkpt>
<trkpt lat="50.370446" lon="3.763993"><time>2026-05-04T16:37:53Z</time></trkpt>
<trkpt lat="50.368475" lon="3.766860"><time>2026-05-04T16:47:53Z</time></trkpt>
</trkseg>
</trk>
<trk>
<name>hdowh15</name>
<cmt>r</cmt>
<desc>Wihéries Sentier n°15 </desc>
<link href="https://chemins.be/wiheries/sentier/15"/><trkseg>
<trkpt lat="50.383479" lon="3.754964"><time>2026-05-04T15:17:53Z</time></trkpt>
<trkpt lat="50.383359" lon="3.753086"><time>2026-05-04T15:27:53Z</time></trkpt>
</trkseg></trk>
<trk>
<name>hdowh15</name>
<cmt>b</cmt>
<desc>Wihéries Sentier n°15 </desc>
<link href="https://chemins.be/wiheries/sentier/15"/><trkseg>
<trkpt lat="50.383359" lon="3.753086"><time>2026-05-04T15:27:53Z</time></trkpt>
<trkpt lat="50.383670" lon="3.752995"><time>2026-05-04T15:37:53Z</time></trkpt>
<trkpt lat="50.383608" lon="3.752566"><time>2026-05-04T15:47:53Z</time></trkpt>
<trkpt lat="50.383455" lon="3.751514"><time>2026-05-04T15:57:53Z</time></trkpt>
</trkseg></trk>
<trk>
<name>hdowh15</name>
<cmt>v</cmt>
<desc>Wihéries Sentier n°15 </desc>
<link href="https://chemins.be/wiheries/sentier/15"/><trkseg>
<trkpt lat="50.383455" lon="3.751514"><time>2026-05-04T15:57:53Z</time></trkpt>
<trkpt lat="50.383291" lon="3.750383"><time>2026-05-04T16:07:53Z</time></trkpt>
</trkseg>
</trk>
<trk>
<name>hdowh16</name>
<cmt>q</cmt>
<desc>Wihéries Sentier n°16 Rue Nacfer</desc>
<link href="https://chemins.be/wiheries/sentier/16"/><trkseg>
<trkpt lat="50.386320" lon="3.751034"><time>2026-05-04T15:17:53Z</time></trkpt>
<trkpt lat="50.386201" lon="3.749784"><time>2026-05-04T15:27:53Z</time></trkpt>
</trkseg>
</trk>
<trk>
<name>hdowh17</name>
<cmt>d</cmt>
<desc>Wihéries Sentier n°17 </desc>
<link href="https://chemins.be/wiheries/sentier/17"/><trkseg>
<trkpt lat="50.387234" lon="3.736414"><time>2026-05-04T15:17:53Z</time></trkpt>
<trkpt lat="50.389861" lon="3.739439"><time>2026-05-04T15:27:53Z</time></trkpt>
</trkseg>
</trk>
<trk>
<name>hdowh18</name>
<cmt>d</cmt>
<desc>Wihéries Sentier n°18 </desc>
<link href="https://chemins.be/wiheries/sentier/18"/><trkseg>
<trkpt lat="50.377929" lon="3.744057"><time>2026-05-04T15:17:53Z</time></trkpt>
<trkpt lat="50.378510" lon="3.743804"><time>2026-05-04T15:27:53Z</time></trkpt>
<trkpt lat="50.379188" lon="3.744213"><time>2026-05-04T15:37:53Z</time></trkpt>
<trkpt lat="50.383161" lon="3.744177"><time>2026-05-04T15:47:53Z</time></trkpt>
</trkseg></trk>
<trk>
<name>hdowh18</name>
<cmt>v</cmt>
<desc>Wihéries Sentier n°18 </desc>
<link href="https://chemins.be/wiheries/sentier/18"/><trkseg>
<trkpt lat="50.383161" lon="3.744177"><time>2026-05-04T15:47:53Z</time></trkpt>
<trkpt lat="50.384803" lon="3.743815"><time>2026-05-04T15:57:53Z</time></trkpt>
<trkpt lat="50.386468" lon="3.745115"><time>2026-05-04T16:07:53Z</time></trkpt>
</trkseg></trk>
<trk>
<name>hdowh18</name>
<cmt>d</cmt>
<desc>Wihéries Sentier n°18 </desc>
<link href="https://chemins.be/wiheries/sentier/18"/><trkseg>
<trkpt lat="50.386468" lon="3.745115"><time>2026-05-04T16:07:53Z</time></trkpt>
<trkpt lat="50.390778" lon="3.745533"><time>2026-05-04T16:17:53Z</time></trkpt>
</trkseg>
</trk>
<trk>
<name>hdowh19</name>
<cmt>b</cmt>
<desc>Wihéries Sentier n°19 </desc>
<link href="https://chemins.be/wiheries/sentier/19"/><trkseg>
<trkpt lat="50.386318" lon="3.751570"><time>2026-05-04T15:17:53Z</time></trkpt>
<trkpt lat="50.387898" lon="3.751316"><time>2026-05-04T15:27:53Z</time></trkpt>
<trkpt lat="50.388206" lon="3.751134"><time>2026-05-04T15:37:53Z</time></trkpt>
<trkpt lat="50.388206" lon="3.749567"><time>2026-05-04T15:47:53Z</time></trkpt>
</trkseg>
</trk>
<trk>
<name>hdowh22</name>
<cmt>q</cmt>
<desc>Wihéries Sentier n°22 </desc>
<link href="https://chemins.be/wiheries/sentier/22"/><trkseg>
<trkpt lat="50.379709" lon="3.752823"><time>2026-05-04T15:17:53Z</time></trkpt>
<trkpt lat="50.377793" lon="3.751761"><time>2026-05-04T15:27:53Z</time></trkpt>
<trkpt lat="50.376350" lon="3.752180"><time>2026-05-04T15:37:53Z</time></trkpt>
</trkseg>
</trk>
<trk>
<name>hdowh23</name>
<cmt>q</cmt>
<desc>Wihéries Sentier n°23 </desc>
<link href="https://chemins.be/wiheries/sentier/23"/><trkseg>
<trkpt lat="50.373248" lon="3.755959"><time>2026-05-04T15:17:53Z</time></trkpt>
<trkpt lat="50.370216" lon="3.756148"><time>2026-05-04T15:27:53Z</time></trkpt>
<trkpt lat="50.369091" lon="3.755466"><time>2026-05-04T15:37:53Z</time></trkpt>
</trkseg>
</trk>
<trk>
<name>hdowh24</name>
<cmt>q</cmt>
<desc>Wihéries Sentier n°24 </desc>
<link href="https://chemins.be/wiheries/sentier/24"/><trkseg>
<trkpt lat="50.380749" lon="3.755382"><time>2026-05-04T15:17:53Z</time></trkpt>
<trkpt lat="50.380927" lon="3.753633"><time>2026-05-04T15:27:53Z</time></trkpt>
<trkpt lat="50.381098" lon="3.753204"><time>2026-05-04T15:37:53Z</time></trkpt>
<trkpt lat="50.381119" lon="3.751692"><time>2026-05-04T15:47:53Z</time></trkpt>
</trkseg>
</trk>
<trk>
<name>hdowh25</name>
<cmt>v</cmt>
<desc>Wihéries Sentier n°25 </desc>
<link href="https://chemins.be/wiheries/sentier/25"/><trkseg>
<trkpt lat="50.385087" lon="3.760028"><time>2026-05-04T15:17:53Z</time></trkpt>
<trkpt lat="50.385046" lon="3.761272"><time>2026-05-04T15:27:53Z</time></trkpt>
<trkpt lat="50.384868" lon="3.763483"><time>2026-05-04T15:37:53Z</time></trkpt>
<trkpt lat="50.379873" lon="3.762656"><time>2026-05-04T15:47:53Z</time></trkpt>
<trkpt lat="50.379298" lon="3.763107"><time>2026-05-04T15:57:53Z</time></trkpt>
<trkpt lat="50.377403" lon="3.762673"><time>2026-05-04T16:07:53Z</time></trkpt>
<trkpt lat="50.376391" lon="3.763069"><time>2026-05-04T16:17:53Z</time></trkpt>
<trkpt lat="50.375515" lon="3.764046"><time>2026-05-04T16:27:53Z</time></trkpt>
</trkseg>
</trk>
<trk>
<name>hdowh27</name>
<cmt>q</cmt>
<desc>Wihéries Sentier n°27 </desc>
<link href="https://chemins.be/wiheries/sentier/27"/><trkseg>
<trkpt lat="50.364620" lon="3.759489"><time>2026-05-04T15:17:53Z</time></trkpt>
<trkpt lat="50.364166" lon="3.755936"><time>2026-05-04T15:27:53Z</time></trkpt>
</trkseg>
</trk>
<trk>
<name>hdowh28</name>
<cmt>d</cmt>
<desc>Wihéries Sentier n°28 </desc>
<link href="https://chemins.be/wiheries/sentier/28"/><trkseg>
<trkpt lat="50.379792" lon="3.756069"><time>2026-05-04T15:17:53Z</time></trkpt>
<trkpt lat="50.380640" lon="3.757185"><time>2026-05-04T15:27:53Z</time></trkpt>
</trkseg></trk>
<trk>
<name>hdowh28</name>
<cmt>v</cmt>
<desc>Wihéries Sentier n°28 </desc>
<link href="https://chemins.be/wiheries/sentier/28"/><trkseg>
<trkpt lat="50.380640" lon="3.757185"><time>2026-05-04T15:27:53Z</time></trkpt>
<trkpt lat="50.381871" lon="3.757335"><time>2026-05-04T15:37:53Z</time></trkpt>
</trkseg>
</trk>
<trk>
<name>hdowh3</name>
<cmt>v</cmt>
<desc>Wihéries Chemin n°3 Rue de Dour / Rue du Préfeuillet</desc>
<link href="https://chemins.be/wiheries/chemin/3"/><trkseg>
<trkpt lat="50.374834" lon="3.762405"><time>2026-05-04T15:17:53Z</time></trkpt>
<trkpt lat="50.374279" lon="3.764212"><time>2026-05-04T15:27:53Z</time></trkpt>
<trkpt lat="50.373712" lon="3.766062"><time>2026-05-04T15:37:53Z</time></trkpt>
<trkpt lat="50.373619" lon="3.768474"><time>2026-05-04T15:47:53Z</time></trkpt>
<trkpt lat="50.372984" lon="3.769049"><time>2026-05-04T15:57:53Z</time></trkpt>
<trkpt lat="50.372575" lon="3.771216"><time>2026-05-04T16:07:53Z</time></trkpt>
</trkseg>
</trk>
<trk>
<name>hdowh8</name>
<cmt>v</cmt>
<desc>Wihéries Chemin n°8 </desc>
<link href="https://chemins.be/wiheries/chemin/8"/><trkseg>
<trkpt lat="50.376600" lon="3.742417"><time>2026-05-04T15:17:53Z</time></trkpt>
<trkpt lat="50.375043" lon="3.743752"><time>2026-05-04T15:27:53Z</time></trkpt>
<trkpt lat="50.374645" lon="3.745513"><time>2026-05-04T15:37:53Z</time></trkpt>
<trkpt lat="50.374009" lon="3.748330"><time>2026-05-04T15:47:53Z</time></trkpt>
<trkpt lat="50.371398" lon="3.750312"><time>2026-05-04T15:57:53Z</time></trkpt>
</trkseg></trk>
<trk>
<name>hdowh8</name>
<cmt>s</cmt>
<desc>Wihéries Chemin n°8 </desc>
<link href="https://chemins.be/wiheries/chemin/8"/><trkseg>
<trkpt lat="50.371398" lon="3.750312"><time>2026-05-04T15:57:53Z</time></trkpt>
<trkpt lat="50.371003" lon="3.751062"><time>2026-05-04T16:07:53Z</time></trkpt>
</trkseg></trk>
<trk>
<name>hdowh8</name>
<cmt>v</cmt>
<desc>Wihéries Chemin n°8 </desc>
<link href="https://chemins.be/wiheries/chemin/8"/><trkseg>
<trkpt lat="50.371003" lon="3.751062"><time>2026-05-04T16:07:53Z</time></trkpt>
<trkpt lat="50.367398" lon="3.755710"><time>2026-05-04T16:17:53Z</time></trkpt>
</trkseg></trk>
<trk>
<name>hdowh8</name>
<cmt>q</cmt>
<desc>Wihéries Chemin n°8 </desc>
<link href="https://chemins.be/wiheries/chemin/8"/><trkseg>
<trkpt lat="50.367398" lon="3.755710"><time>2026-05-04T16:17:53Z</time></trkpt>
<trkpt lat="50.364651" lon="3.759517"><time>2026-05-04T16:27:53Z</time></trkpt>
<trkpt lat="50.363501" lon="3.762453"><time>2026-05-04T16:37:53Z</time></trkpt>
</trkseg>
</trk>
<trk>
<name>hdowh9</name>
<cmt>v</cmt>
<desc>Wihéries Chemin n°9 </desc>
<link href="https://chemins.be/wiheries/chemin/9"/><trkseg>
<trkpt lat="50.361945" lon="3.757045"><time>2026-05-04T15:17:53Z</time></trkpt>
<trkpt lat="50.362150" lon="3.760135"><time>2026-05-04T15:27:53Z</time></trkpt>
<trkpt lat="50.362027" lon="3.761466"><time>2026-05-04T15:37:53Z</time></trkpt>
<trkpt lat="50.361828" lon="3.762871"><time>2026-05-04T15:47:53Z</time></trkpt>
</trkseg>
</trk>
<trk>
<name>hdowhi1</name>
<cmt>v</cmt>
<desc>Wihéries Sentier n°i1 Ruelle Militaire</desc>
<link href="https://chemins.be/wiheries/sentier/i1"/><trkseg>
<trkpt lat="50.385687" lon="3.756433"><time>2026-05-04T15:17:53Z</time></trkpt>
<trkpt lat="50.385948" lon="3.756472"><time>2026-05-04T15:27:53Z</time></trkpt>
<trkpt lat="50.386057" lon="3.756583"><time>2026-05-04T15:37:53Z</time></trkpt>
<trkpt lat="50.386138" lon="3.756624"><time>2026-05-04T15:47:53Z</time></trkpt>
<trkpt lat="50.386200" lon="3.756595"><time>2026-05-04T15:57:53Z</time></trkpt>
<trkpt lat="50.386318" lon="3.756664"><time>2026-05-04T16:07:53Z</time></trkpt>
<trkpt lat="50.386461" lon="3.756591"><time>2026-05-04T16:17:53Z</time></trkpt>
</trkseg>
</trk>
<trk>
<name>hdowhi2</name>
<cmt>r</cmt>
<desc>Wihéries Sentier n°i2 Rue César Depaepe</desc>
<link href="https://chemins.be/wiheries/sentier/i2"/><trkseg>
<trkpt lat="50.389050" lon="3.755385"><time>2026-05-04T15:17:53Z</time></trkpt>
<trkpt lat="50.391044" lon="3.755052"><time>2026-05-04T15:27:53Z</time></trkpt>
</trkseg></trk>
<trk>
<name>hdowhi2</name>
<cmt>q</cmt>
<desc>Wihéries Sentier n°i2 Rue César Depaepe</desc>
<link href="https://chemins.be/wiheries/sentier/i2"/><trkseg>
<trkpt lat="50.391044" lon="3.755052"><time>2026-05-04T15:27:53Z</time></trkpt>
<trkpt lat="50.392365" lon="3.754368"><time>2026-05-04T15:37:53Z</time></trkpt>
</trkseg>
</trk>
<trk>
<name>hdowhi3</name>
<cmt>v</cmt>
<desc>Wihéries Chemin n°i3 Chemin du Tram / Rue des Chênes / Avenue Jules Sartieaux</desc>
<link href="https://chemins.be/wiheries/chemin/i3"/><trkseg>
<trkpt lat="50.385744" lon="3.761809"><time>2026-05-04T15:17:53Z</time></trkpt>
<trkpt lat="50.383705" lon="3.759963"><time>2026-05-04T15:27:53Z</time></trkpt>
<trkpt lat="50.383130" lon="3.758805"><time>2026-05-04T15:37:53Z</time></trkpt>
<trkpt lat="50.382993" lon="3.757668"><time>2026-05-04T15:47:53Z</time></trkpt>
<trkpt lat="50.382801" lon="3.755023"><time>2026-05-04T15:57:53Z</time></trkpt>
<trkpt lat="50.382693" lon="3.750672"><time>2026-05-04T16:07:53Z</time></trkpt>
</trkseg></trk>
<trk>
<name>hdowhi3</name>
<cmt>r</cmt>
<desc>Wihéries Chemin n°i3 Chemin du Tram / Rue des Chênes / Avenue Jules Sartieaux</desc>
<link href="https://chemins.be/wiheries/chemin/i3"/><trkseg>
<trkpt lat="50.382693" lon="3.750672"><time>2026-05-04T16:07:53Z</time></trkpt>
<trkpt lat="50.382255" lon="3.749514"><time>2026-05-04T16:17:53Z</time></trkpt>
<trkpt lat="50.377899" lon="3.744063"><time>2026-05-04T16:27:53Z</time></trkpt>
</trkseg>
</trk>
<trk>
<name>hdowhi4</name>
<cmt>v</cmt>
<desc>Wihéries Sentier n°i4 Sentier de Monignies</desc>
<link href="https://chemins.be/wiheries/sentier/i4"/><trkseg>
<trkpt lat="50.381495" lon="3.751477"><time>2026-05-04T15:17:53Z</time></trkpt>
<trkpt lat="50.381242" lon="3.750383"><time>2026-05-04T15:27:53Z</time></trkpt>
<trkpt lat="50.380995" lon="3.748752"><time>2026-05-04T15:37:53Z</time></trkpt>
<trkpt lat="50.381173" lon="3.748409"><time>2026-05-04T15:47:53Z</time></trkpt>
</trkseg>
</trk>
<trk>
<name>hdowhi5</name>
<cmt>q</cmt>
<desc>Wihéries Sentier n°i5 </desc>
<link href="https://chemins.be/wiheries/sentier/i5"/><trkseg>
<trkpt lat="50.384868" lon="3.763504"><time>2026-05-04T15:17:53Z</time></trkpt>
<trkpt lat="50.384950" lon="3.765060"><time>2026-05-04T15:27:53Z</time></trkpt>
<trkpt lat="50.384690" lon="3.766347"><time>2026-05-04T15:37:53Z</time></trkpt>
</trkseg>
</trk>
<trk>
<name>hdowhL98A</name>
<cmt>v</cmt>
<desc>Wihéries Chemin n°L98A RAVeL de la Ligne 98A</desc>
<link href="https://chemins.be/wiheries/chemin/L98A"/><trkseg>
<trkpt lat="50.389995" lon="3.733403"><time>2026-05-04T15:17:53Z</time></trkpt>
<trkpt lat="50.391377" lon="3.736600"><time>2026-05-04T15:27:53Z</time></trkpt>
</trkseg>
</trk>
</gpx>